[[{"header":{"parameterUnit":"m.s-1","parameterCategory":1,"la1":31.0,"la2":29.5877,"lo1":-88.7671,"lo2":-86.6584,"dx":0.0162,"dy":0.0185,"nx":115,"ny":88,"refTime":"2023-02-12T06:00:00:Z","depth":0,"parameterNumber":2,"parameterNumberName":"U-component_of_WINDS"},"data":[0.0,0.0,0.0,0.0,0.0,0.0,0.0,0.0,0.0,0.0,0.0,0.0,0.0,0.0,0.0,0.0,0.0,0.0,0.0,0.0,0.0,0.0,0.0,0.0,0.0,0.0,0.0,0.0,0.0,0.0,0.0,0.0,0.0,0.0,0.0,0.0,0.0,0.0,0.0,0.0,0.0,0.0,0.0,0.0,0.0,0.0,0.0,0.0,0.0,0.0,0.0,0.0,0.0,0.0,0.0,0.0,0.0,0.0,0.0,0.0,0.0,0.0,0.0,0.0,0.0,0.0,0.0,0.0,0.0,0.0,0.0,0.0,0.0,0.0,0.0,0.0,0.0,0.0,0.0,0.0,0.0,0.0,0.0,0.0,0.0,0.0,0.0,0.0,0.0,0.0,0.0,0.0,0.0,0.0,0.0,0.0,0.0,0.0,0.0,0.0,0.0,0.0,0.0,0.0,0.0,0.0,0.0,0.0,0.0,0.0,0.0,0.0,0.0,0.0,0.0,0.0,0.0,0.0,0.0,0.0,0.0,0.0,0.0,0.0,0.0,0.0,0.0,0.0,0.0,0.0,0.0,0.0,0.0,0.0,0.0,0.0,0.0,0.0,0.0,0.0,0.0,0.0,0.0,0.0,0.0,0.0,0.0,0.0,0.0,0.0,0.0,0.0,0.0,0.0,0.0,0.0,0.0,0.0,0.0,0.0,0.0,0.0,0.0,0.0,0.0,0.0,0.0,0.0,0.0,0.0,0.0,0.0,0.0,0.0,0.0,0.0,0.0,0.0,0.0,0.0,0.0,0.0,0.0,0.0,0.0,0.0,0.0,0.0,0.0,0.0,0.0,0.0,0.0,0.0,0.0,0.0,0.0,0.0,0.0,0.0,0.0,0.0,0.0,0.0,0.0,0.0,0.0,0.0,0.0,0.0,0.0,0.0,0.0,0.0,0.0,0.0,0.0,0.0,0.0,0.0,0.0,0.0,0.0,0.0,0.0,0.0,0.0,0.0,0.0,0.0,0.0,0.0,0.0,0.0,0.0,0.0,0.0,0.0,0.0,0.0,0.0,0.0,0.0,0.0,0.0,0.0,0.0,0.0,0.0,0.0,0.0,0.0,0.0,0.0,0.0,0.0,0.0,0.0,0.0,0.0,0.0,0.0,0.0,0.0,0.0,0.0,0.0,0.0,0.0,0.0,0.0,0.0,0.0,0.0,0.0,0.0,0.0,0.0,0.0,0.0,0.0,0.0,0.0,0.0,0.0,0.0,0.0,0.0,0.0,0.0,0.0,0.0,0.0,0.0,0.0,0.0,0.0,0.0,0.0,0.0,0.0,0.0,0.0,0.0,0.0,0.0,0.0,0.0,0.0,0.0,0.0,0.0,0.0,0.0,0.0,0.0,0.0,0.0,0.0,0.0,0.0,0.0,0.0,0.0,0.0,0.0,0.0,0.0,0.0,0.0,0.0,0.0,0.0,0.0,0.0,0.0,0.0,0.0,0.0,0.0,0.0,0.0,0.0,0.0,0.0,0.0,0.0,0.0,0.0,0.0,0.0,0.0,0.0,0.0,0.0,0.0,0.0,0.0,0.0,0.0,0.0,0.0,0.0,0.0,0.0,0.0,0.0,0.0,0.0,0.0,0.0,0.0,0.0,0.0,0.0,0.0,0.0,0.0,0.0,0.0,0.0,0.0,0.0,0.0,0.0,0.0,0.0,0.0,0.0,0.0,0.0,0.0,0.0,0.0,0.0,0.0,0.0,0.0,0.0,0.0,0.0,0.0,0.0,0.0,0.0,0.0,0.0,0.0,0.0,0.0,0.0,0.0,0.0,0.0,0.0,0.0,0.0,0.0,0.0,0.0,0.0,0.0,0.0,0.0,0.0,0.0,0.0,0.0,0.0,0.0,0.0,0.0,0.0,0.0,0.0,0.0,0.0,0.0,0.0,0.0,0.0,0.0,0.0,0.0,0.0,0.0,0.0,0.0,0.0,0.0,0.0,0.0,0.0,0.0,0.0,0.0,0.0,0.0,0.0,0.0,0.0,0.0,0.0,0.0,0.0,0.0,0.0,0.0,0.0,0.0,0.0,0.0,0.0,0.0,0.0,0.0,0.0,0.0,0.0,0.0,0.0,0.0,0.0,0.0,0.0,0.0,0.0,0.0,0.0,0.0,0.0,0.0,0.0,0.0,0.0,0.0,0.0,0.0,0.0,0.0,0.0,0.0,0.0,0.0,0.0,0.0,0.0,0.0,0.0,0.0,0.0,0.0,0.0,0.0,0.0,0.0,0.0,0.0,0.0,0.0,0.0,0.0,0.0,0.0,0.0,0.0,0.0,0.0,0.0,0.0,0.0,0.0,0.0,0.0,0.0,0.0,0.0,0.0,0.0,0.0,0.0,0.0,0.0,0.0,0.0,0.0,0.0,0.0,0.0,0.0,0.0,0.0,0.0,0.0,0.0,0.0,0.0,0.0,0.0,0.0,0.0,0.0,0.0,0.0,0.0,0.0,0.0,0.0,0.0,0.0,0.0,0.0,0.0,0.0,0.0,0.0,0.0,0.0,0.0,0.0,0.0,0.0,0.0,0.0,0.0,0.0,0.0,0.0,0.0,0.0,0.0,0.0,0.0,0.0,0.0,0.0,0.0,0.0,0.0,0.0,0.0,0.0,0.0,0.0,0.0,0.0,0.0,0.0,0.0,0.0,0.0,0.0,0.0,0.0,0.0,0.0,0.0,0.0,0.0,0.0,0.0,0.0,0.0,0.0,0.0,0.0,0.0,0.0,0.0,0.0,0.0,0.0,0.0,0.0,0.0,0.0,0.0,0.0,0.0,0.0,0.0,0.0,0.0,0.0,0.0,0.0,0.0,0.0,0.0,0.0,0.0,0.0,0.0,0.0,0.0,0.0,0.0,0.0,0.0,0.0,0.0,0.0,0.0,0.0,0.0,0.0,0.0,0.0,0.0,0.0,0.0,0.0,0.0,0.0,0.0,0.0,0.0,0.0,0.0,0.0,0.0,0.0,0.0,0.0,0.0,0.0,0.0,0.0,0.0,0.0,0.0,0.0,0.0,0.0,0.0,0.0,0.0,0.0,0.0,0.0,0.0,0.0,0.0,0.0,0.0,0.0,0.0,0.0,0.0,0.0,0.0,0.0,0.0,0.0,0.0,0.0,0.0,0.0,0.0,0.0,0.0,0.0,0.0,0.0,0.0,0.0,0.0,0.0,0.0,0.0,0.0,0.0,0.0,0.0,0.0,0.0,0.0,0.0,0.0,0.0,0.0,0.0,0.0,0.0,0.0,0.0,0.0,0.0,0.0,0.0,0.0,0.0,0.0,0.0,0.0,0.0,0.0,0.0,0.0,0.0,0.0,0.0,0.0,0.0,0.0,0.0,0.0,0.0,0.0,0.0,0.0,0.0,0.0,0.0,0.0,0.0,0.0,0.0,0.0,0.0,0.0,0.0,0.0,0.0,0.0,0.0,0.0,0.0,0.0,0.0,0.0,0.0,0.0,0.0,0.0,0.0,0.0,0.0,0.0,0.0,0.0,0.0,0.0,0.0,0.0,0.0,0.0,0.0,0.0,0.0,0.0,0.0,0.0,0.0,0.0,0.0,0.0,0.0,0.0,0.0,0.0,0.0,0.0,0.0,0.0,0.0,0.0,0.0,0.0,0.0,0.0,0.0,0.0,0.0,0.0,0.0,0.0,0.0,0.0,0.0,0.0,0.0,0.0,0.0,0.0,0.0,0.0,0.0,0.0,0.0,0.0,0.0,0.0,0.0,0.0,0.0,0.0,0.0,0.0,0.0,0.0,0.0,0.0,0.0,0.0,0.0,0.0,0.0,0.0,0.0,0.0,0.0,0.0,0.0,0.0,0.0,0.0,0.0,0.0,0.0,0.0,0.0,0.0,0.0,0.0,0.0,0.0,0.0,0.0,0.0,0.0,0.0,0.0,0.0,0.0,0.0,0.0,0.0,0.0,0.0,0.0,0.0,0.0,0.0,0.0,0.0,0.0,0.0,0.0,0.0,0.0,0.0,0.0,0.0,0.0,0.0,0.0,0.0,0.0,0.0,0.0,0.0,0.0,0.0,0.0,0.0,0.0,0.0,0.0,0.0,0.0,0.0,0.0,0.0,0.0,0.0,0.0,0.0,0.0,0.0,0.0,0.0,0.0,0.0,0.0,0.0,0.0,0.0,0.0,0.0,0.0,0.0,0.0,0.0,0.0,0.0,0.0,0.0,0.0,0.0,0.0,0.0,0.0,0.0,0.0,0.0,6.2805,0.0,0.0,0.0,0.0,0.0,0.0,0.0,0.0,0.0,0.0,0.0,0.0,0.0,0.0,0.0,0.0,0.0,0.0,0.0,0.0,0.0,0.0,0.0,0.0,0.0,0.0,0.0,0.0,0.0,0.0,0.0,0.0,0.0,0.0,0.0,0.0,0.0,0.0,0.0,0.0,0.0,0.0,0.0,0.0,0.0,0.0,0.0,0.0,0.0,0.0,0.0,0.0,0.0,0.0,0.0,0.0,0.0,0.0,0.0,0.0,0.0,0.0,0.0,0.0,0.0,0.0,0.0,0.0,0.0,0.0,0.0,0.0,0.0,0.0,0.0,0.0,0.0,0.0,0.0,0.0,0.0,0.0,0.0,0.0,0.0,0.0,0.0,0.0,0.0,0.0,0.0,0.0,0.0,0.0,0.0,0.0,0.0,0.0,0.0,0.0,0.0,0.0,0.0,0.0,0.0,0.0,0.0,0.0,0.0,0.0,6.2805,6.2805,6.2805,6.2805,6.2805,0.0,0.0,0.0,0.0,0.0,0.0,0.0,0.0,0.0,0.0,0.0,0.0,0.0,0.0,0.0,0.0,0.0,0.0,0.0,0.0,0.0,0.0,0.0,0.0,0.0,0.0,0.0,0.0,0.0,0.0,0.0,0.0,0.0,0.0,0.0,0.0,0.0,0.0,0.0,0.0,0.0,0.0,0.0,0.0,0.0,0.0,0.0,0.0,0.0,0.0,0.0,0.0,0.0,0.0,0.0,0.0,0.0,0.0,0.0,0.0,0.0,0.0,0.0,0.0,0.0,0.0,0.0,0.0,0.0,0.0,0.0,0.0,0.0,0.0,0.0,0.0,0.0,0.0,0.0,0.0,0.0,0.0,0.0,0.0,0.0,0.0,0.0,0.0,0.0,0.0,0.0,0.0,0.0,0.0,0.0,0.0,0.0,0.0,0.0,0.0,0.0,0.0,0.0,0.0,0.0,0.0,0.0,0.0,0.0,0.0,0.0,0.0,6.2805,6.2805,6.2805,0.0,0.0,0.0,0.0,0.0,0.0,0.0,0.0,0.0,0.0,0.0,0.0,0.0,0.0,0.0,0.0,0.0,0.0,0.0,0.0,0.0,0.0,0.0,0.0,0.0,0.0,0.0,0.0,0.0,0.0,0.0,0.0,0.0,0.0,0.0,0.0,0.0,0.0,0.0,0.0,0.0,0.0,0.0,0.0,0.0,0.0,0.0,0.0,0.0,0.0,0.0,0.0,0.0,0.0,0.0,0.0,0.0,0.0,0.0,0.0,0.0,0.0,0.0,0.0,0.0,0.0,0.0,0.0,0.0,0.0,0.0,0.0,0.0,0.0,0.0,0.0,0.0,0.0,0.0,0.0,0.0,0.0,0.0,0.0,0.0,0.0,0.0,0.0,0.0,0.0,0.0,0.0,0.0,0.0,0.0,0.0,0.0,0.0,0.0,0.0,0.0,0.0,0.0,0.0,0.0,0.0,0.0,0.0,0.0,0.0,6.2805,6.2805,6.2842,0.0,6.2805,0.0,0.0,0.0,0.0,0.0,0.0,0.0,0.0,0.0,0.0,0.0,0.0,0.0,0.0,0.0,0.0,0.0,0.0,0.0,0.0,0.0,0.0,0.0,0.0,0.0,0.0,0.0,0.0,0.0,0.0,0.0,0.0,0.0,0.0,0.0,0.0,0.0,0.0,0.0,0.0,0.0,0.0,0.0,0.0,0.0,0.0,0.0,0.0,0.0,0.0,0.0,0.0,0.0,0.0,0.0,0.0,0.0,0.0,0.0,0.0,0.0,0.0,0.0,0.0,0.0,0.0,0.0,0.0,0.0,0.0,0.0,0.0,0.0,0.0,0.0,0.0,0.0,0.0,0.0,0.0,0.0,0.0,0.0,0.0,0.0,0.0,0.0,0.0,0.0,0.0,0.0,0.0,0.0,0.0,0.0,0.0,0.0,0.0,0.0,0.0,0.0,0.0,0.0,0.0,0.0,0.0,0.0,0.0,0.0,0.0,6.3062,6.3539,6.3576,6.3319,0.0,0.0,0.0,0.0,0.0,0.0,0.0,0.0,0.0,0.0,0.0,0.0,0.0,0.0,0.0,0.0,0.0,0.0,0.0,0.0,0.0,0.0,0.0,0.0,0.0,0.0,0.0,0.0,0.0,0.0,0.0,0.0,0.0,0.0,0.0,0.0,0.0,0.0,0.0,0.0,0.0,0.0,0.0,0.0,0.0,0.0,0.0,0.0,0.0,0.0,0.0,0.0,0.0,0.0,0.0,0.0,0.0,0.0,0.0,0.0,0.0,0.0,0.0,0.0,0.0,0.0,0.0,0.0,0.0,0.0,0.0,0.0,0.0,0.0,0.0,0.0,0.0,0.0,0.0,0.0,0.0,0.0,0.0,0.0,0.0,0.0,0.0,0.0,0.0,0.0,0.0,0.0,0.0,0.0,0.0,0.0,0.0,0.0,0.0,0.0,0.0,0.0,0.0,0.0,0.0,0.0,0.0,0.0,0.0,0.0,6.3503,6.3796,6.4383,6.442,6.4127,6.3503,0.0,0.0,0.0,0.0,0.0,0.0,0.0,0.0,0.0,0.0,0.0,0.0,0.0,0.0,0.0,0.0,0.0,0.0,0.0,0.0,0.0,0.0,0.0,0.0,0.0,0.0,0.0,0.0,0.0,0.0,0.0,0.0,0.0,0.0,0.0,0.0,0.0,0.0,0.0,0.0,0.0,0.0,0.0,0.0,0.0,0.0,0.0,0.0,0.0,0.0,0.0,0.0,0.0,0.0,0.0,0.0,0.0,0.0,0.0,0.0,0.0,0.0,0.0,0.0,0.0,0.0,0.0,0.0,0.0,0.0,0.0,0.0,0.0,0.0,0.0,0.0,0.0,0.0,0.0,0.0,0.0,0.0,0.0,0.0,0.0,0.0,0.0,0.0,0.0,0.0,0.0,0.0,0.0,0.0,0.0,0.0,0.0,0.0,0.0,0.0,0.0,0.0,0.0,0.0,0.0,0.0,0.0,0.0,0.0,6.5191,6.5228,6.5228,6.5264,6.5228,0.0,0.0,0.0,0.0,0.0,0.0,0.0,0.0,0.0,0.0,0.0,0.0,0.0,0.0,0.0,0.0,0.0,0.0,0.0,0.0,0.0,0.0,0.0,0.0,0.0,0.0,0.0,0.0,0.0,0.0,0.0,0.0,0.0,0.0,0.0,0.0,0.0,0.0,0.0,0.0,0.0,0.0,0.0,0.0,0.0,0.0,0.0,0.0,0.0,0.0,0.0,0.0,0.0,0.0,0.0,0.0,0.0,0.0,0.0,0.0,0.0,0.0,0.0,0.0,0.0,0.0,0.0,0.0,0.0,0.0,0.0,0.0,0.0,0.0,0.0,0.0,0.0,0.0,0.0,0.0,0.0,0.0,0.0,0.0,0.0,0.0,0.0,0.0,0.0,0.0,0.0,0.0,0.0,0.0,0.0,0.0,0.0,0.0,0.0,0.0,0.0,0.0,0.0,0.0,0.0,0.0,0.0,0.0,0.0,6.5338,6.5815,6.5815,6.5338,6.5815,6.5815,0.0,0.0,0.0,0.0,0.0,0.0,0.0,0.0,0.0,0.0,0.0,0.0,0.0,0.0,0.0,0.0,0.0,0.0,0.0,0.0,0.0,0.0,0.0,0.0,0.0,0.0,0.0,0.0,0.0,0.0,0.0,0.0,0.0,0.0,0.0,0.0,0.0,0.0,0.0,0.0,0.0,0.0,0.0,0.0,0.0,0.0,0.0,0.0,0.0,0.0,0.0,0.0,0.0,0.0,0.0,0.0,0.0,0.0,0.0,0.0,0.0,0.0,0.0,0.0,0.0,0.0,0.0,0.0,0.0,0.0,0.0,0.0,0.0,0.0,0.0,0.0,0.0,0.0,0.0,0.0,0.0,0.0,0.0,0.0,0.0,0.0,0.0,0.0,0.0,0.0,0.0,0.0,0.0,0.0,0.0,0.0,0.0,0.0,0.0,0.0,0.0,0.0,0.0,0.0,0.0,0.0,0.0,0.0,0.0,6.6109,0.0,6.6623,0.0,6.6586,6.6623,0.0,0.0,0.0,0.0,0.0,0.0,0.0,0.0,0.0,0.0,0.0,0.0,0.0,0.0,0.0,0.0,0.0,0.0,0.0,0.0,0.0,0.0,0.0,0.0,0.0,0.0,0.0,0.0,0.0,0.0,0.0,0.0,0.0,0.0,0.0,0.0,0.0,0.0,0.0,0.0,0.0,0.0,0.0,0.0,0.0,0.0,0.0,0.0,0.0,0.0,0.0,0.0,0.0,0.0,0.0,0.0,0.0,0.0,0.0,0.0,0.0,0.0,0.0,0.0,0.0,0.0,0.0,0.0,0.0,0.0,0.0,0.0,0.0,0.0,0.0,0.0,0.0,0.0,0.0,0.0,0.0,0.0,0.0,0.0,0.0,0.0,0.0,0.0,0.0,0.0,0.0,0.0,0.0,0.0,0.0,0.0,0.0,0.0,0.0,0.0,0.0,0.0,0.0,0.0,0.0,0.0,0.0,0.0,6.765,6.765,6.765,6.7614,6.765,6.765,6.765,0.0,0.0,0.0,0.0,0.0,0.0,0.0,0.0,0.0,0.0,0.0,0.0,0.0,0.0,0.0,0.0,0.0,0.0,0.0,0.0,0.0,0.0,0.0,0.0,0.0,0.0,0.0,0.0,0.0,0.0,0.0,0.0,0.0,0.0,0.0,0.0,0.0,0.0,0.0,0.0,0.0,0.0,0.0,0.0,0.0,0.0,0.0,0.0,0.0,0.0,0.0,0.0,0.0,0.0,0.0,0.0,0.0,0.0,0.0,0.0,0.0,0.0,0.0,0.0,0.0,0.0,0.0,0.0,0.0,0.0,0.0,0.0,0.0,0.0,0.0,0.0,0.0,0.0,0.0,0.0,0.0,0.0,0.0,0.0,0.0,0.0,0.0,0.0,0.0,0.0,0.0,0.0,0.0,0.0,0.0,0.0,0.0,0.0,0.0,0.0,0.0,0.0,0.0,0.0,0.0,0.0,0.0,0.0,0.0,6.7687,6.7687,6.7687,6.7687,6.7687,6.7687,0.0,0.0,0.0,0.0,0.0,0.0,0.0,0.0,0.0,0.0,0.0,0.0,0.0,0.0,0.0,0.0,0.0,0.0,0.0,0.0,0.0,0.0,0.0,0.0,0.0,0.0,0.0,0.0,0.0,0.0,0.0,0.0,0.0,0.0,0.0,0.0,0.0,0.0,0.0,0.0,0.0,0.0,0.0,0.0,0.0,0.0,0.0,0.0,0.0,0.0,0.0,0.0,0.0,0.0,0.0,0.0,0.0,0.0,0.0,0.0,0.0,0.0,0.0,0.0,0.0,0.0,0.0,0.0,0.0,0.0,0.0,0.0,0.0,0.0,0.0,0.0,0.0,0.0,0.0,0.0,0.0,0.0,0.0,0.0,0.0,0.0,0.0,0.0,0.0,0.0,0.0,0.0,0.0,0.0,0.0,0.0,0.0,0.0,0.0,0.0,0.0,0.0,0.0,0.0,0.0,0.0,0.0,0.0,0.0,6.7687,6.7687,6.7687,6.7687,6.7687,6.7687,6.7687,0.0,0.0,0.0,0.0,0.0,0.0,0.0,0.0,0.0,0.0,0.0,0.0,0.0,0.0,0.0,0.0,0.0,0.0,0.0,0.0,0.0,0.0,0.0,0.0,0.0,0.0,0.0,0.0,0.0,0.0,0.0,0.0,0.0,0.0,0.0,0.0,0.0,0.0,0.0,0.0,0.0,0.0,0.0,0.0,0.0,0.0,0.0,0.0,0.0,0.0,0.0,0.0,0.0,0.0,0.0,0.0,0.0,0.0,0.0,0.0,0.0,0.0,0.0,0.0,0.0,0.0,0.0,0.0,0.0,0.0,0.0,0.0,0.0,0.0,0.0,0.0,0.0,0.0,0.0,0.0,0.0,0.0,0.0,0.0,0.0,0.0,0.0,0.0,0.0,0.0,0.0,0.0,0.0,0.0,0.0,0.0,0.0,0.0,0.0,0.0,0.0,0.0,0.0,0.0,0.0,0.0,0.0,0.0,6.7687,6.7687,6.7687,6.7687,6.7687,6.7687,0.0,0.0,0.0,0.0,0.0,0.0,0.0,0.0,0.0,0.0,0.0,0.0,0.0,0.0,0.0,0.0,0.0,0.0,0.0,0.0,0.0,0.0,0.0,0.0,0.0,0.0,0.0,0.0,0.0,0.0,0.0,0.0,0.0,0.0,0.0,0.0,0.0,0.0,0.0,0.0,0.0,0.0,0.0,0.0,0.0,0.0,0.0,0.0,0.0,0.0,0.0,0.0,0.0,0.0,0.0,0.0,0.0,0.0,0.0,0.0,0.0,0.0,0.0,0.0,0.0,0.0,0.0,0.0,0.0,0.0,0.0,0.0,0.0,0.0,0.0,0.0,0.0,0.0,0.0,0.0,0.0,0.0,0.0,0.0,0.0,0.0,0.0,0.0,0.0,0.0,0.0,0.0,0.0,0.0,0.0,0.0,0.0,0.0,0.0,0.0,0.0,0.0,0.0,0.0,0.0,0.0,0.0,0.0,0.0,6.7687,6.7687,6.7687,6.7687,6.7687,6.7687,0.0,0.0,0.0,0.0,0.0,0.0,0.0,0.0,0.0,0.0,0.0,0.0,0.0,0.0,0.0,0.0,0.0,0.0,0.0,0.0,0.0,0.0,0.0,0.0,0.0,0.0,0.0,0.0,0.0,0.0,0.0,0.0,0.0,0.0,0.0,0.0,0.0,0.0,0.0,0.0,0.0,0.0,0.0,0.0,0.0,0.0,0.0,0.0,0.0,0.0,0.0,0.0,0.0,0.0,0.0,0.0,0.0,0.0,0.0,0.0,0.0,0.0,0.0,0.0,0.0,0.0,0.0,0.0,0.0,0.0,0.0,0.0,0.0,0.0,0.0,0.0,0.0,0.0,0.0,0.0,0.0,0.0,0.0,0.0,0.0,0.0,0.0,0.0,0.0,0.0,0.0,0.0,0.0,0.0,0.0,0.0,0.0,0.0,0.0,0.0,0.0,0.0,0.0,0.0,0.0,0.0,0.0,0.0,6.8385,6.8678,6.8715,6.8715,6.8715,6.8054,6.7687,0.0,0.0,0.0,0.0,0.0,0.0,0.0,0.0,0.0,0.0,0.0,0.0,0.0,0.0,0.0,0.0,0.0,0.0,0.0,0.0,0.0,0.0,0.0,0.0,0.0,0.0,0.0,0.0,0.0,0.0,0.0,0.0,0.0,0.0,0.0,0.0,0.0,0.0,0.0,0.0,0.0,0.0,0.0,0.0,0.0,0.0,0.0,0.0,0.0,0.0,0.0,0.0,0.0,0.0,0.0,0.0,0.0,0.0,0.0,0.0,0.0,0.0,0.0,0.0,0.0,0.0,0.0,0.0,0.0,0.0,0.0,0.0,0.0,0.0,0.0,0.0,0.0,0.0,0.0,0.0,0.0,0.0,0.0,0.0,0.0,0.0,0.0,0.0,0.0,0.0,0.0,0.0,0.0,0.0,0.0,0.0,0.0,0.0,0.0,0.0,0.0,0.0,0.0,0.0,0.0,0.0,0.0,0.0,6.9376,7.0073,7.011,7.011,7.0073,6.8678,6.7944,0.0,0.0,0.0,0.0,0.0,0.0,0.0,0.0,0.0,0.0,0.0,0.0,0.0,0.0,0.0,0.0,0.0,0.0,0.0,0.0,0.0,0.0,0.0,0.0,0.0,0.0,0.0,0.0,0.0,0.0,0.0,0.0,0.0,0.0,0.0,0.0,0.0,0.0,0.0,0.0,0.0,0.0,0.0,0.0,0.0,0.0,0.0,0.0,0.0,0.0,0.0,0.0,0.0,0.0,0.0,0.0,0.0,0.0,0.0,0.0,0.0,0.0,0.0,0.0,0.0,0.0,0.0,0.0,0.0,0.0,0.0,0.0,0.0,0.0,0.0,0.0,0.0,0.0,0.0,0.0,0.0,0.0,0.0,0.0,0.0,0.0,0.0,0.0,0.0,0.0,0.0,0.0,0.0,0.0,0.0,0.0,0.0,0.0,0.0,0.0,0.0,0.0,0.0,0.0,0.0,0.0,0.0,0.0,6.9926,7.0073,7.011,7.011,7.011,6.9779,6.9559,0.0,0.0,0.0,0.0,0.0,0.0,0.0,0.0,0.0,0.0,0.0,0.0,0.0,0.0,0.0,0.0,0.0,0.0,0.0,0.0,0.0,0.0,0.0,0.0,0.0,0.0,0.0,0.0,0.0,0.0,0.0,0.0,0.0,0.0,0.0,0.0,0.0,0.0,0.0,0.0,0.0,0.0,0.0,0.0,0.0,0.0,0.0,0.0,6.4597,0.0,0.0,0.0,0.0,0.0,0.0,0.0,0.0,0.0,0.0,0.0,0.0,0.0,0.0,0.0,0.0,0.0,0.0,0.0,0.0,0.0,0.0,0.0,0.0,0.0,0.0,0.0,0.0,0.0,0.0,0.0,0.0,0.0,0.0,0.0,0.0,0.0,0.0,0.0,0.0,0.0,0.0,0.0,0.0,0.0,0.0,0.0,0.0,0.0,0.0,0.0,0.0,0.0,0.0,0.0,0.0,0.0,0.0,0.0,7.0844,7.1211,7.1211,7.1211,7.1248,7.1211,7.0881,0.0,0.0,0.0,0.0,0.0,0.0,0.0,0.0,0.0,0.0,0.0,0.0,0.0,0.0,0.0,0.0,0.0,0.0,0.0,0.0,0.0,0.0,0.0,0.0,0.0,0.0,0.0,0.0,0.0,0.0,0.0,0.0,0.0,0.0,0.0,0.0,0.0,0.0,0.0,0.0,0.0,0.0,0.0,0.0,0.0,0.0,0.0,0.0,0.0,0.0,0.0,0.0,0.0,0.0,0.0,0.0,0.0,0.0,0.0,0.0,0.0,0.0,0.0,0.0,0.0,0.0,0.0,0.0,0.0,0.0,0.0,0.0,0.0,0.0,0.0,0.0,0.0,0.0,0.0,0.0,0.0,0.0,0.0,0.0,0.0,0.0,0.0,0.0,0.0,0.0,0.0,0.0,0.0,0.0,0.0,0.0,0.0,0.0,0.0,0.0,0.0,0.0,0.0,0.0,0.0,0.0,0.0,7.1505,7.1835,7.2459,7.2532,7.2532,7.2532,7.2532,7.1872,0.0,0.0,0.0,0.0,0.0,0.0,0.0,0.0,0.0,0.0,0.0,0.0,0.0,0.0,0.0,0.0,0.0,0.0,0.0,0.0,0.0,0.0,0.0,0.0,0.0,0.0,0.0,0.0,0.0,0.0,0.0,0.0,0.0,0.0,0.0,0.0,0.0,0.0,0.0,6.5568,6.618,0.0,0.0,0.0,0.0,0.0,0.0,0.0,0.0,6.7267,0.0,0.0,0.0,0.0,0.0,0.0,0.0,0.0,0.0,0.0,0.0,0.0,0.0,0.0,0.0,0.0,0.0,0.0,0.0,0.0,0.0,0.0,0.0,0.0,0.0,0.0,0.0,0.0,0.0,0.0,0.0,0.0,0.0,0.0,0.0,0.0,0.0,0.0,0.0,0.0,0.0,0.0,0.0,0.0,0.0,0.0,0.0,0.0,0.0,0.0,0.0,0.0,0.0,0.0,0.0,0.0,7.2275,7.2312,7.2386,7.2496,7.2532,7.2532,7.2532,7.2532,7.2386,7.2129,0.0,0.0,0.0,0.0,0.0,0.0,0.0,0.0,0.0,0.0,0.0,0.0,0.0,0.0,0.0,0.0,0.0,0.0,0.0,0.0,0.0,0.0,0.0,0.0,0.0,0.0,0.0,0.0,0.0,0.0,0.0,0.0,0.0,0.0,0.0,0.0,0.0,0.0,0.0,6.8307,6.831,0.0,0.0,0.0,0.0,0.0,0.0,0.0,0.0,6.9587,0.0,0.0,0.0,0.0,0.0,0.0,0.0,0.0,0.0,0.0,0.0,0.0,0.0,0.0,0.0,0.0,0.0,0.0,0.0,0.0,0.0,0.0,0.0,0.0,0.0,0.0,0.0,0.0,0.0,0.0,0.0,0.0,0.0,0.0,0.0,0.0,0.0,0.0,0.0,0.0,0.0,0.0,0.0,0.0,0.0,0.0,0.0,0.0,0.0,0.0,0.0,0.0,0.0,0.0,0.0,7.2496,7.2532,7.2532,7.2532,7.2532,7.2532,7.2532,7.2532,7.2532,0.0,0.0,0.0,0.0,0.0,0.0,0.0,0.0,0.0,0.0,0.0,0.0,0.0,0.0,0.0,0.0,0.0,0.0,0.0,0.0,0.0,0.0,0.0,0.0,0.0,0.0,0.0,0.0,0.0,0.0,0.0,0.0,0.0,0.0,0.0,0.0,0.0,0.0,0.0,0.0,6.9806,6.9781,6.8884,0.0,0.0,0.0,0.0,0.0,0.0,6.9877,6.9913,0.0,0.0,0.0,0.0,0.0,0.0,0.0,0.0,0.0,0.0,0.0,0.0,0.0,0.0,0.0,0.0,0.0,0.0,0.0,0.0,0.0,0.0,0.0,0.0,0.0,0.0,0.0,0.0,0.0,0.0,0.0,0.0,0.0,0.0,0.0,0.0,0.0,0.0,0.0,0.0,0.0,0.0,0.0,0.0,0.0,0.0,0.0,0.0,0.0,0.0,0.0,0.0,0.0,0.0,0.0,7.2532,7.2532,7.2532,7.2532,7.2532,7.2532,7.2532,7.2532,7.2532,0.0,0.0,0.0,0.0,0.0,0.0,0.0,0.0,0.0,0.0,0.0,0.0,0.0,0.0,0.0,0.0,0.0,0.0,0.0,0.0,0.0,0.0,0.0,0.0,0.0,0.0,0.0,0.0,0.0,0.0,0.0,0.0,0.0,0.0,0.0,0.0,0.0,0.0,0.0,0.0,0.0,7.1055,6.9733,7.0589,0.0,0.0,0.0,0.0,7.0264,7.0264,0.0,0.0,0.0,0.0,0.0,0.0,0.0,0.0,0.0,0.0,0.0,0.0,0.0,0.0,0.0,0.0,0.0,0.0,0.0,0.0,0.0,0.0,0.0,0.0,0.0,0.0,0.0,0.0,0.0,0.0,0.0,0.0,0.0,0.0,0.0,0.0,0.0,0.0,0.0,0.0,0.0,0.0,0.0,0.0,0.0,0.0,0.0,0.0,0.0,0.0,0.0,0.0,0.0,0.0,0.0,0.0,7.2532,7.2532,7.2532,7.2532,7.2532,7.2532,7.2532,7.2532,7.2532,0.0,0.0,0.0,0.0,0.0,0.0,0.0,0.0,0.0,0.0,0.0,0.0,0.0,0.0,0.0,0.0,0.0,0.0,0.0,0.0,0.0,0.0,0.0,0.0,0.0,0.0,0.0,0.0,0.0,0.0,0.0,0.0,0.0,0.0,0.0,0.0,0.0,0.0,0.0,0.0,0.0,7.2255,7.2087,7.2233,7.2248,0.0,0.0,0.0,7.2167,7.2167,0.0,0.0,0.0,0.0,0.0,0.0,0.0,0.0,0.0,0.0,0.0,0.0,0.0,0.0,0.0,0.0,0.0,0.0,0.0,0.0,0.0,0.0,0.0,0.0,0.0,0.0,0.0,0.0,0.0,0.0,0.0,0.0,0.0,0.0,0.0,0.0,0.0,0.0,0.0,0.0,0.0,0.0,0.0,0.0,0.0,0.0,0.0,0.0,0.0,0.0,0.0,0.0,0.0,0.0,0.0,7.2532,7.2532,7.2532,7.2532,7.2532,7.2532,7.2532,7.2532,7.2532,7.2532,0.0,0.0,0.0,0.0,0.0,0.0,0.0,0.0,0.0,0.0,0.0,0.0,0.0,0.0,0.0,0.0,0.0,0.0,0.0,0.0,0.0,0.0,0.0,0.0,0.0,0.0,0.0,0.0,0.0,0.0,0.0,0.0,0.0,0.0,0.0,0.0,0.0,0.0,0.0,0.0,0.0,0.0,7.2532,7.2532,0.0,0.0,0.0,7.2321,7.1794,0.0,0.0,0.0,0.0,0.0,0.0,0.0,0.0,0.0,0.0,0.0,0.0,0.0,0.0,0.0,0.0,0.0,0.0,0.0,0.0,0.0,0.0,0.0,0.0,0.0,0.0,0.0,0.0,0.0,0.0,0.0,0.0,0.0,0.0,0.0,0.0,0.0,0.0,0.0,0.0,0.0,0.0,0.0,0.0,0.0,0.0,0.0,0.0,0.0,0.0,0.0,0.0,0.0,0.0,0.0,0.0,0.0,7.2532,7.2532,7.2532,7.2532,7.2532,7.2532,7.2532,7.2532,0.0,0.0,0.0,0.0,0.0,0.0,0.0,0.0,0.0,0.0,0.0,0.0,0.0,0.0,0.0,0.0,0.0,0.0,0.0,0.0,0.0,0.0,0.0,0.0,0.0,0.0,0.0,7.011,0.0,0.0,0.0,0.0,0.0,0.0,0.0,0.0,0.0,0.0,0.0,0.0,0.0,0.0,7.2532,7.2532,7.2532,7.2226,0.0,0.0,7.2226,7.1573,7.1448,7.1448,0.0,0.0,0.0,0.0,0.0,0.0,0.0,0.0,0.0,0.0,0.0,0.0,0.0,0.0,0.0,0.0,0.0,0.0,0.0,0.0,0.0,0.0,0.0,0.0,0.0,0.0,0.0,0.0,0.0,0.0,0.0,0.0,0.0,0.0,0.0,0.0,0.0,0.0,0.0,0.0,0.0,0.0,0.0,0.0,0.0,0.0,0.0,0.0,0.0,0.0,0.0,0.0,0.0,0.0,0.0,7.2532,7.2532,7.2532,7.2532,7.2532,7.2532,7.2532,7.2532,7.2532,0.0,0.0,0.0,0.0,0.0,0.0,0.0,0.0,0.0,0.0,0.0,0.0,0.0,0.0,0.0,0.0,0.0,0.0,0.0,0.0,0.0,0.0,0.0,0.0,0.0,0.0,0.0,0.0,0.0,0.0,0.0,0.0,0.0,0.0,0.0,0.0,0.0,0.0,0.0,0.0,0.0,7.2532,7.2532,7.2532,7.2496,0.0,0.0,7.2496,7.2438,7.238,7.2438,7.2438,0.0,0.0,0.0,0.0,0.0,0.0,0.0,0.0,0.0,0.0,0.0,0.0,0.0,0.0,0.0,0.0,0.0,0.0,0.0,0.0,0.0,0.0,0.0,0.0,0.0,0.0,0.0,0.0,0.0,0.0,0.0,0.0,0.0,0.0,0.0,0.0,0.0,0.0,0.0,0.0,0.0,0.0,0.0,0.0,0.0,0.0,0.0,0.0,0.0,0.0,0.0,0.0,0.0,7.2532,7.2532,7.2532,7.2532,7.2532,7.2532,7.2532,7.2532,7.2532,7.2532,0.0,0.0,0.0,0.0,0.0,0.0,0.0,0.0,0.0,0.0,0.0,0.0,0.0,0.0,0.0,0.0,0.0,0.0,0.0,0.0,0.0,0.0,0.0,0.0,0.0,0.0,0.0,0.0,7.1872,7.2055,7.2055,0.0,0.0,0.0,0.0,0.0,0.0,0.0,0.0,0.0,0.0,7.2532,7.2532,7.2532,0.0,0.0,7.2532,7.2532,7.2532,7.2532,7.2532,7.2532,7.2532,0.0,0.0,0.0,0.0,0.0,0.0,0.0,0.0,0.0,0.0,0.0,0.0,0.0,0.0,0.0,0.0,0.0,0.0,0.0,0.0,0.0,0.0,0.0,0.0,0.0,0.0,0.0,0.0,0.0,0.0,0.0,0.0,0.0,0.0,0.0,0.0,0.0,0.0,0.0,0.0,0.0,0.0,0.0,0.0,0.0,0.0,0.0,0.0,0.0,0.0,0.0,0.0,7.2532,7.2532,7.2532,7.2532,7.2532,7.2532,7.2532,7.2532,7.2532,7.2532,0.0,0.0,0.0,0.0,0.0,0.0,0.0,0.0,0.0,0.0,0.0,0.0,0.0,0.0,0.0,0.0,0.0,0.0,0.0,0.0,0.0,0.0,0.0,0.0,0.0,0.0,0.0,0.0,7.2532,7.2532,7.2532,0.0,0.0,0.0,0.0,0.0,0.0,0.0,0.0,0.0,0.0,7.2532,7.2532,7.2532,7.2532,7.2532,7.2532,7.2532,7.2532,7.2532,7.2532,7.2532,0.0,0.0,0.0,0.0,0.0,0.0,0.0,0.0,0.0,0.0,0.0,0.0,0.0,0.0,0.0,0.0,0.0,0.0,0.0,0.0,0.0,0.0,0.0,0.0,0.0,0.0,0.0,0.0,0.0,0.0,0.0,0.0,0.0,0.0,0.0,0.0,0.0,0.0,0.0,0.0,0.0,0.0,0.0,0.0,0.0,0.0,0.0,0.0,0.0,0.0,0.0,0.0,0.0,0.0,7.2532,7.2532,7.2532,7.2532,7.2532,7.2532,7.2569,7.2532,7.2532,7.2569,0.0,0.0,0.0,0.0,0.0,0.0,0.0,0.0,0.0,0.0,0.0,0.0,0.0,0.0,0.0,0.0,0.0,0.0,0.0,0.0,0.0,0.0,0.0,0.0,0.0,0.0,7.2532,7.2532,7.2532,0.0,0.0,0.0,0.0,0.0,0.0,0.0,0.0,0.0,0.0,7.2532,7.2532,7.2532,7.2532,7.2532,7.2532,7.2532,7.2532,7.2532,7.2532,7.2532,0.0,0.0,0.0,0.0,0.0,0.0,0.0,0.0,0.0,0.0,0.0,0.0,0.0,0.0,0.0,0.0,0.0,0.0,0.0,0.0,0.0,0.0,0.0,0.0,0.0,0.0,0.0,0.0,0.0,0.0,0.0,0.0,0.0,0.0,0.0,0.0,0.0,0.0,0.0,0.0,7.2532,7.2532,0.0,0.0,0.0,0.0,0.0,0.0,0.0,0.0,0.0,0.0,0.0,0.0,7.2532,7.2532,7.2532,7.2753,7.3266,7.3303,7.356,7.4074,7.4111,7.4111,7.4111,0.0,0.0,0.0,0.0,0.0,0.0,0.0,0.0,0.0,0.0,0.0,0.0,0.0,0.0,0.0,0.0,0.0,0.0,0.0,0.0,0.0,0.0,0.0,0.0,0.0,7.2532,0.0,0.0,0.0,0.0,0.0,0.0,0.0,0.0,0.0,0.0,0.0,7.1794,7.2438,7.2532,7.2532,7.2532,7.2532,7.2532,0.0,0.0,0.0,0.0,0.0,0.0,0.0,0.0,0.0,0.0,0.0,0.0,0.0,0.0,7.2532,7.2532,7.2532,7.2532,7.2532,0.0,0.0,0.0,0.0,0.0,0.0,0.0,0.0,0.0,0.0,0.0,0.0,0.0,0.0,0.0,0.0,7.2532,0.0,0.0,0.0,0.0,0.0,0.0,0.0,0.0,7.2532,7.2532,7.2532,7.2532,7.2642,0.0,7.2936,7.3046,0.0,0.0,0.0,0.0,0.0,0.0,0.0,0.0,7.3046,7.3303,7.334,7.3597,7.4111,7.4111,7.4368,7.4882,7.4918,7.4918,7.4918,7.4404,7.4111,0.0,0.0,0.0,0.0,0.0,0.0,0.0,0.0,0.0,0.0,0.0,0.0,0.0,0.0,0.0,0.0,0.0,0.0,0.0,0.0,0.0,0.0,0.0,7.2532,0.0,0.0,0.0,0.0,0.0,0.0,0.0,0.0,0.0,7.2532,7.1951,7.1794,7.2438,7.2532,7.2532,7.2532,0.0,0.0,0.0,0.0,0.0,0.0,0.0,7.2532,7.2532,7.2532,7.2532,7.2532,7.2532,7.2532,7.2532,0.0,0.0,7.2532,7.2532,7.2532,7.2532,7.2532,7.2532,7.2532,7.2532,7.2532,0.0,0.0,0.0,0.0,0.0,0.0,0.0,0.0,7.2532,7.2532,0.0,7.2532,0.0,0.0,0.0,0.0,0.0,0.0,0.0,0.0,7.2642,7.2569,7.2606,7.2606,7.301,7.3707,7.3744,7.4111,7.4771,7.334,0.0,0.0,0.0,0.0,0.0,0.0,7.4111,7.4845,7.4845,7.4918,7.4955,7.4955,7.4955,7.5028,7.5028,7.5028,7.4992,7.4992,7.4955,7.4955,7.4918,0.0,0.0,0.0,0.0,0.0,0.0,0.0,0.0,0.0,0.0,0.0,0.0,0.0,0.0,0.0,0.0,0.0,0.0,0.0,0.0,7.2532,0.0,0.0,0.0,0.0,0.0,0.0,0.0,0.0,0.0,0.0,7.2532,7.2496,7.2496,7.2496,0.0,0.0,0.0,0.0,7.2532,7.2532,7.2532,7.2532,7.2532,7.2569,7.2569,7.2606,0.0,0.0,7.2606,7.2606,7.2642,7.2606,7.2679,7.2569,7.2642,7.2569,7.2532,7.2532,7.2532,7.2532,7.2569,7.2642,7.2642,7.4413,0.0,0.0,0.0,0.0,7.2686,7.2532,7.2532,7.2532,7.2532,7.2532,7.2532,0.0,0.0,0.0,0.0,0.0,0.0,7.4221,7.4221,7.4221,7.4221,7.4221,7.4221,7.4331,7.4551,7.4588,7.4661,7.4882,7.4441,7.4221,7.4221,0.0,0.0,0.0,0.0,7.4661,7.4882,7.4918,7.5212,7.5726,7.5763,7.6056,7.6644,7.6644,7.6644,7.6607,7.6093,7.5763,7.5763,7.5212,0.0,0.0,0.0,0.0,0.0,0.0,0.0,0.0,0.0,0.0,0.0,0.0,0.0,0.0,0.0,0.0,0.0,0.0,0.0,7.2532,7.2532,7.2532,0.0,0.0,0.0,0.0,0.0,0.0,0.0,0.0,0.0,7.2532,7.2532,7.2532,0.0,0.0,7.2532,7.2532,7.2532,7.2532,7.2532,0.0,0.0,0.0,7.334,7.356,7.4111,7.4221,7.4221,7.4221,7.4221,7.4221,7.4221,7.4221,7.4221,7.4147,7.3266,7.2606,7.2532,7.2532,7.2716,7.323,7.334,7.3523,7.5733,7.5532,7.4462,7.4014,7.3959,7.3587,7.345,7.345,7.345,7.345,7.345,7.345,7.3707,7.4184,7.4184,0.0,0.0,0.0,7.4918,7.4918,7.4918,7.4918,7.4918,7.4918,7.5065,7.5359,7.5395,7.5542,7.5873,7.5873,7.5873,7.5836,0.0,0.0,7.5395,7.5395,7.5542,7.5836,7.5873,7.6276,7.7084,7.7414,7.7818,7.8259,7.8002,7.7818,7.7818,7.7011,7.657,7.657,7.613,7.5873,0.0,0.0,0.0,0.0,0.0,0.0,0.0,0.0,0.0,0.0,0.0,7.2532,7.2532,0.0,0.0,0.0,7.2532,7.2532,7.2532,7.2532,0.0,0.0,0.0,0.0,0.0,0.0,0.0,7.2532,7.2532,7.2532,7.2532,7.2789,7.2863,7.2569,7.2532,7.2606,7.2936,0.0,7.3083,7.3413,7.345,7.3634,7.4111,7.4184,7.4331,7.4808,7.4918,7.4918,7.4918,7.4918,7.4918,7.4918,7.4918,7.4918,7.4918,7.4111,7.345,7.345,7.345,7.3634,7.4111,7.4184,7.4331,7.7568,7.7407,7.577,7.5051,7.4941,7.4918,7.4918,7.4918,7.4882,7.4918,7.4918,7.4918,7.4955,7.4992,7.5102,0.0,0.0,7.5102,7.5139,7.5102,7.5102,7.5102,7.5102,7.5139,7.5506,7.6203,7.6203,7.657,7.7268,7.7378,7.7414,7.7378,7.6019,7.5652,7.6276,7.6313,7.6717,7.7488,7.7524,7.7892,7.8699,7.9396,7.98,7.9764,7.9066,7.8699,7.8662,7.7928,7.7524,7.7524,7.7451,7.7414,7.7414,0.0,0.0,0.0,0.0,0.0,0.0,0.0,0.0,0.0,0.0,0.0,0.0,0.0,0.0,0.0,7.2679,0.0,7.2606,7.2606,0.0,0.0,0.0,7.2606,7.2606,7.2679,7.2716,7.2679,0.0,0.0,0.0,0.0,7.3523,7.2789,7.2679,7.2973,7.3707,7.378,7.4074,7.4698,7.4882,7.4918,7.4992,7.5102,7.5212,7.5249,7.5102,7.5175,7.5212,7.5175,7.5139,7.5212,7.5102,7.5139,7.5139,7.5139,7.5102,7.5102,7.4955,7.4882,7.4992,7.4992,7.5065,7.6829,7.733,7.6861,7.628,7.5568,7.508,7.4918,7.4918,7.4918,7.4918,7.4918,7.4918,7.5249,7.5873,7.646,7.6754,7.6754,7.6754,7.6754,7.6754,7.6754,7.6754,7.6754,7.6754,7.6827,7.7011,7.7047,7.7121,7.7341,7.8002,7.8295,7.8295,7.8516,7.8405,7.8002,7.8002,7.8405,7.9176,7.9176,7.9323,7.947,7.969,7.98,7.98,7.9617,7.9507,7.9507,7.9323,7.9213,7.9176,7.8626,7.8295,7.8295,7.7488,0.0,0.0,0.0,0.0,0.0,0.0,0.0,0.0,0.0,7.4331,7.4331,0.0,7.4331,0.0,7.4368,7.4074,7.3487,7.3413,0.0,0.0,7.3046,7.3413,7.3413,7.3964,7.4331,7.4331,7.4331,7.4331,7.4331,7.4515,7.4551,7.4368,7.4331,7.4404,7.4588,7.4625,7.4698,7.4882,7.4955,7.5139,7.5763,7.635,7.668,7.6754,7.6754,7.6754,7.6754,7.6754,7.6754,7.6754,7.6754,7.6754,7.6717,7.6754,7.6717,7.6644,7.5799,7.5102,7.5689,7.5836,7.6019,7.7571,7.7768,7.7768,7.7213,7.6457,7.6125,7.5983,7.5983,7.5983,7.5983,7.5983,7.5983,7.624,7.668,7.7121,7.7341,7.7341,7.7341,7.7341,7.7341,7.7341,7.7524,7.7892,7.7892,7.8075,7.8405,7.8405,7.8405,7.8442,7.8883,7.9103,7.914,7.958,7.9764,7.9653,7.9286,7.936,7.9764,8.0131,8.0314,8.0351,8.0681,8.1012,8.1342,8.0681,8.0498,8.0828,8.0167,7.98,7.9764,7.936,7.9103,7.914,7.8662,7.8259,0.0,0.0,0.0,0.0,0.0,0.0,0.0,0.0,0.0,0.0,0.0,7.4918,0.0,7.4918,0.0,7.4294,7.4221,7.4074,7.3634,7.3964,7.4221,7.4221,7.4625,7.4918,7.4918,7.4918,7.4918,7.4918,7.5249,7.5432,7.5469,7.5763,7.5836,7.5506,7.5432,7.5542,7.5909,7.5983,7.613,7.6607,7.7011,7.7341,7.7341,7.7341,7.7341,7.7341,7.7341,7.7341,7.7341,7.7341,7.7341,7.7341,7.7341,7.7341,7.7194,7.6607,7.6203,7.657,7.6644,7.6827,7.9091,7.848,7.848,7.8179,7.7635,7.7635,7.7524,7.7341,7.7341,7.7341,7.7341,7.7414,7.7488,7.7488,7.7598,7.7635,7.7635,7.7635,7.7635,7.7635,7.7635,7.8038,7.8736,7.8736,7.9103,7.9764,7.98,7.98,7.98,7.9984,8.0094,8.0094,8.0277,8.0755,8.1415,8.0755,8.0388,8.0424,8.1085,8.1452,8.1452,8.215,8.2847,8.3471,8.2223,8.1782,8.2443,8.1158,8.0388,8.0388,8.0204,8.0094,8.0094,7.991,7.947,0.0,7.8736,0.0,0.0,0.0,0.0,0.0,0.0,0.0,0.0,7.5212,7.5212,7.5212,7.5212,7.5175,7.5065,7.5065,7.5028,7.4918,7.5028,7.5065,7.5065,7.5139,7.5212,7.5249,7.5212,7.5212,7.5322,7.5836,7.624,7.6313,7.679,7.7011,7.657,7.635,7.6497,7.7231,7.7414,7.7414,7.7488,7.7598,7.7745,7.7708,7.7781,7.7635,7.7708,7.7708,7.7671,7.7708,7.7745,7.7671,7.7524,7.7524,7.7451,7.7378,7.7231,7.7194,7.7268,7.7231,7.7341,8.0097,7.9535,7.9535,7.9412,7.9323,7.9323,7.8552,7.7341,7.7341,7.7341,7.7378,7.8038,7.8369,7.8405,7.9029,7.9323,7.9323,7.9323,7.9323,7.9323,7.9323,7.9396,7.9543,7.958,7.9653,7.9764,7.98,7.98,7.98,8.1085,8.1746,8.1782,8.3067,8.3765,0.0,0.0,0.0,0.0,8.3838,8.3911,8.3911,8.4058,8.4205,8.4352,8.4095,0.0,8.4132,8.3875,8.3691,8.3654,8.2443,0.0,0.0,0.0,0.0,0.0,0.0,0.0,0.0,0.0,0.0,0.0,7.8369,7.7598,7.6937,7.6864,7.6864,7.6864,7.6864,7.6607,7.5946,7.5873,7.5616,7.5028,7.5506,7.5873,7.5909,7.646,7.6864,7.6864,7.6864,7.6864,7.6827,7.7011,7.7084,7.7084,7.7231,7.7561,7.8075,7.7524,7.7157,7.7341,7.7965,7.8332,7.8369,7.8846,7.9176,7.9323,7.9323,7.9286,7.9213,7.925,7.9286,7.925,7.9323,7.9066,7.8479,7.8332,7.8148,7.7451,7.7341,7.7341,7.7341,7.7341,7.7341,8.01,0.0,7.98,7.98,0.0,7.98,7.9323,7.8552,7.8552,7.8552,7.8552,7.8993,7.9176,7.9213,7.9617,7.98,7.98,7.98,7.98,7.98,7.98,8.0204,8.0975,8.0975,8.1379,8.215,8.215,8.215,8.2223,8.2994,8.3361,8.3398,8.4205,8.4609,8.4609,8.4976,8.4976,8.4609,8.4609,8.4609,8.4609,8.4609,8.4792,8.5159,0.0,0.0,0.0,0.0,0.0,0.0,0.0,0.0,0.0,0.0,0.0,8.1048,8.0975,8.0608,7.9874,7.98,7.98,7.98,7.9396,7.8662,7.7414,7.7341,7.7341,7.7341,7.7341,7.7157,7.6754,7.6717,7.6533,7.6166,7.646,7.6717,7.6754,7.7047,7.7304,7.7341,7.7341,7.7341,7.7341,7.7708,7.7928,7.8002,7.8332,7.8662,7.9029,7.8479,7.8075,7.8479,7.8846,7.9176,7.9213,7.947,7.98,7.98,7.98,7.98,7.98,7.98,7.98,7.98,7.98,7.9617,7.9323,7.9176,7.9066,7.8662,7.8516,7.8552,7.8516,7.8222,7.7965,8.0886,8.0708,8.0798,8.0735,8.0645,8.0645,8.0645,8.0608,0.0,0.0,0.0,8.0094,8.0204,8.0241,8.0498,8.0645,8.0645,8.0645,8.0645,8.0645,8.0645,8.1342,8.259,8.259,8.3324,8.4572,8.4609,8.4609,8.4609,8.4756,8.4829,8.4829,8.4939,8.5013,8.5086,8.5673,8.5673,8.5086,8.5013,8.5013,8.5049,8.5049,8.5343,8.5967,8.538,8.5343,8.5967,8.538,8.5049,8.5049,8.4903,8.4829,8.4792,8.4682,8.4022,8.2737,8.2627,8.2039,8.0755,8.0645,8.0498,8.0241,8.0204,7.9507,7.7892,7.7745,7.7745,7.7745,7.7745,7.7745,7.7745,7.7745,7.7745,7.7781,7.7745,7.7781,7.7781,7.7745,7.7855,7.7745,7.7818,7.7781,7.7855,7.8405,7.8809,7.8883,7.9286,7.9874,7.9874,7.9323,7.8993,7.9507,7.98,8.0021,8.0021,8.0204,8.0204,8.0351,8.0314,8.0204,8.0204,8.0204,8.0204,8.0351,8.0204,8.0167,8.0057,8.0021,7.9947,7.98,7.98,7.98,7.9727,7.9396,7.9029,8.4924,8.3978,8.4558,8.4472,8.3911,8.3911,8.3911,8.3691,8.0975,7.98,7.9874,8.1232,8.1856,8.1929,8.3287,8.3948,8.3911,8.3911,8.3911,0.0,8.3948,8.4022,8.4242,8.4278,8.4389,8.4572,8.4609,8.4609,8.4682,8.5306,8.5637,8.571,8.6334,8.6664,8.6701,8.6775,8.6775,8.6664,8.6664,8.6664,8.6664,8.6701,8.6738,8.6811,8.6738,8.6701,8.6848,8.6701,8.6664,8.6664,8.6004,8.5637,8.56,8.4976,8.4499,8.4278,8.4278,8.4168,8.3948,8.3948,8.3324,8.2003,8.1856,8.1158,7.9617,7.9433,7.9433,7.9433,7.936,7.9433,7.9433,7.9396,7.9323,7.9396,7.9396,7.9433,7.936,7.936,7.9323,7.9323,7.9433,7.936,7.9323,7.9507,7.9617,7.9653,7.9874,8.0094,8.0571,8.0131,7.969,7.9837,8.0388,8.0755,8.0865,8.1415,8.1636,8.1856,8.1746,8.1672,8.1636,8.1636,8.1636,8.1782,8.1672,8.1489,8.0975,8.0828,8.0608,8.0131,7.9984,7.9947,7.9984,8.0277,8.0388,8.6049,8.5226,8.5492,8.5226,8.4609,8.4609,8.4609,8.4462,8.303,8.2406,8.248,8.3177,8.3508,8.3544,8.4278,8.4609,8.4609,8.4609,8.4609,8.4609,8.4609,8.4829,8.5233,8.5233,8.549,8.5894,8.5894,8.593,8.5967,8.6297,8.6444,8.6481,8.6848,8.7031,8.7031,8.7031,8.7031,8.7031,8.7031,8.7031,8.7031,8.7031,8.7031,8.7031,8.7031,8.7031,8.7031,8.7031,8.7031,8.7031,8.6664,8.6444,8.6444,8.6114,8.571,8.527,8.5233,8.5049,8.4609,8.4609,8.4278,8.3581,8.3508,8.3214,8.248,8.0791,7.98,7.98,7.98,7.98,7.98,7.98,7.98,7.98,7.98,7.98,7.98,7.98,7.98,7.98,7.98,7.98,7.98,8.0167,8.0461,8.0461,8.0755,8.1232,8.1636,8.1746,8.1562,8.1232,8.1415,8.1599,8.1672,8.1893,8.215,8.2186,8.2186,8.2186,8.2186,8.2186,8.2223,8.2186,8.2186,8.2039,8.1672,8.1636,8.1452,8.1269,8.1085,8.1085,8.1158,8.1415,8.1489,8.6556,8.5929,8.611,8.5756,8.5123,8.5159,8.5123,8.5159,8.5159,8.5159,8.5123,8.4976,8.4866,8.4903,8.5049,8.5159,8.5123,8.5159,8.5159,8.5159,8.5159,8.5453,8.6004,8.6077,8.6407,8.6958,8.7031,8.7031,8.7031,8.7031,8.7031,8.7031,8.7031,8.7031,8.7031,8.7031,8.7105,8.7252,8.7288,8.7178,8.7031,8.7031,8.7031,8.7031,8.7031,8.7031,8.7031,8.7031,8.7031,8.7031,8.7031,8.7031,8.7031,8.7031,8.6738,8.6151,8.6077,8.582,8.5233,8.5159,8.5086,8.4903,8.4866,8.4792,8.4425,8.2333,8.0865,8.0865,8.1012,8.0975,8.1012,8.0755,8.0608,8.0608,8.0424,8.0424,8.0351,8.0351,8.0314,8.0314,8.0351,8.0388,8.0461,8.1048,8.1636,8.1966,8.237,8.27,8.281,8.3324,8.3361,8.2994,8.2737,8.2774,8.2737,8.2774,8.281,8.2737,8.281,8.2884,8.2847,8.281,8.2774,8.2847,8.281,8.2847,8.2774,8.2774,8.2774,8.2737,8.2737,8.2737,8.2737,8.2774,8.2553,8.7513,8.7077,8.7539,8.7423,8.6738,8.6738,8.6738,8.6738,8.6775,8.6775,8.6628,8.6004,8.5673,8.5783,8.6407,8.6701,8.6738,8.6775,8.6738,8.6738,8.6811,8.6811,8.6848,8.6885,8.6958,8.7031,8.7031,8.7031,8.7031,8.7031,8.7031,8.7031,8.7031,8.7068,8.7068,8.7068,8.7399,8.8059,8.8096,8.7729,8.7068,8.7031,8.7031,8.7031,8.7031,8.7031,8.7105,8.7031,8.7031,8.7031,8.7031,8.7031,8.7031,8.7031,8.6958,8.6885,8.6885,8.6848,8.6775,8.6775,8.6407,8.5783,8.5673,8.5416,8.4756,8.4352,8.4132,8.4058,8.4095,8.3875,8.4095,8.3398,8.292,8.281,8.2333,8.1966,8.1966,8.1966,8.1966,8.1966,8.1966,8.2003,8.2076,8.2627,8.3361,8.3801,8.3948,8.4095,8.4132,8.4315,8.4499,8.4352,8.4352,8.4315,8.4242,8.4352,8.4168,8.4242,8.4315,8.4205,8.4095,8.4168,8.4352,8.3911,8.4168,8.4132,8.4205,8.4352,8.4242,8.4022,8.4095,8.4278,8.4352,8.4242,8.3765,8.8309,8.7646,8.8022,8.7646,8.7064,8.7031,8.7031,8.7031,8.7031,8.7031,8.6995,8.6664,8.6518,8.6554,8.6848,8.7031,8.7031,8.7031,8.7031,8.7031,8.7031,8.7031,8.7031,8.7031,8.7031,8.7031,8.7031,8.7031,8.7105,8.7472,8.7729,8.7766,8.8206,8.8426,8.8426,8.8426,8.861,8.8904,8.8904,8.8757,8.8463,8.8426,8.8426,8.8426,8.8426,8.8426,8.8426,8.8426,8.8206,8.7766,8.7692,8.7509,8.7031,8.7031,8.7031,8.7031,8.7031,8.7031,8.7031,8.7031,8.6885,8.6554,8.6518,8.6371,8.6077,8.604,8.6004,8.593,8.5159,8.4609,8.4609,8.4315,8.4132,8.4095,8.3801,8.3581,8.3618,8.3581,8.3618,8.3618,8.3618,8.3581,8.3654,8.3911,8.4242,8.4535,8.4609,8.4682,8.4646,8.5013,8.5306,8.538,8.5673,8.5527,8.4903,8.4609,8.4609,8.4609,8.4609,8.4609,8.4682,8.4609,8.4572,8.4646,8.4719,8.4719,8.4499,8.4609,8.4609,8.4682,8.4609,8.4609,8.4609,8.4609,8.4205,8.856,8.8167,8.8107,8.7773,8.7261,8.7064,8.7031,8.7031,8.7031,8.7031,8.7031,8.7031,8.7031,8.7031,8.7031,8.7031,8.7031,8.7031,8.7031,8.7031,8.7031,8.7031,8.7031,8.7031,8.7142,8.7325,8.7362,8.7472,8.7692,8.8206,8.8536,8.861,8.9124,8.9417,8.9417,8.9417,8.9528,8.9711,8.9748,8.9858,9.0041,9.0078,8.9858,8.9491,8.9417,8.9417,8.9417,8.9417,8.916,8.8573,8.8536,8.828,8.7729,8.7655,8.7582,8.7362,8.7325,8.7252,8.7031,8.7031,8.7031,8.7031,8.7031,8.7031,8.7031,8.7031,8.7031,8.6921,8.593,8.5306,8.527,8.5049,8.4939,8.4939,8.4756,8.4609,8.4572,8.4609,8.4535,8.4609,8.4462,8.4719,8.4866,8.4939,8.5013,8.5306,8.5343,8.527,8.5306,8.5783,8.6114,8.6151,8.6628,8.6481,8.549,8.538,8.527,8.527,8.538,8.5416,8.527,8.527,8.527,8.571,8.538,8.5306,8.5563,8.5416,8.5233,8.5233,8.5233,8.527,8.549,8.5306,8.5306,8.8107,8.8144,8.8107,8.8181,8.8022,8.7402,8.7068,8.7178,8.7105,8.7068,8.7142,8.7105,8.7068,8.7105,8.7178,8.7031,8.7031,8.7068,8.7105,8.7105,8.7105,8.7068,8.7031,8.7031,8.7435,8.8096,8.8133,8.85,8.916,8.9307,8.9381,8.9381,8.9528,8.9491,8.9528,8.9564,8.9821,9.0482,9.0555,9.0886,9.151,9.162,9.0886,8.9711,8.9454,8.9528,8.9491,8.9454,8.9417,8.9381,8.9381,8.9307,8.9271,8.9234,8.8867,8.8243,8.8169,8.7839,8.7215,8.7105,8.7068,8.7031,8.7031,8.7031,8.7031,8.7031,8.7031,8.7031,8.6848,8.6738,8.6664,8.6077,8.5747,8.571,8.5086,8.4792,8.4682,8.4866,8.4646,8.4719,8.4829,8.5123,8.5673,8.5747,8.604,8.6518,8.6811,8.6775,8.6664,8.6811,8.6848,8.6848,8.6958,8.6958,8.6885,8.6518,8.6628,8.6591,8.6371,8.6701,8.6848,8.6921,8.6811,8.6775,8.6591,8.6554,8.6811,8.6811,8.6664,8.6591,8.6518,8.6554,8.6297,8.6738,8.6664,8.9085,8.9536,8.9573,8.959,8.9597,8.9321,8.8975,8.8536,8.8573,8.8536,8.8536,8.8573,8.8536,8.8573,8.8536,8.7986,8.7142,8.7545,8.7766,8.7839,8.8316,8.8536,8.8573,8.8573,8.8683,8.894,8.8977,8.9124,8.9454,8.9931,9.0188,9.0298,9.0702,9.0959,9.0959,9.0959,9.1106,9.1326,9.1363,9.151,9.1767,9.1803,9.1473,9.0996,9.0922,9.0922,9.0922,9.0959,9.0702,9.0225,9.0188,8.9968,8.9491,8.9417,8.9307,8.905,8.8977,8.8867,8.8536,8.8059,8.7766,8.7729,8.7288,8.7068,8.7031,8.7031,8.7031,8.7031,8.7031,8.7031,8.6995,8.6738,8.6591,8.6518,8.6334,8.6077,8.6151,8.6151,8.6151,8.6151,8.6151,8.6297,8.6407,8.6554,8.6664,8.6958,8.7031,8.7031,8.7031,8.7031,8.7031,8.7031,8.7031,8.7031,8.7031,8.6995,8.6995,8.6995,8.6958,8.6921,8.6995,8.6995,8.6885,8.6885,8.6995,8.7031,8.6958,8.6958,8.7031,8.7031,8.7031,8.7031,8.6995,8.7031,8.7031,9.0512,9.1301,9.0728,9.0587,9.0782,9.0302,8.9891,8.9417,8.9417,8.9417,8.9417,8.9417,8.9417,8.9417,8.9417,8.8867,8.7912,8.8353,8.8573,8.8647,8.916,8.9417,8.9417,8.9417,8.9564,8.9821,9.0078,9.0188,9.0225,9.0739,9.0996,9.1033,9.1546,9.1803,9.1803,9.1803,9.1803,9.1803,9.1803,9.1803,9.1803,9.1803,9.1803,9.1803,9.1803,9.1803,9.1803,9.1803,9.1583,9.1069,9.0996,9.0739,9.0262,9.0188,9.0078,8.9858,8.9821,8.9674,8.9417,8.8904,8.861,8.8573,8.8133,8.7729,8.7435,8.7399,8.7288,8.7105,8.7031,8.7031,8.7031,8.6995,8.7031,8.7031,8.7031,8.7031,8.7031,8.6995,8.6958,8.6921,8.6921,8.6958,8.7031,8.6995,8.6995,8.7031,8.7031,8.7031,8.7031,8.7031,8.7031,8.7031,8.7031,8.7031,8.7031,8.7031,8.7031,8.7031,8.7031,8.7031,8.7031,8.7031,8.7031,8.7031,8.7031,8.7031,8.7031,8.7031,8.7031,8.7031,8.7031,8.7031,8.7031,8.7031,8.7031,9.2375,9.3174,9.1449,9.1013,9.1452,9.0379,8.9562,8.9601,8.9564,8.9674,8.9748,8.9564,8.9711,8.9564,8.9711,8.9491,8.9454,8.9528,8.9491,8.9454,8.9564,8.9601,8.9638,8.9674,9.0005,9.0629,9.1363,9.1693,9.1583,9.162,9.1657,9.173,9.173,9.1803,9.1803,9.1877,9.1877,9.195,9.1987,9.1987,9.184,9.1987,9.206,9.1987,9.1987,9.2024,9.195,9.184,9.1767,9.173,9.173,9.1767,9.162,9.1583,9.14,9.0739,9.0592,9.0262,8.9674,8.9491,8.9417,8.9381,8.9344,8.8867,8.8316,8.8206,8.7949,8.7435,8.7178,8.7105,8.7105,8.7031,8.7031,8.7031,8.7031,8.7031,8.7031,8.7031,8.7031,8.7031,8.7031,8.7031,8.7031,8.7031,8.7031,8.7031,8.7031,8.7031,8.7031,8.7031,8.7031,8.7031,8.7031,8.7031,8.7031,8.7031,8.7031,8.7031,8.7031,8.7031,8.7031,8.7031,8.7031,8.7031,8.7031,8.7031,8.7031,8.7031,8.7031,8.7031,8.7031,8.7031,8.7031,8.7031,8.7031,9.2893,9.3644,9.2602,9.2255,9.2503,9.205,9.1592,9.1069,9.1069,9.1033,9.1069,9.1069,9.1033,9.1033,9.1069,9.1033,9.1069,9.1033,9.0776,9.0408,9.0776,9.0996,9.0996,9.1033,9.1179,9.1436,9.1657,9.1803,9.1803,9.1803,9.1803,9.1803,9.1803,9.1803,9.1913,9.2354,9.2684,9.2758,9.3235,9.3529,9.3529,9.3492,9.3492,9.3492,9.3529,9.3529,9.3455,9.2427,9.184,9.184,9.1803,9.1803,9.1803,9.1803,9.1693,9.1473,9.1436,9.1363,9.1033,9.0519,9.0225,9.0152,8.9784,8.9344,8.9087,8.905,8.8904,8.8573,8.8206,8.7839,8.7766,8.7325,8.7105,8.7031,8.7031,8.7031,8.7031,8.7031,8.7031,8.7031,8.7031,8.7031,8.7031,8.7031,8.7031,8.7031,8.7031,8.7031,8.7031,8.7031,8.7031,8.7031,8.7031,8.7031,8.7031,8.7031,8.7031,8.7031,8.7031,8.7031,8.7031,8.7031,8.7031,8.7031,8.7031,8.7031,8.7031,8.7031,8.7031,8.7031,8.7031,8.7031,8.7031,8.7031,8.7031,9.3476,9.3833,9.2859,9.2802,9.3288,9.314,9.2858,9.2662,9.2662,9.2662,9.2595,9.2399,9.2192,9.2159,9.1983,9.1803,9.1803,9.1803,9.1546,9.1143,9.151,9.1767,9.1803,9.1803,9.1803,9.1803,9.1803,9.1803,9.1803,9.2097,9.2281,9.2317,9.2574,9.2758,9.2758,9.3235,9.3565,9.3639,9.4042,9.4299,9.4299,9.4299,9.4299,9.4299,9.4299,9.4299,9.4189,9.3235,9.2721,9.2648,9.2464,9.2281,9.2281,9.1987,9.1803,9.1803,9.1803,9.1767,9.173,9.1289,9.1033,9.0959,9.0592,9.0152,8.9968,8.9858,8.9784,8.9381,8.894,8.8647,8.8573,8.8243,8.7802,8.7472,8.7178,8.7031,8.7031,8.7031,8.7031,8.7031,8.7031,8.7031,8.7031,8.7031,8.7031,8.7031,8.7031,8.7031,8.7031,8.7031,8.7031,8.7031,8.7031,8.7031,8.7031,8.7031,8.7031,8.7031,8.7031,8.7031,8.7031,8.7031,8.7031,8.7031,8.7031,8.7031,8.7031,8.7031,8.7031,8.7031,8.7031,8.7031,8.7031,8.7031,8.7031,9.4173,9.3991,9.2595,9.2849,9.3878,9.3387,9.3447,9.3935,9.3878,9.3821,9.3706,9.2987,9.2765,9.2699,9.2018,9.1803,9.1803,9.1987,9.1987,9.195,9.206,9.2097,9.184,9.195,9.2024,9.1987,9.206,9.2097,9.2244,9.2831,9.3161,9.3235,9.3749,9.4226,9.4079,9.4263,9.4336,9.4373,9.4483,9.4593,9.4593,9.4556,9.4556,9.4593,9.4593,9.463,9.463,9.4483,9.4336,9.4189,9.3455,9.3161,9.3015,9.2391,9.2097,9.2024,9.1877,9.1877,9.184,9.1693,9.1693,9.1657,9.1583,9.151,9.0812,9.0665,9.0445,8.9895,8.9601,8.9491,8.9454,8.9271,8.894,8.8316,8.7509,8.7068,8.7031,8.7031,8.7031,8.7031,8.7031,8.7031,8.7031,8.7031,8.7031,8.7031,8.7031,8.7031,8.7031,8.7031,8.7031,8.7031,8.7031,8.7031,8.7031,8.7031,8.7031,8.7031,8.7031,8.7031,8.7031,8.7031,8.7031,8.7031,8.7031,8.7031,8.7031,8.7031,8.7031,8.7031,8.7031,8.7031,8.7031,8.7031,8.7031,9.4915,9.4817,9.3897,9.3764,9.4047,9.3878,9.3935,9.4047,9.3567,9.3522,9.3177,9.2431,9.2303,9.2089,9.1948,9.1803,9.2024,9.2501,9.2758,9.2868,9.3382,9.2831,9.217,9.2464,9.2758,9.2831,9.3235,9.3639,9.3675,9.3822,9.3969,9.3969,9.4263,9.4373,9.4336,9.4923,9.518,9.529,9.5804,9.6025,9.5988,9.5988,9.6061,9.6061,9.6025,9.6025,9.6061,9.6061,9.5437,9.4373,9.4116,9.3969,9.3969,9.3675,9.3272,9.2831,9.2721,9.2427,9.195,9.184,9.1803,9.1803,9.1803,9.1693,9.1546,9.1473,9.1363,9.1069,9.0702,9.0298,9.0188,8.9784,8.9344,8.9014,8.7986,8.7142,8.7068,8.7031,8.7031,8.7031,8.7031,8.7031,8.7031,8.7031,8.7031,8.7031,8.7031,8.7031,8.7031,8.7031,8.7031,8.7031,8.7031,8.7031,8.7031,8.7031,8.7031,8.7031,8.7031,8.7031,8.7031,8.7031,8.7031,8.7031,8.7031,8.7031,8.7031,8.7031,8.7031,8.7031,8.7031,8.7031,8.7031,8.7031,8.7031,9.5048,9.468,9.4265,9.4265,9.4528,9.4528,9.4768,9.4942,9.4643,9.4462,9.4307,9.3619,9.3296,9.3296,9.3013,9.2831,9.2941,9.3382,9.3602,9.3675,9.4042,9.3712,9.3161,9.3418,9.3602,9.3639,9.4079,9.4226,9.4336,9.4593,9.4777,9.4887,9.5144,9.529,9.5401,9.5731,9.6025,9.6098,9.6502,9.6722,9.6722,9.6722,9.6685,9.6685,9.6722,9.6722,9.6685,9.6685,9.6208,9.5437,9.5034,9.4813,9.4777,9.4446,9.4079,9.3639,9.3602,9.3235,9.2537,9.2354,9.217,9.1877,9.1803,9.1803,9.1767,9.1803,9.1803,9.1657,9.1326,9.1143,9.0996,9.0408,9.0005,8.9784,8.8793,8.7912,8.7582,8.7545,8.7362,8.7142,8.7031,8.7031,8.7031,8.7031,8.7031,8.7031,8.7031,8.7031,8.7031,8.7031,8.7031,8.7031,8.7031,8.7031,8.7031,8.7031,8.7031,8.7031,8.7031,8.7031,8.7031,8.7031,8.7031,8.7031,8.7031,8.7031,8.7031,8.7031,8.7031,8.7031,8.7031,8.7031,8.7031,8.7031,8.7031,9.4953,9.4432,9.4432,9.487,9.5578,9.5502,9.5828,9.6322,9.6115,9.6047,9.5847,9.5483,9.4821,9.5284,9.419,9.4189,9.4226,9.4299,9.452,9.4593,9.474,9.4593,9.4593,9.441,9.4446,9.4483,9.4483,9.4666,9.4923,9.5401,9.5621,9.5731,9.6282,9.6575,9.6428,9.6575,9.6685,9.6612,9.6649,9.6722,9.6722,9.6722,9.6722,9.6722,9.6722,9.6722,9.6722,9.6722,9.6612,9.6685,9.6025,9.5694,9.5547,9.4923,9.4556,9.4446,9.4373,9.4079,9.3382,9.3198,9.2868,9.2244,9.2024,9.184,9.184,9.1803,9.1803,9.1803,9.1803,9.1693,9.162,9.1069,9.0776,9.0629,9.0041,8.9344,8.8647,8.839,8.8059,8.7399,8.7325,8.7252,8.7142,8.7142,8.7142,8.7031,8.7031,8.7031,8.7031,8.7031,8.7031,8.7031,8.7031,8.7031,8.7031,8.7031,8.7031,8.7031,8.7031,8.7031,8.7031,8.7031,8.7031,8.7031,8.7031,8.7031,8.7031,8.7031,8.7031,8.7031,8.7031,8.7031,8.7031,8.7031,8.7031,9.6326,9.6782,9.6782,9.7245,9.7861,9.7356,9.7142,9.7188,9.6121,9.5826,9.5507,9.4943,9.4704,9.4704,9.4669,9.4299,9.4594,9.5072,9.5547,9.6171,9.6208,9.6171,9.5988,9.5547,9.5254,9.5364,9.5914,9.6135,9.6208,9.6171,9.6428,9.6465,9.6539,9.6722,9.6722,9.6759,9.6722,9.6722,9.6759,9.6832,9.6869,9.6869,9.6869,9.6832,9.6832,9.6759,9.6722,9.6722,9.6722,9.6649,9.6539,9.6428,9.6318,9.6171,9.5804,9.5364,9.5217,9.4887,9.4226,9.4006,9.3675,9.2941,9.2721,9.2537,9.184,9.1803,9.1803,9.1803,9.1803,9.1803,9.1767,9.1657,9.1473,9.1363,9.1253,9.0849,9.0188,8.9528,8.905,8.8867,8.8757,8.8647,8.8059,8.7949,8.7729,8.7215,8.7105,8.7068,8.7142,8.7252,8.7362,8.7545,8.7288,8.7325,8.7252,8.7178,8.7031,8.7031,8.7031,8.7031,8.7031,8.7031,8.7031,8.7031,8.7031,8.7031,8.7031,8.7031,8.7031,8.7031,8.7031,8.7031,8.7031,8.7031,8.7031,9.7711,9.8096,9.8096,9.8365,9.8673,9.8354,9.7936,9.761,9.7247,9.6831,9.6581,9.6406,9.6497,9.6467,9.6162,9.5987,9.5955,9.5956,9.6282,9.6612,9.6685,9.6685,9.6649,9.6318,9.6061,9.6171,9.6465,9.6685,9.6722,9.6722,9.6649,9.6722,9.6759,9.6722,9.6832,9.7052,9.7273,9.7419,9.7676,9.7823,9.7823,9.7823,9.7823,9.7823,9.7823,9.7823,9.786,9.786,9.764,9.7383,9.7236,9.7052,9.6759,9.6722,9.6465,9.6171,9.6061,9.5658,9.507,9.4813,9.452,9.3712,9.3345,9.2905,9.2391,9.2097,9.1803,9.1803,9.1803,9.1803,9.1803,9.1767,9.1803,9.1803,9.1803,9.1583,9.1143,9.0482,8.9784,8.9564,8.9307,8.916,8.8904,8.8793,8.8683,8.8316,8.8316,8.828,8.839,8.8463,8.839,8.8316,8.7876,8.7655,8.7545,8.7362,8.7031,8.7031,8.7031,8.7031,8.7031,8.7031,8.7031,8.7031,8.7031,8.7031,8.7031,8.7031,8.7031,8.7031,8.7031,8.7031,8.7031,8.7031,8.7031,9.8865,9.8981,9.8981,9.9058,9.9173,9.9056,9.8648,9.8249,9.8628,9.8286,9.8083,9.8705,9.8508,9.8697,9.7946,9.7726,9.7385,9.6953,9.6685,9.6979,9.7016,9.7163,9.7199,9.7236,9.7163,9.7052,9.7016,9.6979,9.6979,9.7016,9.7383,9.7163,9.7126,9.7346,9.7346,9.7676,9.808,9.8154,9.8557,9.8851,9.8888,9.8924,9.8888,9.8888,9.8888,9.8851,9.8851,9.8851,9.8704,9.8154,9.808,9.764,9.7089,9.6722,9.6722,9.6685,9.6612,9.6282,9.5841,9.5658,9.5327,9.452,9.3932,9.3455,9.3198,9.2611,9.2207,9.2024,9.1987,9.1803,9.1803,9.1803,9.1803,9.1803,9.1803,9.1803,9.1693,9.1179,9.0555,9.0115,9.0152,9.0078,8.9821,8.9601,8.9528,8.9454,8.9454,8.9454,8.9491,8.9417,8.9197,8.905,8.861,8.8426,8.8316,8.8206,8.7839,8.7655,8.7509,8.7509,8.7545,8.7766,8.7839,8.7142,8.7031,8.7068,8.7068,8.7031,8.7031,8.7031,8.7031,8.7031,8.7031,8.7031,8.7068,9.9211,9.9865,9.9865,10.025,10.071,10.0212,9.9831,9.9668,9.9221,9.8952,9.8838,9.8989,9.9122,9.8869,9.8188,9.7562,9.7285,9.7056,9.7199,9.7603,9.7713,9.7933,9.8374,9.8374,9.8521,9.8521,9.8154,9.7823,9.7897,9.83,9.8411,9.8594,9.8557,9.8557,9.8557,9.8851,9.8888,9.8961,9.9218,9.9365,9.9365,9.9365,9.9365,9.9365,9.9402,9.9328,9.9255,9.9181,9.9035,9.8924,9.8888,9.8447,9.7787,9.7163,9.6869,9.6722,9.6722,9.6575,9.6392,9.6428,9.6061,9.5511,9.5034,9.4666,9.4116,9.3382,9.2905,9.2611,9.217,9.1803,9.1803,9.1803,9.1803,9.1803,9.1803,9.1803,9.1767,9.162,9.1436,9.1106,9.1106,9.1069,9.0702,9.0372,9.0262,9.0152,9.0041,8.9968,8.9931,8.9821,8.9638,8.9454,8.9307,8.9234,8.9197,8.9124,8.8904,8.8793,8.8683,8.8683,8.8757,8.8977,8.8793,8.7986,8.7472,8.7399,8.7325,8.7288,8.7325,8.7582,8.7362,8.7105,8.7399,8.7655,8.7435,10.0327,10.0712,10.0712,10.0943,10.1211,10.0928,10.0505,10.0271,10.0185,9.9961,9.9809,9.9999,10.0215,10.0024,9.9412,9.8619,9.8057,9.7933,9.819,9.8484,9.8557,9.8668,9.9145,9.9145,9.9108,9.9108,9.9071,9.8851,9.8594,9.8851,9.9181,9.9071,9.9108,9.9108,9.9218,9.9512,9.9659,9.9769,10.0062,10.0283,10.0283,10.0319,10.0319,10.0319,10.0283,10.0356,10.0356,10.0356,10.0136,9.9842,9.9732,9.9255,9.8668,9.8154,9.7566,9.6942,9.6759,9.6722,9.6722,9.6685,9.6465,9.6171,9.5804,9.5401,9.485,9.4226,9.3565,9.3015,9.2354,9.1803,9.1803,9.1803,9.1803,9.1803,9.1803,9.1803,9.1803,9.1803,9.1803,9.1803,9.162,9.1436,9.14,9.1143,9.0996,9.0849,9.0629,9.0555,9.0482,9.0408,9.0298,9.0298,9.0188,8.9895,8.9858,8.9784,8.9821,8.9748,8.9711,8.9711,8.9638,8.9674,8.9344,8.872,8.8316,8.828,8.828,8.85,8.8316,8.8169,8.8243,8.828,8.828,8.828,8.8059,10.1289,10.1289,10.1289,10.1289,10.1289,10.1289,10.1085,10.0863,10.1318,10.1349,10.1086,10.1503,10.1762,10.142,10.0613,9.9792,9.915,9.9035,9.9108,9.9328,9.9365,9.9402,9.9585,9.9585,9.9732,9.9952,10.0172,10.0099,9.9548,9.9659,9.9659,9.9769,9.9659,9.9585,9.9842,10.0319,10.0503,10.076,10.109,10.1457,10.1494,10.1494,10.1494,10.1494,10.1494,10.142,10.131,10.1274,10.1017,10.0686,10.0466,10.0172,9.9512,9.9328,9.8668,9.7456,9.7052,9.6869,9.6722,9.6722,9.6685,9.6539,9.6098,9.5841,9.5547,9.4997,9.4153,9.3235,9.2574,9.1987,9.1877,9.1803,9.1803,9.1803,9.1803,9.1803,9.1803,9.1803,9.1803,9.1803,9.1803,9.173,9.162,9.1583,9.14,9.14,9.1179,9.1253,9.1216,9.1326,9.1289,9.1326,9.1143,9.0665,9.0482,9.0372,9.0445,9.0519,9.0482,9.0482,9.0298,9.0188,8.9858,8.9784,8.9895,8.9895,8.9821,8.9417,8.905,8.894,8.9271,8.9271,8.8977,8.894,8.8867,10.1289,10.1289,10.1327,10.1289,10.1327,10.1404,10.1749,10.2286,10.2403,10.2865,10.3126,10.3401,10.3032,10.2219,10.0995,9.9975,9.9419,9.9365,9.9659,10.0099,10.0172,10.0466,10.1017,10.12,10.0943,10.087,10.1127,10.087,10.0429,10.076,10.1053,10.1017,10.0943,10.1127,10.0907,10.1053,10.1347,10.1347,10.142,10.1494,10.1494,10.1494,10.1494,10.1494,10.1494,10.1494,10.1494,10.1494,10.1347,10.131,10.131,10.0943,10.0319,10.0172,9.9695,9.8888,9.8154,9.7456,9.6942,9.6722,9.6722,9.6722,9.6539,9.6539,9.6245,9.5658,9.4666,9.3235,9.2941,9.2574,9.206,9.184,9.1803,9.1803,9.1803,9.1803,9.1803,9.1803,9.1803,9.1803,9.1803,9.1803,9.173,9.1767,9.1767,9.1767,9.1803,9.1803,9.1803,9.1803,9.1803,9.1693,9.1657,9.1216,9.1033,9.0959,9.0959,9.1106,9.1143,9.1143,9.0996,9.0922,9.1216,9.1179,9.1253,9.0886,9.0335,8.9895,8.9564,8.9674,9.0005,8.9784,8.9381,8.9454,8.9748,10.175,10.1366,10.1827,10.202,10.2097,10.2558,10.2981,10.3251,10.3328,10.352,10.3828,10.3905,10.3435,10.2639,10.1846,10.1277,10.0551,10.0393,10.0613,10.087,10.0943,10.1164,10.1384,10.1494,10.1494,10.1494,10.1457,10.1347,10.1164,10.1237,10.1494,10.1494,10.1494,10.142,10.1494,10.1494,10.1457,10.1457,10.1494,10.1494,10.1494,10.1494,10.1494,10.1494,10.1494,10.1494,10.1494,10.1494,10.1494,10.1494,10.1494,10.1347,10.1053,10.0907,10.0613,9.9842,9.9475,9.8704,9.7566,9.7016,9.6795,9.6722,9.6722,9.6685,9.6539,9.5988,9.5364,9.4593,9.3602,9.2941,9.2501,9.206,9.1877,9.1803,9.1803,9.1803,9.1803,9.1803,9.1803,9.1803,9.1803,9.1803,9.1803,9.1803,9.1803,9.1803,9.1803,9.1803,9.1803,9.1803,9.1803,9.1767,9.1767,9.1657,9.1583,9.151,9.1436,9.151,9.151,9.1546,9.162,9.173,9.1803,9.1803,9.1583,9.1179,9.0702,9.0665,9.0665,9.0702,9.0776,9.0555,9.0408,9.0665,9.0886,10.2558,10.202,10.2635,10.2943,10.2981,10.3635,10.3982,10.4212,10.4212,10.4328,10.4362,10.4144,10.3578,10.2946,10.2547,10.1791,10.1501,10.1494,10.1494,10.1494,10.1494,10.1457,10.1494,10.1494,10.1494,10.1494,10.1494,10.142,10.1457,10.1494,10.1494,10.1494,10.1494,10.1494,10.1494,10.1494,10.1494,10.1494,10.1494,10.1494,10.1494,10.1494,10.1494,10.1494,10.1494,10.1494,10.1494,10.1494,10.1494,10.1494,10.1494,10.142,10.1384,10.1347,10.1164,10.0576,10.0283,9.9695,9.8594,9.7787,9.7052,9.6759,9.6722,9.6722,9.6649,9.6098,9.5621,9.5364,9.4593,9.3749,9.3088,9.2464,9.2134,9.195,9.1803,9.1803,9.1803,9.1803,9.1803,9.1803,9.1803,9.1803,9.1803,9.1803,9.1803,9.1803,9.1803,9.1803,9.1803,9.1803,9.1803,9.1803,9.1803,9.1803,9.1803,9.1803,9.1803,9.1803,9.1803,9.1803,9.1803,9.1803,9.1803,9.1803,9.1803,9.162,9.1216,9.151,9.1767,9.1473,9.1326,9.1546,9.162,9.1803,9.173,10.3789,10.3751,10.3789,10.3828,10.3828,10.3866,10.4366,10.502,10.502,10.5443,10.5781,10.4797,10.4041,10.3565,10.2494,10.1739,10.1494,10.1494,10.1494,10.1494,10.1494,10.1494,10.1494,10.1494,10.1494,10.1494,10.1494,10.1494,10.1494,10.1494,10.1494,10.1494,10.1494,10.1494,10.1494,10.1494,10.1494,10.1494,10.1494,10.1494,10.1494,10.1494,10.1494,10.1494,10.1494,10.1494,10.1494,10.1494,10.1494,10.1494,10.1494,10.1494,10.1494,10.1494,10.131,10.1164,10.076,10.0246,9.9585,9.8411,9.7456,9.6979,9.6722,9.6722,9.6685,9.6685,9.6282,9.5694,9.5144,9.452,9.3712,9.2978,9.2721,9.2281,9.2097,9.195,9.1913,9.1803,9.1803,9.1803,9.1803,9.1803,9.1803,9.1803,9.1803,9.1803,9.1803,9.1803,9.1803,9.1803,9.1803,9.1803,9.1803,9.1803,9.1803,9.1803,9.1803,9.1803,9.1803,9.1803,9.1803,9.1803,9.1803,9.1803,9.1803,9.1803,9.1803,9.1803,9.1803,9.1803,9.1803,9.1803,9.1803,9.1803,9.1803,10.4943,10.5405,10.5443,10.5136,10.4674,10.5213,10.5636,10.5867,10.5905,10.6059,10.6326,10.5269,10.4496,10.3803,10.2851,10.1899,10.1538,10.1494,10.1574,10.1494,10.1494,10.1494,10.1494,10.1494,10.1494,10.1494,10.1494,10.1494,10.1494,10.1494,10.1494,10.1494,10.1494,10.1494,10.1494,10.1494,10.1494,10.1494,10.1494,10.1494,10.1494,10.1494,10.1494,10.1494,10.1494,10.1494,10.1494,10.1494,10.1494,10.1494,10.1494,10.1494,10.1494,10.1494,10.1494,10.1494,10.109,10.0796,10.0099,9.8888,9.7566,9.6906,9.6722,9.6722,9.6722,9.6722,9.6612,9.6208,9.5804,9.5107,9.4813,9.4116,9.3565,9.2905,9.2464,9.2244,9.206,9.195,9.1803,9.1803,9.1803,9.1803,9.1803,9.1803,9.1803,9.1803,9.1803,9.1803,9.1803,9.1803,9.1803,9.1803,9.1803,9.1803,9.1803,9.1803,9.1803,9.1803,9.1803,9.1803,9.1803,9.1803,9.1803,9.1803,9.1803,9.1803,9.1803,9.1803,9.1803,9.1803,9.1803,9.1803,9.1803,9.1803,9.1803,10.5867,10.6367,10.6405,10.6059,10.5597,10.6136,10.6405,10.6405,10.6367,10.6405,10.6364,10.5553,10.4882,10.4227,10.3486,10.2851,10.2498,10.2389,10.2128,10.1975,10.1899,10.1739,10.1538,10.1494,10.1494,10.1494,10.1494,10.1494,10.1494,10.1494,10.1494,10.1494,10.1494,10.1494,10.1494,10.1494,10.1494,10.1494,10.1494,10.1494,10.1494,10.1494,10.1494,10.1494,10.1494,10.1494,10.1494,10.1494,10.1494,10.1494,10.1494,10.1494,10.1494,10.1494,10.1494,10.1494,10.142,10.1164,10.0393,9.8961,9.7713,9.7236,9.6795,9.6759,9.6722,9.6722,9.6649,9.6612,9.6171,9.5768,9.5621,9.4923,9.4299,9.3639,9.3015,9.2721,9.2354,9.2134,9.195,9.1803,9.1803,9.1803,9.1803,9.1803,9.1803,9.1803,9.1803,9.1803,9.1803,9.1803,9.1803,9.1803,9.1803,9.1803,9.1803,9.1803,9.1803,9.1803,9.1803,9.1803,9.1803,9.1803,9.1803,9.1803,9.1803,9.1803,9.1803,9.1803,9.1803,9.1803,9.1803,9.1803,9.1803,9.1803,9.1803,10.6367,10.6405,10.6405,10.6367,10.629,10.6367,10.6405,10.6405,10.6405,10.6405,10.6284,10.5553,10.518,10.4882,10.4108,10.3678,10.3614,10.3614,10.3355,10.2781,10.264,10.2204,10.1858,10.1697,10.166,10.1574,10.1494,10.1494,10.1494,10.1494,10.1494,10.1494,10.1494,10.1494,10.1494,10.1494,10.1494,10.1494,10.1494,10.1494,10.1494,10.1494,10.1494,10.1494,10.1494,10.1494,10.1494,10.1494,10.1494,10.1494,10.1494,10.1494,10.1494,10.1494,10.1494,10.1494,10.1494,10.1457,10.1274,9.9145,9.819,9.7713,9.7199,9.6906,9.6759,9.6722,9.6722,9.6685,9.6539,9.6208,9.5878,9.5474,9.4997,9.4446,9.3822,9.3198,9.2868,9.2464,9.2281,9.1877,9.1803,9.1803,9.1803,9.1803,9.1803,9.1803,9.1803,9.1803,9.1803,9.1803,9.1803,9.1803,9.1803,9.1803,9.1803,9.1803,9.1803,9.1803,9.1803,9.1803,9.1803,9.1803,9.1803,9.1803,9.1803,9.1803,9.1803,9.1803,9.1803,9.1803,9.1803,9.1803,9.1803,9.1803,9.1803,10.6405,10.6405,10.6405,10.6405,10.6405,10.6405,10.6405,10.6405,10.6405,10.6405,10.6242,10.5553,10.518,10.4973,10.4496,10.4146,10.4086,10.4025,10.3678,10.3614,10.355,10.3058,10.2571,10.2241,10.2015,10.1617,10.1494,10.1538,10.1494,10.1494,10.1494,10.1494,10.1494,10.1494,10.1494,10.1494,10.1494,10.1494,10.1494,10.1494,10.1494,10.1494,10.1494,10.1494,10.1494,10.1494,10.1494,10.1494,10.1494,10.1494,10.1494,10.1494,10.1494,10.1494,10.1494,10.1494,10.1494,10.1494,10.1274,10.0099,9.8998,9.8264,9.764,9.7199,9.6832,9.6722,9.6722,9.6722,9.6722,9.6465,9.6355,9.6318,9.5914,9.5327,9.4703,9.3969,9.3492,9.3051,9.2684,9.206,9.1803,9.1803,9.1803,9.1803,9.1803,9.1803,9.1803,9.1803,9.1803,9.1803,9.1803,9.1803,9.1803,9.1803,9.1803,9.1803,9.1803,9.1803,9.1803,9.1803,9.1803,9.1803,9.1803,9.1803,9.1803,9.1803,9.1803,9.1803,9.1803,9.1803,9.1803,9.1803,9.1803,9.1803,9.1803,10.6405,10.6405,10.6405,10.6405,10.6405,10.6405,10.6405,10.6405,10.6405,10.6405,10.6284,10.5817,10.5601,10.5467,10.5129,10.4866,10.4828,10.4866,10.4553,10.4496,10.4401,10.3865,10.3421,10.3126,10.292,10.2352,10.2052,10.1899,10.1975,10.1617,10.1494,10.1494,10.1494,10.1494,10.1494,10.1494,10.1494,10.1494,10.1494,10.1494,10.1494,10.1494,10.1494,10.1494,10.1494,10.1494,10.1494,10.1494,10.1494,10.1494,10.1494,10.1494,10.1494,10.1494,10.1494,10.1494,10.1494,10.1494,10.1274,10.109,9.9989,9.9035,9.8337,9.753,9.6906,9.6722,9.6722,9.6722,9.6722,9.6685,9.6685,9.6722,9.6465,9.5841,9.5401,9.4703,9.4263,9.3822,9.3051,9.2464,9.1913,9.1877,9.1803,9.1803,9.1803,9.1803,9.1803,9.1803,9.1803,9.1803,9.1803,9.1803,9.1803,9.1803,9.1803,9.1803,9.1803,9.1803,9.1803,9.1803,9.1803,9.1803,9.1803,9.1803,9.1803,9.1803,9.1803,9.1803,9.1803,9.1803,9.1803,9.1803,9.1803,9.1803,9.1803,10.6405,10.6405,10.6405,10.6405,10.6405,10.6405,10.6405,10.6405,10.6405,10.6405,10.6364,10.6364,10.6242,10.6326,10.6284,10.6199,10.6117,10.6161,10.5771,10.5407,10.5269,10.4664,10.4227,10.3988,10.3803,10.355,10.3156,10.2677,10.2568,10.1858,10.1494,10.1617,10.1538,10.1574,10.1494,10.1494,10.1494,10.1494,10.1494,10.1494,10.1494,10.1494,10.1494,10.1494,10.1494,10.1494,10.1494,10.1494,10.1494,10.1494,10.1494,10.1494,10.1494,10.1494,10.1494,10.1494,10.1494,10.1494,10.1457,10.1347,10.0907,9.9842,9.8888,9.7787,9.7052,9.6832,9.6722,9.6722,9.6722,9.6722,9.6722,9.6722,9.6685,9.6282,9.5951,9.5511,9.5144,9.452,9.3675,9.2978,9.2354,9.2097,9.184,9.1803,9.1803,9.1803,9.1803,9.1803,9.1803,9.1803,9.1803,9.1803,9.1803,9.1803,9.1803,9.1803,9.1803,9.1803,9.1803,9.1803,9.1803,9.1803,9.1803,9.1803,9.1803,9.1803,9.1803,9.1803,9.1803,9.1803,9.1803,9.1803,9.1803,9.1803,9.1803,10.6405,10.6405,10.6405,10.6405,10.6405,10.6405,10.6405,10.6405,10.6405,10.6405,10.6405,10.6405,10.6405,10.6405,10.6405,10.6405,10.6405,10.6364,10.6284,10.6117,10.5908,10.5456,10.5129,10.4828,10.4553,10.4108,10.3741,10.3318,10.2711,10.1975,10.1899,10.2204,10.1739,10.1538,10.1494,10.1494,10.1494,10.1494,10.1494,10.1494,10.1494,10.1494,10.1494,10.1494,10.1494,10.1494,10.1494,10.1494,10.1494,10.1494,10.1494,10.1494,10.1494,10.1494,10.1494,10.1494,10.1494,10.1494,10.1494,10.1494,10.1164,10.0576,9.9769,9.8888,9.7933,9.7163,9.6869,9.6722,9.6722,9.6722,9.6722,9.6722,9.6722,9.6539,9.6245,9.6025,9.5658,9.5144,9.4299,9.3602,9.2978,9.2391,9.2134,9.1803,9.1803,9.1803,9.1803,9.1803,9.1803,9.1803,9.1803,9.1803,9.1803,9.1803,9.1803,9.1803,9.1803,9.1803,9.1803,9.1803,9.1803,9.1803,9.1803,9.1803,9.1803,9.1803,9.1803,9.1803,9.1803,9.1803,9.1803,9.1803,9.1803,9.1803,9.1803,10.6405,10.6405,10.6405,10.6405,10.6405,10.6405,10.6405,10.6405,10.6405,10.6405,10.6405,10.6405,10.6405,10.6405,10.6405,10.6405,10.6405,10.6405,10.6326,10.6326,10.6482,10.6079,10.5817,10.5677,10.5456,10.4973,10.4609,10.4248,10.3448,10.2606,10.2352,10.2534,10.1899,10.1617,10.1494,10.1494,10.1494,10.1494,10.1494,10.1494,10.1494,10.1494,10.1494,10.1494,10.1494,10.1494,10.1494,10.1494,10.1494,10.1494,10.1494,10.1494,10.1494,10.1494,10.1494,10.1494,10.1494,10.1494,10.1494,10.1494,10.12,10.0833,10.0466,9.9805,9.8888,9.8043,9.7346,9.6795,9.6759,9.6722,9.6722,9.6722,9.6722,9.6685,9.6575,9.6465,9.6098,9.5731,9.5034,9.4299,9.3639,9.2941,9.2464,9.2097,9.1803,9.1803,9.1803,9.1803,9.1803,9.1803,9.1803,9.1803,9.1803,9.1803,9.1803,9.1803,9.1803,9.1803,9.1803,9.1803,9.1803,9.1803,9.1803,9.1803,9.1803,9.1803,9.1803,9.1803,9.1803,9.1803,9.1803,9.1803,9.1803,9.1803,9.1803,10.6405,10.6405,10.6405,10.6482,10.6521,10.6559,10.6597,10.6597,10.6751,10.6597,10.6597,10.6521,10.6674,10.6944,10.6982,10.6944,10.7021,10.7021,10.7059,10.6636,10.6944,10.686,10.6822,10.6633,10.6573,10.626,10.5886,10.5447,10.4866,10.3827,10.292,10.2814,10.2315,10.2012,10.1858,10.178,10.1739,10.1494,10.1494,10.1494,10.1494,10.1494,10.1494,10.1494,10.1494,10.1494,10.1494,10.1494,10.1494,10.1494,10.1494,10.1494,10.1494,10.1494,10.1494,10.1494,10.1494,10.1494,10.1494,10.1494,10.1494,10.12,10.0833,10.0393,9.9585,9.8411,9.753,9.7052,9.6979,9.6759,9.6722,9.6722,9.6722,9.6722,9.6649,9.6612,9.6428,9.6061,9.5547,9.4887,9.4373,9.3712,9.3161,9.2794,9.2317,9.206,9.1803,9.1803,9.1803,9.1803,9.1803,9.1803,9.1803,9.1803,9.1803,9.1803,9.1803,9.1803,9.1803,9.1803,9.1803,9.1803,9.1803,9.1803,9.1803,9.1803,9.1803,9.1803,9.1803,9.1803,9.1803,9.1803,9.1803,9.1803,9.1803,10.6405,10.6405,10.6405,10.679,10.7367,10.7367,10.7752,10.829,10.829,10.7905,10.7482,10.7444,10.7713,10.8059,10.8059,10.8098,10.8136,10.7944,10.8252,10.8136,10.8098,10.7905,10.8175,10.7982,10.7867,10.7479,10.7082,10.6567,10.583,10.474,10.3988,10.4401,10.3678,10.292,10.2388,10.2425,10.2091,10.1739,10.1494,10.1494,10.1494,10.1494,10.1494,10.1494,10.1494,10.1494,10.1494,10.1494,10.1494,10.1494,10.1494,10.1494,10.1494,10.1494,10.1494,10.1494,10.1494,10.1494,10.1494,10.1494,10.1494,10.1494,10.12,10.0833,10.0026,9.8668,9.7823,9.7493,9.7199,9.6942,9.6722,9.6722,9.6722,9.6722,9.6722,9.6722,9.6722,9.6355,9.5988,9.5547,9.507,9.452,9.3969,9.3455,9.2978,9.2501,9.2024,9.184,9.1877,9.1877,9.1803,9.1803,9.1803,9.1803,9.1803,9.1803,9.1803,9.1803,9.1803,9.1803,9.1803,9.1803,9.1803,9.1803,9.1803,9.1803,9.1803,9.1803,9.1803,9.1803,9.1803,9.1803,9.1803,9.1803,9.1803,10.6982,10.7021,10.7367,10.779,10.8175,10.8213,10.8521,10.8829,10.8906,10.8867,10.8752,10.8482,10.8521,10.8906,10.8906,10.8983,10.8983,10.8867,10.8713,10.8829,10.9021,10.879,10.8906,10.9021,10.8636,10.8252,10.779,10.7245,10.6737,10.5484,10.4774,10.5116,10.4439,10.3803,10.3223,10.2952,10.2568,10.2052,10.1739,10.1538,10.1574,10.1494,10.1494,10.1494,10.1494,10.1494,10.1494,10.1494,10.1494,10.1494,10.1494,10.1494,10.1494,10.1494,10.1494,10.1494,10.1494,10.1494,10.1494,10.1494,10.1494,10.1494,10.1494,10.1053,10.0907,9.9659,9.8557,9.819,9.7676,9.7383,9.6869,9.6722,9.6722,9.6722,9.6722,9.6722,9.6722,9.6575,9.6355,9.6208,9.5694,9.518,9.463,9.4153,9.3712,9.3455,9.2868,9.2427,9.2354,9.206,9.195,9.184,9.184,9.1803,9.1803,9.1803,9.1803,9.1803,9.1803,9.1803,9.1803,9.1803,9.1803,9.1803,9.1803,9.1803,9.1803,9.1803,9.1803,9.1803,9.1803,9.1803,9.1803,9.1803,9.1803,10.7867,10.7982,10.8598,10.8983,10.906,10.906,10.9175,10.929,10.9252,10.9675,11.0175,10.956,10.929,10.9213,10.9213,10.9213,10.9367,10.9675,10.9483,10.9444,10.9444,10.9675,10.9637,10.9406,10.9329,10.8906,10.8367,10.8098,10.7787,10.649,10.5625,10.5371,10.4812,10.4227,10.3927,10.3513,10.302,10.2534,10.2091,10.166,10.1538,10.1494,10.1494,10.1494,10.1494,10.1494,10.1494,10.1494,10.1494,10.1494,10.1494,10.1494,10.1494,10.1494,10.1494,10.1494,10.1494,10.1494,10.1494,10.1494,10.1494,10.1494,10.1494,10.142,10.1237,10.065,9.9548,9.8851,9.8374,9.7713,9.7163,9.6759,9.6759,9.6722,9.6722,9.6722,9.6722,9.6722,9.6685,9.6649,9.6245,9.5694,9.5364,9.485,9.452,9.4299,9.3932,9.3565,9.3125,9.2684,9.2354,9.2134,9.1987,9.1913,9.1803,9.1803,9.1803,9.1803,9.1803,9.1803,9.1803,9.1803,9.1803,9.1803,9.1803,9.1803,9.1803,9.1803,9.1803,9.1803,9.1803,9.1803,9.1803,9.1803,9.1803,10.8675,10.8675,10.8867,10.929,10.9867,10.9944,11.0367,11.0944,11.0983,11.1137,11.1098,11.1137,11.1021,11.0983,11.1021,11.0868,11.0598,11.0714,11.0906,11.1021,11.0675,11.0829,11.0829,11.0483,11.0444,10.9867,10.9175,10.8752,10.8559,10.7702,10.7159,10.6995,10.6266,10.563,10.4973,10.4515,10.401,10.3355,10.2711,10.2278,10.1739,10.1617,10.1494,10.1494,10.1494,10.1494,10.1494,10.1494,10.1494,10.1494,10.1494,10.1494,10.1494,10.1494,10.1494,10.1494,10.1494,10.1494,10.1494,10.1494,10.1494,10.1494,10.1494,10.1457,10.1384,10.1347,10.0429,9.9805,9.9145,9.819,9.7566,9.7016,9.6869,9.6759,9.6722,9.6722,9.6722,9.6722,9.6685,9.6685,9.6575,9.6318,9.6245,9.5768,9.5327,9.5034,9.4556,9.4189,9.4006,9.3455,9.2831,9.2574,9.2317,9.195,9.1803,9.1803,9.1803,9.1803,9.1803,9.1803,9.1803,9.1803,9.1803,9.1803,9.1803,9.1803,9.1803,9.1803,9.1803,9.1803,9.1803,9.1803,9.1803,9.1803,9.1803]},{"header":{"parameterUnit":"m.s-1","parameterCategory":1,"la1":31.0,"la2":29.5877,"lo1":-88.7671,"lo2":-86.6584,"dx":0.0162,"dy":0.0185,"nx":115,"ny":88,"refTime":"2023-02-12T06:00:00:Z","depth":0,"parameterNumber":3,"parameterNumberName":"V-component_of_WINDS"},"data":[0.0,0.0,0.0,0.0,0.0,0.0,0.0,0.0,0.0,0.0,0.0,0.0,0.0,0.0,0.0,0.0,0.0,0.0,0.0,0.0,0.0,0.0,0.0,0.0,0.0,0.0,0.0,0.0,0.0,0.0,0.0,0.0,0.0,0.0,0.0,0.0,0.0,0.0,0.0,0.0,0.0,0.0,0.0,0.0,0.0,0.0,0.0,0.0,0.0,0.0,0.0,0.0,0.0,0.0,0.0,0.0,0.0,0.0,0.0,0.0,0.0,0.0,0.0,0.0,0.0,0.0,0.0,0.0,0.0,0.0,0.0,0.0,0.0,0.0,0.0,0.0,0.0,0.0,0.0,0.0,0.0,0.0,0.0,0.0,0.0,0.0,0.0,0.0,0.0,0.0,0.0,0.0,0.0,0.0,0.0,0.0,0.0,0.0,0.0,0.0,0.0,0.0,0.0,0.0,0.0,0.0,0.0,0.0,0.0,0.0,0.0,0.0,0.0,0.0,0.0,0.0,0.0,0.0,0.0,0.0,0.0,0.0,0.0,0.0,0.0,0.0,0.0,0.0,0.0,0.0,0.0,0.0,0.0,0.0,0.0,0.0,0.0,0.0,0.0,0.0,0.0,0.0,0.0,0.0,0.0,0.0,0.0,0.0,0.0,0.0,0.0,0.0,0.0,0.0,0.0,0.0,0.0,0.0,0.0,0.0,0.0,0.0,0.0,0.0,0.0,0.0,0.0,0.0,0.0,0.0,0.0,0.0,0.0,0.0,0.0,0.0,0.0,0.0,0.0,0.0,0.0,0.0,0.0,0.0,0.0,0.0,0.0,0.0,0.0,0.0,0.0,0.0,0.0,0.0,0.0,0.0,0.0,0.0,0.0,0.0,0.0,0.0,0.0,0.0,0.0,0.0,0.0,0.0,0.0,0.0,0.0,0.0,0.0,0.0,0.0,0.0,0.0,0.0,0.0,0.0,0.0,0.0,0.0,0.0,0.0,0.0,0.0,0.0,0.0,0.0,0.0,0.0,0.0,0.0,0.0,0.0,0.0,0.0,0.0,0.0,0.0,0.0,0.0,0.0,0.0,0.0,0.0,0.0,0.0,0.0,0.0,0.0,0.0,0.0,0.0,0.0,0.0,0.0,0.0,0.0,0.0,0.0,0.0,0.0,0.0,0.0,0.0,0.0,0.0,0.0,0.0,0.0,0.0,0.0,0.0,0.0,0.0,0.0,0.0,0.0,0.0,0.0,0.0,0.0,0.0,0.0,0.0,0.0,0.0,0.0,0.0,0.0,0.0,0.0,0.0,0.0,0.0,0.0,0.0,0.0,0.0,0.0,0.0,0.0,0.0,0.0,0.0,0.0,0.0,0.0,0.0,0.0,0.0,0.0,0.0,0.0,0.0,0.0,0.0,0.0,0.0,0.0,0.0,0.0,0.0,0.0,0.0,0.0,0.0,0.0,0.0,0.0,0.0,0.0,0.0,0.0,0.0,0.0,0.0,0.0,0.0,0.0,0.0,0.0,0.0,0.0,0.0,0.0,0.0,0.0,0.0,0.0,0.0,0.0,0.0,0.0,0.0,0.0,0.0,0.0,0.0,0.0,0.0,0.0,0.0,0.0,0.0,0.0,0.0,0.0,0.0,0.0,0.0,0.0,0.0,0.0,0.0,0.0,0.0,0.0,0.0,0.0,0.0,0.0,0.0,0.0,0.0,0.0,0.0,0.0,0.0,0.0,0.0,0.0,0.0,0.0,0.0,0.0,0.0,0.0,0.0,0.0,0.0,0.0,0.0,0.0,0.0,0.0,0.0,0.0,0.0,0.0,0.0,0.0,0.0,0.0,0.0,0.0,0.0,0.0,0.0,0.0,0.0,0.0,0.0,0.0,0.0,0.0,0.0,0.0,0.0,0.0,0.0,0.0,0.0,0.0,0.0,0.0,0.0,0.0,0.0,0.0,0.0,0.0,0.0,0.0,0.0,0.0,0.0,0.0,0.0,0.0,0.0,0.0,0.0,0.0,0.0,0.0,0.0,0.0,0.0,0.0,0.0,0.0,0.0,0.0,0.0,0.0,0.0,0.0,0.0,0.0,0.0,0.0,0.0,0.0,0.0,0.0,0.0,0.0,0.0,0.0,0.0,0.0,0.0,0.0,0.0,0.0,0.0,0.0,0.0,0.0,0.0,0.0,0.0,0.0,0.0,0.0,0.0,0.0,0.0,0.0,0.0,0.0,0.0,0.0,0.0,0.0,0.0,0.0,0.0,0.0,0.0,0.0,0.0,0.0,0.0,0.0,0.0,0.0,0.0,0.0,0.0,0.0,0.0,0.0,0.0,0.0,0.0,0.0,0.0,0.0,0.0,0.0,0.0,0.0,0.0,0.0,0.0,0.0,0.0,0.0,0.0,0.0,0.0,0.0,0.0,0.0,0.0,0.0,0.0,0.0,0.0,0.0,0.0,0.0,0.0,0.0,0.0,0.0,0.0,0.0,0.0,0.0,0.0,0.0,0.0,0.0,0.0,0.0,0.0,0.0,0.0,0.0,0.0,0.0,0.0,0.0,0.0,0.0,0.0,0.0,0.0,0.0,0.0,0.0,0.0,0.0,0.0,0.0,0.0,0.0,0.0,0.0,0.0,0.0,0.0,0.0,0.0,0.0,0.0,0.0,0.0,0.0,0.0,0.0,0.0,0.0,0.0,0.0,0.0,0.0,0.0,0.0,0.0,0.0,0.0,0.0,0.0,0.0,0.0,0.0,0.0,0.0,0.0,0.0,0.0,0.0,0.0,0.0,0.0,0.0,0.0,0.0,0.0,0.0,0.0,0.0,0.0,0.0,0.0,0.0,0.0,0.0,0.0,0.0,0.0,0.0,0.0,0.0,0.0,0.0,0.0,0.0,0.0,0.0,0.0,0.0,0.0,0.0,0.0,0.0,0.0,0.0,0.0,0.0,0.0,0.0,0.0,0.0,0.0,0.0,0.0,0.0,0.0,0.0,0.0,0.0,0.0,0.0,0.0,0.0,0.0,0.0,0.0,0.0,0.0,0.0,0.0,0.0,0.0,0.0,0.0,0.0,0.0,0.0,0.0,0.0,0.0,0.0,0.0,0.0,0.0,0.0,0.0,0.0,0.0,0.0,0.0,0.0,0.0,0.0,0.0,0.0,0.0,0.0,0.0,0.0,0.0,0.0,0.0,0.0,0.0,0.0,0.0,0.0,0.0,0.0,0.0,0.0,0.0,0.0,0.0,0.0,0.0,0.0,0.0,0.0,0.0,0.0,0.0,0.0,0.0,0.0,0.0,0.0,0.0,0.0,0.0,0.0,0.0,0.0,0.0,0.0,0.0,0.0,0.0,0.0,0.0,0.0,0.0,0.0,0.0,0.0,0.0,0.0,0.0,0.0,0.0,0.0,0.0,0.0,0.0,0.0,0.0,0.0,0.0,0.0,0.0,0.0,0.0,0.0,0.0,0.0,0.0,0.0,0.0,0.0,0.0,0.0,0.0,0.0,0.0,0.0,0.0,0.0,0.0,0.0,0.0,0.0,0.0,0.0,0.0,0.0,0.0,0.0,0.0,0.0,0.0,0.0,0.0,0.0,0.0,0.0,0.0,0.0,0.0,0.0,0.0,0.0,0.0,0.0,0.0,0.0,0.0,0.0,0.0,0.0,0.0,0.0,0.0,0.0,0.0,0.0,0.0,0.0,0.0,0.0,0.0,0.0,0.0,0.0,0.0,0.0,0.0,0.0,0.0,0.0,0.0,0.0,0.0,0.0,0.0,0.0,0.0,0.0,0.0,0.0,0.0,0.0,0.0,0.0,0.0,0.0,0.0,0.0,0.0,0.0,0.0,0.0,0.0,0.0,0.0,0.0,0.0,0.0,0.0,0.0,0.0,0.0,0.0,0.0,0.0,0.0,0.0,0.0,0.0,0.0,0.0,0.0,0.0,0.0,0.0,0.0,0.0,0.0,0.0,0.0,0.0,0.0,0.0,0.0,0.0,0.0,0.0,0.0,0.0,0.0,0.0,0.0,0.0,0.0,0.0,0.0,0.0,0.0,0.0,0.0,0.0,0.0,0.0,0.0,0.0,0.0,0.0,0.0,0.0,0.0,0.0,0.0,0.0,0.0,0.0,0.0,0.0,0.0,0.0,0.0,0.0,0.0,0.0,0.0,0.0,0.0,0.0,0.0,0.0,0.0,0.0,0.0,0.0,0.0,0.0,0.0,0.0,0.0,0.0,0.0,0.0,0.0,0.0,0.0,0.0,0.0,0.0,0.0,-2.2859,0.0,0.0,0.0,0.0,0.0,0.0,0.0,0.0,0.0,0.0,0.0,0.0,0.0,0.0,0.0,0.0,0.0,0.0,0.0,0.0,0.0,0.0,0.0,0.0,0.0,0.0,0.0,0.0,0.0,0.0,0.0,0.0,0.0,0.0,0.0,0.0,0.0,0.0,0.0,0.0,0.0,0.0,0.0,0.0,0.0,0.0,0.0,0.0,0.0,0.0,0.0,0.0,0.0,0.0,0.0,0.0,0.0,0.0,0.0,0.0,0.0,0.0,0.0,0.0,0.0,0.0,0.0,0.0,0.0,0.0,0.0,0.0,0.0,0.0,0.0,0.0,0.0,0.0,0.0,0.0,0.0,0.0,0.0,0.0,0.0,0.0,0.0,0.0,0.0,0.0,0.0,0.0,0.0,0.0,0.0,0.0,0.0,0.0,0.0,0.0,0.0,0.0,0.0,0.0,0.0,0.0,0.0,0.0,0.0,0.0,-2.2859,-2.2859,-2.2859,-2.2859,-2.2859,0.0,0.0,0.0,0.0,0.0,0.0,0.0,0.0,0.0,0.0,0.0,0.0,0.0,0.0,0.0,0.0,0.0,0.0,0.0,0.0,0.0,0.0,0.0,0.0,0.0,0.0,0.0,0.0,0.0,0.0,0.0,0.0,0.0,0.0,0.0,0.0,0.0,0.0,0.0,0.0,0.0,0.0,0.0,0.0,0.0,0.0,0.0,0.0,0.0,0.0,0.0,0.0,0.0,0.0,0.0,0.0,0.0,0.0,0.0,0.0,0.0,0.0,0.0,0.0,0.0,0.0,0.0,0.0,0.0,0.0,0.0,0.0,0.0,0.0,0.0,0.0,0.0,0.0,0.0,0.0,0.0,0.0,0.0,0.0,0.0,0.0,0.0,0.0,0.0,0.0,0.0,0.0,0.0,0.0,0.0,0.0,0.0,0.0,0.0,0.0,0.0,0.0,0.0,0.0,0.0,0.0,0.0,0.0,0.0,0.0,0.0,0.0,-2.2859,-2.2859,-2.2859,0.0,0.0,0.0,0.0,0.0,0.0,0.0,0.0,0.0,0.0,0.0,0.0,0.0,0.0,0.0,0.0,0.0,0.0,0.0,0.0,0.0,0.0,0.0,0.0,0.0,0.0,0.0,0.0,0.0,0.0,0.0,0.0,0.0,0.0,0.0,0.0,0.0,0.0,0.0,0.0,0.0,0.0,0.0,0.0,0.0,0.0,0.0,0.0,0.0,0.0,0.0,0.0,0.0,0.0,0.0,0.0,0.0,0.0,0.0,0.0,0.0,0.0,0.0,0.0,0.0,0.0,0.0,0.0,0.0,0.0,0.0,0.0,0.0,0.0,0.0,0.0,0.0,0.0,0.0,0.0,0.0,0.0,0.0,0.0,0.0,0.0,0.0,0.0,0.0,0.0,0.0,0.0,0.0,0.0,0.0,0.0,0.0,0.0,0.0,0.0,0.0,0.0,0.0,0.0,0.0,0.0,0.0,0.0,0.0,0.0,-2.2859,-2.2859,-2.2873,0.0,-2.2859,0.0,0.0,0.0,0.0,0.0,0.0,0.0,0.0,0.0,0.0,0.0,0.0,0.0,0.0,0.0,0.0,0.0,0.0,0.0,0.0,0.0,0.0,0.0,0.0,0.0,0.0,0.0,0.0,0.0,0.0,0.0,0.0,0.0,0.0,0.0,0.0,0.0,0.0,0.0,0.0,0.0,0.0,0.0,0.0,0.0,0.0,0.0,0.0,0.0,0.0,0.0,0.0,0.0,0.0,0.0,0.0,0.0,0.0,0.0,0.0,0.0,0.0,0.0,0.0,0.0,0.0,0.0,0.0,0.0,0.0,0.0,0.0,0.0,0.0,0.0,0.0,0.0,0.0,0.0,0.0,0.0,0.0,0.0,0.0,0.0,0.0,0.0,0.0,0.0,0.0,0.0,0.0,0.0,0.0,0.0,0.0,0.0,0.0,0.0,0.0,0.0,0.0,0.0,0.0,0.0,0.0,0.0,0.0,0.0,0.0,-2.2953,-2.3126,-2.314,-2.3046,0.0,0.0,0.0,0.0,0.0,0.0,0.0,0.0,0.0,0.0,0.0,0.0,0.0,0.0,0.0,0.0,0.0,0.0,0.0,0.0,0.0,0.0,0.0,0.0,0.0,0.0,0.0,0.0,0.0,0.0,0.0,0.0,0.0,0.0,0.0,0.0,0.0,0.0,0.0,0.0,0.0,0.0,0.0,0.0,0.0,0.0,0.0,0.0,0.0,0.0,0.0,0.0,0.0,0.0,0.0,0.0,0.0,0.0,0.0,0.0,0.0,0.0,0.0,0.0,0.0,0.0,0.0,0.0,0.0,0.0,0.0,0.0,0.0,0.0,0.0,0.0,0.0,0.0,0.0,0.0,0.0,0.0,0.0,0.0,0.0,0.0,0.0,0.0,0.0,0.0,0.0,0.0,0.0,0.0,0.0,0.0,0.0,0.0,0.0,0.0,0.0,0.0,0.0,0.0,0.0,0.0,0.0,0.0,0.0,0.0,-2.3113,-2.322,-2.3434,-2.3447,-2.334,-2.3113,0.0,0.0,0.0,0.0,0.0,0.0,0.0,0.0,0.0,0.0,0.0,0.0,0.0,0.0,0.0,0.0,0.0,0.0,0.0,0.0,0.0,0.0,0.0,0.0,0.0,0.0,0.0,0.0,0.0,0.0,0.0,0.0,0.0,0.0,0.0,0.0,0.0,0.0,0.0,0.0,0.0,0.0,0.0,0.0,0.0,0.0,0.0,0.0,0.0,0.0,0.0,0.0,0.0,0.0,0.0,0.0,0.0,0.0,0.0,0.0,0.0,0.0,0.0,0.0,0.0,0.0,0.0,0.0,0.0,0.0,0.0,0.0,0.0,0.0,0.0,0.0,0.0,0.0,0.0,0.0,0.0,0.0,0.0,0.0,0.0,0.0,0.0,0.0,0.0,0.0,0.0,0.0,0.0,0.0,0.0,0.0,0.0,0.0,0.0,0.0,0.0,0.0,0.0,0.0,0.0,0.0,0.0,0.0,0.0,-2.3728,-2.3741,-2.3741,-2.3754,-2.3741,0.0,0.0,0.0,0.0,0.0,0.0,0.0,0.0,0.0,0.0,0.0,0.0,0.0,0.0,0.0,0.0,0.0,0.0,0.0,0.0,0.0,0.0,0.0,0.0,0.0,0.0,0.0,0.0,0.0,0.0,0.0,0.0,0.0,0.0,0.0,0.0,0.0,0.0,0.0,0.0,0.0,0.0,0.0,0.0,0.0,0.0,0.0,0.0,0.0,0.0,0.0,0.0,0.0,0.0,0.0,0.0,0.0,0.0,0.0,0.0,0.0,0.0,0.0,0.0,0.0,0.0,0.0,0.0,0.0,0.0,0.0,0.0,0.0,0.0,0.0,0.0,0.0,0.0,0.0,0.0,0.0,0.0,0.0,0.0,0.0,0.0,0.0,0.0,0.0,0.0,0.0,0.0,0.0,0.0,0.0,0.0,0.0,0.0,0.0,0.0,0.0,0.0,0.0,0.0,0.0,0.0,0.0,0.0,0.0,-2.3781,-2.3955,-2.3955,-2.3781,-2.3955,-2.3955,0.0,0.0,0.0,0.0,0.0,0.0,0.0,0.0,0.0,0.0,0.0,0.0,0.0,0.0,0.0,0.0,0.0,0.0,0.0,0.0,0.0,0.0,0.0,0.0,0.0,0.0,0.0,0.0,0.0,0.0,0.0,0.0,0.0,0.0,0.0,0.0,0.0,0.0,0.0,0.0,0.0,0.0,0.0,0.0,0.0,0.0,0.0,0.0,0.0,0.0,0.0,0.0,0.0,0.0,0.0,0.0,0.0,0.0,0.0,0.0,0.0,0.0,0.0,0.0,0.0,0.0,0.0,0.0,0.0,0.0,0.0,0.0,0.0,0.0,0.0,0.0,0.0,0.0,0.0,0.0,0.0,0.0,0.0,0.0,0.0,0.0,0.0,0.0,0.0,0.0,0.0,0.0,0.0,0.0,0.0,0.0,0.0,0.0,0.0,0.0,0.0,0.0,0.0,0.0,0.0,0.0,0.0,0.0,0.0,-2.4062,0.0,-2.4249,0.0,-2.4235,-2.4249,0.0,0.0,0.0,0.0,0.0,0.0,0.0,0.0,0.0,0.0,0.0,0.0,0.0,0.0,0.0,0.0,0.0,0.0,0.0,0.0,0.0,0.0,0.0,0.0,0.0,0.0,0.0,0.0,0.0,0.0,0.0,0.0,0.0,0.0,0.0,0.0,0.0,0.0,0.0,0.0,0.0,0.0,0.0,0.0,0.0,0.0,0.0,0.0,0.0,0.0,0.0,0.0,0.0,0.0,0.0,0.0,0.0,0.0,0.0,0.0,0.0,0.0,0.0,0.0,0.0,0.0,0.0,0.0,0.0,0.0,0.0,0.0,0.0,0.0,0.0,0.0,0.0,0.0,0.0,0.0,0.0,0.0,0.0,0.0,0.0,0.0,0.0,0.0,0.0,0.0,0.0,0.0,0.0,0.0,0.0,0.0,0.0,0.0,0.0,0.0,0.0,0.0,0.0,0.0,0.0,0.0,0.0,0.0,-2.4623,-2.4623,-2.4623,-2.4609,-2.4623,-2.4623,-2.4623,0.0,0.0,0.0,0.0,0.0,0.0,0.0,0.0,0.0,0.0,0.0,0.0,0.0,0.0,0.0,0.0,0.0,0.0,0.0,0.0,0.0,0.0,0.0,0.0,0.0,0.0,0.0,0.0,0.0,0.0,0.0,0.0,0.0,0.0,0.0,0.0,0.0,0.0,0.0,0.0,0.0,0.0,0.0,0.0,0.0,0.0,0.0,0.0,0.0,0.0,0.0,0.0,0.0,0.0,0.0,0.0,0.0,0.0,0.0,0.0,0.0,0.0,0.0,0.0,0.0,0.0,0.0,0.0,0.0,0.0,0.0,0.0,0.0,0.0,0.0,0.0,0.0,0.0,0.0,0.0,0.0,0.0,0.0,0.0,0.0,0.0,0.0,0.0,0.0,0.0,0.0,0.0,0.0,0.0,0.0,0.0,0.0,0.0,0.0,0.0,0.0,0.0,0.0,0.0,0.0,0.0,0.0,0.0,0.0,-2.4636,-2.4636,-2.4636,-2.4636,-2.4636,-2.4636,0.0,0.0,0.0,0.0,0.0,0.0,0.0,0.0,0.0,0.0,0.0,0.0,0.0,0.0,0.0,0.0,0.0,0.0,0.0,0.0,0.0,0.0,0.0,0.0,0.0,0.0,0.0,0.0,0.0,0.0,0.0,0.0,0.0,0.0,0.0,0.0,0.0,0.0,0.0,0.0,0.0,0.0,0.0,0.0,0.0,0.0,0.0,0.0,0.0,0.0,0.0,0.0,0.0,0.0,0.0,0.0,0.0,0.0,0.0,0.0,0.0,0.0,0.0,0.0,0.0,0.0,0.0,0.0,0.0,0.0,0.0,0.0,0.0,0.0,0.0,0.0,0.0,0.0,0.0,0.0,0.0,0.0,0.0,0.0,0.0,0.0,0.0,0.0,0.0,0.0,0.0,0.0,0.0,0.0,0.0,0.0,0.0,0.0,0.0,0.0,0.0,0.0,0.0,0.0,0.0,0.0,0.0,0.0,0.0,-2.4636,-2.4636,-2.4636,-2.4636,-2.4636,-2.4636,-2.4636,0.0,0.0,0.0,0.0,0.0,0.0,0.0,0.0,0.0,0.0,0.0,0.0,0.0,0.0,0.0,0.0,0.0,0.0,0.0,0.0,0.0,0.0,0.0,0.0,0.0,0.0,0.0,0.0,0.0,0.0,0.0,0.0,0.0,0.0,0.0,0.0,0.0,0.0,0.0,0.0,0.0,0.0,0.0,0.0,0.0,0.0,0.0,0.0,0.0,0.0,0.0,0.0,0.0,0.0,0.0,0.0,0.0,0.0,0.0,0.0,0.0,0.0,0.0,0.0,0.0,0.0,0.0,0.0,0.0,0.0,0.0,0.0,0.0,0.0,0.0,0.0,0.0,0.0,0.0,0.0,0.0,0.0,0.0,0.0,0.0,0.0,0.0,0.0,0.0,0.0,0.0,0.0,0.0,0.0,0.0,0.0,0.0,0.0,0.0,0.0,0.0,0.0,0.0,0.0,0.0,0.0,0.0,0.0,-2.4636,-2.4636,-2.4636,-2.4636,-2.4636,-2.4636,0.0,0.0,0.0,0.0,0.0,0.0,0.0,0.0,0.0,0.0,0.0,0.0,0.0,0.0,0.0,0.0,0.0,0.0,0.0,0.0,0.0,0.0,0.0,0.0,0.0,0.0,0.0,0.0,0.0,0.0,0.0,0.0,0.0,0.0,0.0,0.0,0.0,0.0,0.0,0.0,0.0,0.0,0.0,0.0,0.0,0.0,0.0,0.0,0.0,0.0,0.0,0.0,0.0,0.0,0.0,0.0,0.0,0.0,0.0,0.0,0.0,0.0,0.0,0.0,0.0,0.0,0.0,0.0,0.0,0.0,0.0,0.0,0.0,0.0,0.0,0.0,0.0,0.0,0.0,0.0,0.0,0.0,0.0,0.0,0.0,0.0,0.0,0.0,0.0,0.0,0.0,0.0,0.0,0.0,0.0,0.0,0.0,0.0,0.0,0.0,0.0,0.0,0.0,0.0,0.0,0.0,0.0,0.0,0.0,-2.4636,-2.4636,-2.4636,-2.4636,-2.4636,-2.4636,0.0,0.0,0.0,0.0,0.0,0.0,0.0,0.0,0.0,0.0,0.0,0.0,0.0,0.0,0.0,0.0,0.0,0.0,0.0,0.0,0.0,0.0,0.0,0.0,0.0,0.0,0.0,0.0,0.0,0.0,0.0,0.0,0.0,0.0,0.0,0.0,0.0,0.0,0.0,0.0,0.0,0.0,0.0,0.0,0.0,0.0,0.0,0.0,0.0,0.0,0.0,0.0,0.0,0.0,0.0,0.0,0.0,0.0,0.0,0.0,0.0,0.0,0.0,0.0,0.0,0.0,0.0,0.0,0.0,0.0,0.0,0.0,0.0,0.0,0.0,0.0,0.0,0.0,0.0,0.0,0.0,0.0,0.0,0.0,0.0,0.0,0.0,0.0,0.0,0.0,0.0,0.0,0.0,0.0,0.0,0.0,0.0,0.0,0.0,0.0,0.0,0.0,0.0,0.0,0.0,0.0,0.0,0.0,-2.489,-2.4997,-2.501,-2.501,-2.501,-2.477,-2.4636,0.0,0.0,0.0,0.0,0.0,0.0,0.0,0.0,0.0,0.0,0.0,0.0,0.0,0.0,0.0,0.0,0.0,0.0,0.0,0.0,0.0,0.0,0.0,0.0,0.0,0.0,0.0,0.0,0.0,0.0,0.0,0.0,0.0,0.0,0.0,0.0,0.0,0.0,0.0,0.0,0.0,0.0,0.0,0.0,0.0,0.0,0.0,0.0,0.0,0.0,0.0,0.0,0.0,0.0,0.0,0.0,0.0,0.0,0.0,0.0,0.0,0.0,0.0,0.0,0.0,0.0,0.0,0.0,0.0,0.0,0.0,0.0,0.0,0.0,0.0,0.0,0.0,0.0,0.0,0.0,0.0,0.0,0.0,0.0,0.0,0.0,0.0,0.0,0.0,0.0,0.0,0.0,0.0,0.0,0.0,0.0,0.0,0.0,0.0,0.0,0.0,0.0,0.0,0.0,0.0,0.0,0.0,0.0,-2.5251,-2.5504,-2.5518,-2.5518,-2.5504,-2.4997,-2.473,0.0,0.0,0.0,0.0,0.0,0.0,0.0,0.0,0.0,0.0,0.0,0.0,0.0,0.0,0.0,0.0,0.0,0.0,0.0,0.0,0.0,0.0,0.0,0.0,0.0,0.0,0.0,0.0,0.0,0.0,0.0,0.0,0.0,0.0,0.0,0.0,0.0,0.0,0.0,0.0,0.0,0.0,0.0,0.0,0.0,0.0,0.0,0.0,0.0,0.0,0.0,0.0,0.0,0.0,0.0,0.0,0.0,0.0,0.0,0.0,0.0,0.0,0.0,0.0,0.0,0.0,0.0,0.0,0.0,0.0,0.0,0.0,0.0,0.0,0.0,0.0,0.0,0.0,0.0,0.0,0.0,0.0,0.0,0.0,0.0,0.0,0.0,0.0,0.0,0.0,0.0,0.0,0.0,0.0,0.0,0.0,0.0,0.0,0.0,0.0,0.0,0.0,0.0,0.0,0.0,0.0,0.0,0.0,-2.5451,-2.5504,-2.5518,-2.5518,-2.5518,-2.5398,-2.5317,0.0,0.0,0.0,0.0,0.0,0.0,0.0,0.0,0.0,0.0,0.0,0.0,0.0,0.0,0.0,0.0,0.0,0.0,0.0,0.0,0.0,0.0,0.0,0.0,0.0,0.0,0.0,0.0,0.0,0.0,0.0,0.0,0.0,0.0,0.0,0.0,0.0,0.0,0.0,0.0,0.0,0.0,0.0,0.0,0.0,0.0,0.0,0.0,-3.1158,0.0,0.0,0.0,0.0,0.0,0.0,0.0,0.0,0.0,0.0,0.0,0.0,0.0,0.0,0.0,0.0,0.0,0.0,0.0,0.0,0.0,0.0,0.0,0.0,0.0,0.0,0.0,0.0,0.0,0.0,0.0,0.0,0.0,0.0,0.0,0.0,0.0,0.0,0.0,0.0,0.0,0.0,0.0,0.0,0.0,0.0,0.0,0.0,0.0,0.0,0.0,0.0,0.0,0.0,0.0,0.0,0.0,0.0,0.0,-2.5785,-2.5919,-2.5919,-2.5919,-2.5932,-2.5919,-2.5798,0.0,0.0,0.0,0.0,0.0,0.0,0.0,0.0,0.0,0.0,0.0,0.0,0.0,0.0,0.0,0.0,0.0,0.0,0.0,0.0,0.0,0.0,0.0,0.0,0.0,0.0,0.0,0.0,0.0,0.0,0.0,0.0,0.0,0.0,0.0,0.0,0.0,0.0,0.0,0.0,0.0,0.0,0.0,0.0,0.0,0.0,0.0,0.0,0.0,0.0,0.0,0.0,0.0,0.0,0.0,0.0,0.0,0.0,0.0,0.0,0.0,0.0,0.0,0.0,0.0,0.0,0.0,0.0,0.0,0.0,0.0,0.0,0.0,0.0,0.0,0.0,0.0,0.0,0.0,0.0,0.0,0.0,0.0,0.0,0.0,0.0,0.0,0.0,0.0,0.0,0.0,0.0,0.0,0.0,0.0,0.0,0.0,0.0,0.0,0.0,0.0,0.0,0.0,0.0,0.0,0.0,0.0,-2.6026,-2.6146,-2.6373,-2.64,-2.64,-2.64,-2.64,-2.6159,0.0,0.0,0.0,0.0,0.0,0.0,0.0,0.0,0.0,0.0,0.0,0.0,0.0,0.0,0.0,0.0,0.0,0.0,0.0,0.0,0.0,0.0,0.0,0.0,0.0,0.0,0.0,0.0,0.0,0.0,0.0,0.0,0.0,0.0,0.0,0.0,0.0,0.0,0.0,-2.9536,-2.9986,0.0,0.0,0.0,0.0,0.0,0.0,0.0,0.0,-3.1546,0.0,0.0,0.0,0.0,0.0,0.0,0.0,0.0,0.0,0.0,0.0,0.0,0.0,0.0,0.0,0.0,0.0,0.0,0.0,0.0,0.0,0.0,0.0,0.0,0.0,0.0,0.0,0.0,0.0,0.0,0.0,0.0,0.0,0.0,0.0,0.0,0.0,0.0,0.0,0.0,0.0,0.0,0.0,0.0,0.0,0.0,0.0,0.0,0.0,0.0,0.0,0.0,0.0,0.0,0.0,0.0,-2.6306,-2.6319,-2.6346,-2.6386,-2.64,-2.64,-2.64,-2.64,-2.6346,-2.6253,0.0,0.0,0.0,0.0,0.0,0.0,0.0,0.0,0.0,0.0,0.0,0.0,0.0,0.0,0.0,0.0,0.0,0.0,0.0,0.0,0.0,0.0,0.0,0.0,0.0,0.0,0.0,0.0,0.0,0.0,0.0,0.0,0.0,0.0,0.0,0.0,0.0,0.0,0.0,-2.7598,-2.882,0.0,0.0,0.0,0.0,0.0,0.0,0.0,0.0,-2.6364,0.0,0.0,0.0,0.0,0.0,0.0,0.0,0.0,0.0,0.0,0.0,0.0,0.0,0.0,0.0,0.0,0.0,0.0,0.0,0.0,0.0,0.0,0.0,0.0,0.0,0.0,0.0,0.0,0.0,0.0,0.0,0.0,0.0,0.0,0.0,0.0,0.0,0.0,0.0,0.0,0.0,0.0,0.0,0.0,0.0,0.0,0.0,0.0,0.0,0.0,0.0,0.0,0.0,0.0,0.0,-2.6386,-2.64,-2.64,-2.64,-2.64,-2.64,-2.64,-2.64,-2.64,0.0,0.0,0.0,0.0,0.0,0.0,0.0,0.0,0.0,0.0,0.0,0.0,0.0,0.0,0.0,0.0,0.0,0.0,0.0,0.0,0.0,0.0,0.0,0.0,0.0,0.0,0.0,0.0,0.0,0.0,0.0,0.0,0.0,0.0,0.0,0.0,0.0,0.0,0.0,0.0,-2.6447,-2.7488,-2.8357,0.0,0.0,0.0,0.0,0.0,0.0,-2.9123,-2.9138,0.0,0.0,0.0,0.0,0.0,0.0,0.0,0.0,0.0,0.0,0.0,0.0,0.0,0.0,0.0,0.0,0.0,0.0,0.0,0.0,0.0,0.0,0.0,0.0,0.0,0.0,0.0,0.0,0.0,0.0,0.0,0.0,0.0,0.0,0.0,0.0,0.0,0.0,0.0,0.0,0.0,0.0,0.0,0.0,0.0,0.0,0.0,0.0,0.0,0.0,0.0,0.0,0.0,0.0,0.0,-2.64,-2.64,-2.64,-2.64,-2.64,-2.64,-2.64,-2.64,-2.64,0.0,0.0,0.0,0.0,0.0,0.0,0.0,0.0,0.0,0.0,0.0,0.0,0.0,0.0,0.0,0.0,0.0,0.0,0.0,0.0,0.0,0.0,0.0,0.0,0.0,0.0,0.0,0.0,0.0,0.0,0.0,0.0,0.0,0.0,0.0,0.0,0.0,0.0,0.0,0.0,0.0,-2.6566,-2.7821,-2.852,0.0,0.0,0.0,0.0,-3.1284,-3.1284,0.0,0.0,0.0,0.0,0.0,0.0,0.0,0.0,0.0,0.0,0.0,0.0,0.0,0.0,0.0,0.0,0.0,0.0,0.0,0.0,0.0,0.0,0.0,0.0,0.0,0.0,0.0,0.0,0.0,0.0,0.0,0.0,0.0,0.0,0.0,0.0,0.0,0.0,0.0,0.0,0.0,0.0,0.0,0.0,0.0,0.0,0.0,0.0,0.0,0.0,0.0,0.0,0.0,0.0,0.0,0.0,-2.64,-2.64,-2.64,-2.64,-2.64,-2.64,-2.64,-2.64,-2.64,0.0,0.0,0.0,0.0,0.0,0.0,0.0,0.0,0.0,0.0,0.0,0.0,0.0,0.0,0.0,0.0,0.0,0.0,0.0,0.0,0.0,0.0,0.0,0.0,0.0,0.0,0.0,0.0,0.0,0.0,0.0,0.0,0.0,0.0,0.0,0.0,0.0,0.0,0.0,0.0,0.0,-2.6477,-2.6594,-2.6648,-2.6833,0.0,0.0,0.0,-2.7162,-2.7162,0.0,0.0,0.0,0.0,0.0,0.0,0.0,0.0,0.0,0.0,0.0,0.0,0.0,0.0,0.0,0.0,0.0,0.0,0.0,0.0,0.0,0.0,0.0,0.0,0.0,0.0,0.0,0.0,0.0,0.0,0.0,0.0,0.0,0.0,0.0,0.0,0.0,0.0,0.0,0.0,0.0,0.0,0.0,0.0,0.0,0.0,0.0,0.0,0.0,0.0,0.0,0.0,0.0,0.0,0.0,-2.64,-2.64,-2.64,-2.64,-2.64,-2.64,-2.64,-2.64,-2.64,-2.64,0.0,0.0,0.0,0.0,0.0,0.0,0.0,0.0,0.0,0.0,0.0,0.0,0.0,0.0,0.0,0.0,0.0,0.0,0.0,0.0,0.0,0.0,0.0,0.0,0.0,0.0,0.0,0.0,0.0,0.0,0.0,0.0,0.0,0.0,0.0,0.0,0.0,0.0,0.0,0.0,0.0,0.0,-2.64,-2.64,0.0,0.0,0.0,-2.686,-2.7919,0.0,0.0,0.0,0.0,0.0,0.0,0.0,0.0,0.0,0.0,0.0,0.0,0.0,0.0,0.0,0.0,0.0,0.0,0.0,0.0,0.0,0.0,0.0,0.0,0.0,0.0,0.0,0.0,0.0,0.0,0.0,0.0,0.0,0.0,0.0,0.0,0.0,0.0,0.0,0.0,0.0,0.0,0.0,0.0,0.0,0.0,0.0,0.0,0.0,0.0,0.0,0.0,0.0,0.0,0.0,0.0,0.0,-2.64,-2.64,-2.64,-2.64,-2.64,-2.64,-2.64,-2.64,0.0,0.0,0.0,0.0,0.0,0.0,0.0,0.0,0.0,0.0,0.0,0.0,0.0,0.0,0.0,0.0,0.0,0.0,0.0,0.0,0.0,0.0,0.0,0.0,0.0,0.0,0.0,-2.5518,0.0,0.0,0.0,0.0,0.0,0.0,0.0,0.0,0.0,0.0,0.0,0.0,0.0,0.0,-2.64,-2.64,-2.64,-2.7004,0.0,0.0,-2.7004,-2.8374,-2.8686,-2.8686,0.0,0.0,0.0,0.0,0.0,0.0,0.0,0.0,0.0,0.0,0.0,0.0,0.0,0.0,0.0,0.0,0.0,0.0,0.0,0.0,0.0,0.0,0.0,0.0,0.0,0.0,0.0,0.0,0.0,0.0,0.0,0.0,0.0,0.0,0.0,0.0,0.0,0.0,0.0,0.0,0.0,0.0,0.0,0.0,0.0,0.0,0.0,0.0,0.0,0.0,0.0,0.0,0.0,0.0,0.0,-2.64,-2.64,-2.64,-2.64,-2.64,-2.64,-2.64,-2.64,-2.64,0.0,0.0,0.0,0.0,0.0,0.0,0.0,0.0,0.0,0.0,0.0,0.0,0.0,0.0,0.0,0.0,0.0,0.0,0.0,0.0,0.0,0.0,0.0,0.0,0.0,0.0,0.0,0.0,0.0,0.0,0.0,0.0,0.0,0.0,0.0,0.0,0.0,0.0,0.0,0.0,0.0,-2.64,-2.64,-2.64,-2.6386,0.0,0.0,-2.6386,-2.6544,-2.6702,-2.6544,-2.6544,0.0,0.0,0.0,0.0,0.0,0.0,0.0,0.0,0.0,0.0,0.0,0.0,0.0,0.0,0.0,0.0,0.0,0.0,0.0,0.0,0.0,0.0,0.0,0.0,0.0,0.0,0.0,0.0,0.0,0.0,0.0,0.0,0.0,0.0,0.0,0.0,0.0,0.0,0.0,0.0,0.0,0.0,0.0,0.0,0.0,0.0,0.0,0.0,0.0,0.0,0.0,0.0,0.0,-2.64,-2.64,-2.64,-2.64,-2.64,-2.64,-2.64,-2.64,-2.64,-2.64,0.0,0.0,0.0,0.0,0.0,0.0,0.0,0.0,0.0,0.0,0.0,0.0,0.0,0.0,0.0,0.0,0.0,0.0,0.0,0.0,0.0,0.0,0.0,0.0,0.0,0.0,0.0,0.0,-2.6159,-2.6226,-2.6226,0.0,0.0,0.0,0.0,0.0,0.0,0.0,0.0,0.0,0.0,-2.64,-2.64,-2.64,0.0,0.0,-2.64,-2.64,-2.64,-2.64,-2.64,-2.64,-2.64,0.0,0.0,0.0,0.0,0.0,0.0,0.0,0.0,0.0,0.0,0.0,0.0,0.0,0.0,0.0,0.0,0.0,0.0,0.0,0.0,0.0,0.0,0.0,0.0,0.0,0.0,0.0,0.0,0.0,0.0,0.0,0.0,0.0,0.0,0.0,0.0,0.0,0.0,0.0,0.0,0.0,0.0,0.0,0.0,0.0,0.0,0.0,0.0,0.0,0.0,0.0,0.0,-2.64,-2.64,-2.64,-2.64,-2.64,-2.64,-2.64,-2.64,-2.64,-2.64,0.0,0.0,0.0,0.0,0.0,0.0,0.0,0.0,0.0,0.0,0.0,0.0,0.0,0.0,0.0,0.0,0.0,0.0,0.0,0.0,0.0,0.0,0.0,0.0,0.0,0.0,0.0,0.0,-2.64,-2.64,-2.64,0.0,0.0,0.0,0.0,0.0,0.0,0.0,0.0,0.0,0.0,-2.64,-2.64,-2.64,-2.64,-2.64,-2.64,-2.64,-2.64,-2.64,-2.64,-2.64,0.0,0.0,0.0,0.0,0.0,0.0,0.0,0.0,0.0,0.0,0.0,0.0,0.0,0.0,0.0,0.0,0.0,0.0,0.0,0.0,0.0,0.0,0.0,0.0,0.0,0.0,0.0,0.0,0.0,0.0,0.0,0.0,0.0,0.0,0.0,0.0,0.0,0.0,0.0,0.0,0.0,0.0,0.0,0.0,0.0,0.0,0.0,0.0,0.0,0.0,0.0,0.0,0.0,0.0,-2.64,-2.64,-2.64,-2.64,-2.64,-2.64,-2.6413,-2.64,-2.64,-2.6413,0.0,0.0,0.0,0.0,0.0,0.0,0.0,0.0,0.0,0.0,0.0,0.0,0.0,0.0,0.0,0.0,0.0,0.0,0.0,0.0,0.0,0.0,0.0,0.0,0.0,0.0,-2.64,-2.64,-2.64,0.0,0.0,0.0,0.0,0.0,0.0,0.0,0.0,0.0,0.0,-2.64,-2.64,-2.64,-2.64,-2.64,-2.64,-2.64,-2.64,-2.64,-2.64,-2.64,0.0,0.0,0.0,0.0,0.0,0.0,0.0,0.0,0.0,0.0,0.0,0.0,0.0,0.0,0.0,0.0,0.0,0.0,0.0,0.0,0.0,0.0,0.0,0.0,0.0,0.0,0.0,0.0,0.0,0.0,0.0,0.0,0.0,0.0,0.0,0.0,0.0,0.0,0.0,0.0,-2.64,-2.64,0.0,0.0,0.0,0.0,0.0,0.0,0.0,0.0,0.0,0.0,0.0,0.0,-2.64,-2.64,-2.64,-2.648,-2.6667,-2.668,-2.6774,-2.6961,-2.6974,-2.6974,-2.6974,0.0,0.0,0.0,0.0,0.0,0.0,0.0,0.0,0.0,0.0,0.0,0.0,0.0,0.0,0.0,0.0,0.0,0.0,0.0,0.0,0.0,0.0,0.0,0.0,0.0,-2.64,0.0,0.0,0.0,0.0,0.0,0.0,0.0,0.0,0.0,0.0,0.0,-2.7919,-2.6544,-2.64,-2.64,-2.64,-2.64,-2.64,0.0,0.0,0.0,0.0,0.0,0.0,0.0,0.0,0.0,0.0,0.0,0.0,0.0,0.0,-2.64,-2.64,-2.64,-2.64,-2.64,0.0,0.0,0.0,0.0,0.0,0.0,0.0,0.0,0.0,0.0,0.0,0.0,0.0,0.0,0.0,0.0,-2.64,0.0,0.0,0.0,0.0,0.0,0.0,0.0,0.0,-2.64,-2.64,-2.64,-2.64,-2.644,0.0,-2.6547,-2.6587,0.0,0.0,0.0,0.0,0.0,0.0,0.0,0.0,-2.6587,-2.668,-2.6694,-2.6787,-2.6974,-2.6974,-2.7068,-2.7255,-2.7268,-2.7268,-2.7268,-2.7081,-2.6974,0.0,0.0,0.0,0.0,0.0,0.0,0.0,0.0,0.0,0.0,0.0,0.0,0.0,0.0,0.0,0.0,0.0,0.0,0.0,0.0,0.0,0.0,0.0,-2.64,0.0,0.0,0.0,0.0,0.0,0.0,0.0,0.0,0.0,-2.64,-2.7619,-2.7919,-2.6544,-2.64,-2.64,-2.64,0.0,0.0,0.0,0.0,0.0,0.0,0.0,-2.64,-2.64,-2.64,-2.64,-2.64,-2.64,-2.64,-2.64,0.0,0.0,-2.64,-2.64,-2.64,-2.64,-2.64,-2.64,-2.64,-2.64,-2.64,0.0,0.0,0.0,0.0,0.0,0.0,0.0,0.0,-2.64,-2.64,0.0,-2.64,0.0,0.0,0.0,0.0,0.0,0.0,0.0,0.0,-2.644,-2.6413,-2.6426,-2.6426,-2.6573,-2.6827,-2.6841,-2.6974,-2.7215,-2.6694,0.0,0.0,0.0,0.0,0.0,0.0,-2.6974,-2.7241,-2.7241,-2.7268,-2.7281,-2.7281,-2.7281,-2.7308,-2.7308,-2.7308,-2.7295,-2.7295,-2.7281,-2.7281,-2.7268,0.0,0.0,0.0,0.0,0.0,0.0,0.0,0.0,0.0,0.0,0.0,0.0,0.0,0.0,0.0,0.0,0.0,0.0,0.0,0.0,-2.64,0.0,0.0,0.0,0.0,0.0,0.0,0.0,0.0,0.0,0.0,-2.64,-2.6386,-2.6386,-2.6386,0.0,0.0,0.0,0.0,-2.64,-2.64,-2.64,-2.64,-2.64,-2.6413,-2.6413,-2.6426,0.0,0.0,-2.6426,-2.6426,-2.644,-2.6426,-2.6453,-2.6413,-2.644,-2.6413,-2.64,-2.64,-2.64,-2.64,-2.6413,-2.644,-2.644,-2.1513,0.0,0.0,0.0,0.0,-2.574,-2.64,-2.64,-2.64,-2.64,-2.64,-2.64,0.0,0.0,0.0,0.0,0.0,0.0,-2.7014,-2.7014,-2.7014,-2.7014,-2.7014,-2.7014,-2.7054,-2.7134,-2.7148,-2.7175,-2.7255,-2.7094,-2.7014,-2.7014,0.0,0.0,0.0,0.0,-2.7175,-2.7255,-2.7268,-2.7375,-2.7562,-2.7575,-2.7682,-2.7896,-2.7896,-2.7896,-2.7883,-2.7696,-2.7575,-2.7575,-2.7375,0.0,0.0,0.0,0.0,0.0,0.0,0.0,0.0,0.0,0.0,0.0,0.0,0.0,0.0,0.0,0.0,0.0,0.0,0.0,-2.64,-2.64,-2.64,0.0,0.0,0.0,0.0,0.0,0.0,0.0,0.0,0.0,-2.64,-2.64,-2.64,0.0,0.0,-2.64,-2.64,-2.64,-2.64,-2.64,0.0,0.0,0.0,-2.6694,-2.6774,-2.6974,-2.7014,-2.7014,-2.7014,-2.7014,-2.7014,-2.7014,-2.7014,-2.7014,-2.6987,-2.6667,-2.6426,-2.64,-2.64,-2.6466,-2.6653,-2.6694,-2.676,-2.0116,-1.9183,-2.3121,-2.4765,-2.4926,-2.6239,-2.6734,-2.6734,-2.6734,-2.6734,-2.6734,-2.6734,-2.6827,-2.7001,-2.7001,0.0,0.0,0.0,-2.7268,-2.7268,-2.7268,-2.7268,-2.7268,-2.7268,-2.7321,-2.7428,-2.7442,-2.7495,-2.7615,-2.7615,-2.7615,-2.7602,0.0,0.0,-2.7442,-2.7442,-2.7495,-2.7602,-2.7615,-2.7762,-2.8056,-2.8177,-2.8323,-2.8484,-2.839,-2.8323,-2.8323,-2.803,-2.7869,-2.7869,-2.7709,-2.7615,0.0,0.0,0.0,0.0,0.0,0.0,0.0,0.0,0.0,0.0,0.0,-2.64,-2.64,0.0,0.0,0.0,-2.64,-2.64,-2.64,-2.64,0.0,0.0,0.0,0.0,0.0,0.0,0.0,-2.64,-2.64,-2.64,-2.64,-2.6493,-2.652,-2.6413,-2.64,-2.6426,-2.6547,0.0,-2.66,-2.672,-2.6734,-2.68,-2.6974,-2.7001,-2.7054,-2.7228,-2.7268,-2.7268,-2.7268,-2.7268,-2.7268,-2.7268,-2.7268,-2.7268,-2.7268,-2.6974,-2.6734,-2.6734,-2.6734,-2.68,-2.6974,-2.7001,-2.7054,-1.8086,-1.8762,-2.4802,-2.7131,-2.7091,-2.7268,-2.7268,-2.7268,-2.7255,-2.7268,-2.7268,-2.7268,-2.7281,-2.7295,-2.7335,0.0,0.0,-2.7335,-2.7348,-2.7335,-2.7335,-2.7335,-2.7335,-2.7348,-2.7482,-2.7736,-2.7736,-2.7869,-2.8123,-2.8163,-2.8177,-2.8163,-2.7669,-2.7535,-2.7762,-2.7776,-2.7923,-2.8203,-2.8217,-2.835,-2.8644,-2.8898,-2.9045,-2.9032,-2.8778,-2.8644,-2.8631,-2.8364,-2.8217,-2.8217,-2.819,-2.8177,-2.8177,0.0,0.0,0.0,0.0,0.0,0.0,0.0,0.0,0.0,0.0,0.0,0.0,0.0,0.0,0.0,-2.6453,0.0,-2.6426,-2.6426,0.0,0.0,0.0,-2.6426,-2.6426,-2.6453,-2.6466,-2.6453,0.0,0.0,0.0,0.0,-2.676,-2.6493,-2.6453,-2.656,-2.6827,-2.6854,-2.6961,-2.7188,-2.7255,-2.7268,-2.7295,-2.7335,-2.7375,-2.7388,-2.7335,-2.7362,-2.7375,-2.7362,-2.7348,-2.7375,-2.7335,-2.7348,-2.7348,-2.7348,-2.7335,-2.7335,-2.7281,-2.7255,-2.7295,-2.7295,-2.7321,-2.5334,-2.5687,-2.7407,-2.6825,-2.4918,-2.6587,-2.7268,-2.7268,-2.7268,-2.7268,-2.7268,-2.7268,-2.7388,-2.7615,-2.7829,-2.7936,-2.7936,-2.7936,-2.7936,-2.7936,-2.7936,-2.7936,-2.7936,-2.7936,-2.7963,-2.803,-2.8043,-2.807,-2.815,-2.839,-2.8497,-2.8497,-2.8577,-2.8537,-2.839,-2.839,-2.8537,-2.8818,-2.8818,-2.8871,-2.8925,-2.9005,-2.9045,-2.9045,-2.8978,-2.8938,-2.8938,-2.8871,-2.8831,-2.8818,-2.8617,-2.8497,-2.8497,-2.8203,0.0,0.0,0.0,0.0,0.0,0.0,0.0,0.0,0.0,-2.7054,-2.7054,0.0,-2.7054,0.0,-2.7068,-2.6961,-2.6747,-2.672,0.0,0.0,-2.6587,-2.672,-2.672,-2.6921,-2.7054,-2.7054,-2.7054,-2.7054,-2.7054,-2.7121,-2.7134,-2.7068,-2.7054,-2.7081,-2.7148,-2.7161,-2.7188,-2.7255,-2.7281,-2.7348,-2.7575,-2.7789,-2.7909,-2.7936,-2.7936,-2.7936,-2.7936,-2.7936,-2.7936,-2.7936,-2.7936,-2.7936,-2.7923,-2.7936,-2.7923,-2.7896,-2.7589,-2.7335,-2.7549,-2.7602,-2.7669,-2.5579,-2.6588,-2.6588,-2.6398,-2.5954,-2.7144,-2.7655,-2.7655,-2.7655,-2.7655,-2.7655,-2.7655,-2.7749,-2.7909,-2.807,-2.815,-2.815,-2.815,-2.815,-2.815,-2.815,-2.8217,-2.835,-2.835,-2.8417,-2.8537,-2.8537,-2.8537,-2.8551,-2.8711,-2.8791,-2.8804,-2.8965,-2.9032,-2.8991,-2.8858,-2.8885,-2.9032,-2.9165,-2.9232,-2.9245,-2.9366,-2.9486,-2.9606,-2.9366,-2.9299,-2.9419,-2.9179,-2.9045,-2.9032,-2.8885,-2.8791,-2.8804,-2.8631,-2.8484,0.0,0.0,0.0,0.0,0.0,0.0,0.0,0.0,0.0,0.0,0.0,-2.7268,0.0,-2.7268,0.0,-2.7041,-2.7014,-2.6961,-2.68,-2.6921,-2.7014,-2.7014,-2.7161,-2.7268,-2.7268,-2.7268,-2.7268,-2.7268,-2.7388,-2.7455,-2.7468,-2.7575,-2.7602,-2.7482,-2.7455,-2.7495,-2.7629,-2.7655,-2.7709,-2.7883,-2.803,-2.815,-2.815,-2.815,-2.815,-2.815,-2.815,-2.815,-2.815,-2.815,-2.815,-2.815,-2.815,-2.815,-2.8096,-2.7883,-2.7736,-2.7869,-2.7896,-2.7963,-2.3053,-2.5311,-2.5311,-2.6348,-2.8257,-2.8257,-2.8217,-2.815,-2.815,-2.815,-2.815,-2.8177,-2.8203,-2.8203,-2.8243,-2.8257,-2.8257,-2.8257,-2.8257,-2.8257,-2.8257,-2.8404,-2.8657,-2.8657,-2.8791,-2.9032,-2.9045,-2.9045,-2.9045,-2.9112,-2.9152,-2.9152,-2.9219,-2.9392,-2.9633,-2.9392,-2.9259,-2.9272,-2.9513,-2.9646,-2.9646,-2.99,-3.0154,-3.0381,-2.9927,-2.9766,-3.0007,-2.9539,-2.9259,-2.9259,-2.9192,-2.9152,-2.9152,-2.9085,-2.8925,0.0,-2.8657,0.0,0.0,0.0,0.0,0.0,0.0,0.0,0.0,-2.7375,-2.7375,-2.7375,-2.7375,-2.7362,-2.7321,-2.7321,-2.7308,-2.7268,-2.7308,-2.7321,-2.7321,-2.7348,-2.7375,-2.7388,-2.7375,-2.7375,-2.7415,-2.7602,-2.7749,-2.7776,-2.7949,-2.803,-2.7869,-2.7789,-2.7843,-2.811,-2.8177,-2.8177,-2.8203,-2.8243,-2.8297,-2.8283,-2.831,-2.8257,-2.8283,-2.8283,-2.827,-2.8283,-2.8297,-2.827,-2.8217,-2.8217,-2.819,-2.8163,-2.811,-2.8096,-2.8123,-2.811,-2.815,-2.6025,-2.8165,-2.8165,-2.8512,-2.8871,-2.8871,-2.8591,-2.815,-2.815,-2.815,-2.8163,-2.8404,-2.8524,-2.8537,-2.8764,-2.8871,-2.8871,-2.8871,-2.8871,-2.8871,-2.8871,-2.8898,-2.8951,-2.8965,-2.8991,-2.9032,-2.9045,-2.9045,-2.9045,-2.9513,-2.9753,-2.9766,-3.0234,-3.0488,0.0,0.0,0.0,0.0,-3.0515,-3.0541,-3.0541,-3.0595,-3.0648,-3.0702,-3.0608,0.0,-3.0621,-3.0528,-3.0461,-3.0448,-3.0007,0.0,0.0,0.0,0.0,0.0,0.0,0.0,0.0,0.0,0.0,0.0,-2.8524,-2.8243,-2.8003,-2.7976,-2.7976,-2.7976,-2.7976,-2.7883,-2.7642,-2.7615,-2.7522,-2.7308,-2.7482,-2.7615,-2.7629,-2.7829,-2.7976,-2.7976,-2.7976,-2.7976,-2.7963,-2.803,-2.8056,-2.8056,-2.811,-2.823,-2.8417,-2.8217,-2.8083,-2.815,-2.8377,-2.8511,-2.8524,-2.8698,-2.8818,-2.8871,-2.8871,-2.8858,-2.8831,-2.8845,-2.8858,-2.8845,-2.8871,-2.8778,-2.8564,-2.8511,-2.8444,-2.819,-2.815,-2.815,-2.815,-2.815,-2.815,-2.7972,0.0,-2.9045,-2.9045,0.0,-2.9045,-2.8871,-2.8591,-2.8591,-2.8591,-2.8591,-2.8751,-2.8818,-2.8831,-2.8978,-2.9045,-2.9045,-2.9045,-2.9045,-2.9045,-2.9045,-2.9192,-2.9472,-2.9472,-2.9619,-2.99,-2.99,-2.99,-2.9927,-3.0207,-3.0341,-3.0354,-3.0648,-3.0795,-3.0795,-3.0929,-3.0929,-3.0795,-3.0795,-3.0795,-3.0795,-3.0795,-3.0862,-3.0996,0.0,0.0,0.0,0.0,0.0,0.0,0.0,0.0,0.0,0.0,0.0,-2.9499,-2.9472,-2.9339,-2.9072,-2.9045,-2.9045,-2.9045,-2.8898,-2.8631,-2.8177,-2.815,-2.815,-2.815,-2.815,-2.8083,-2.7936,-2.7923,-2.7856,-2.7722,-2.7829,-2.7923,-2.7936,-2.8043,-2.8136,-2.815,-2.815,-2.815,-2.815,-2.8283,-2.8364,-2.839,-2.8511,-2.8631,-2.8764,-2.8564,-2.8417,-2.8564,-2.8698,-2.8818,-2.8831,-2.8925,-2.9045,-2.9045,-2.9045,-2.9045,-2.9045,-2.9045,-2.9045,-2.9045,-2.9045,-2.8978,-2.8871,-2.8818,-2.8778,-2.8631,-2.8577,-2.8591,-2.8577,-2.847,-2.8377,-2.8445,-2.9176,-2.8811,-2.8987,-2.9352,-2.9352,-2.9352,-2.9339,0.0,0.0,0.0,-2.9152,-2.9192,-2.9205,-2.9299,-2.9352,-2.9352,-2.9352,-2.9352,-2.9352,-2.9352,-2.9606,-3.006,-3.006,-3.0327,-3.0782,-3.0795,-3.0795,-3.0795,-3.0849,-3.0875,-3.0875,-3.0915,-3.0942,-3.0969,-3.1183,-3.1183,-3.0969,-3.0942,-3.0942,-3.0955,-3.0955,-3.1062,-3.1289,-3.1076,-3.1062,-3.1289,-3.1076,-3.0955,-3.0955,-3.0902,-3.0875,-3.0862,-3.0822,-3.0581,-3.0114,-3.0074,-2.986,-2.9392,-2.9352,-2.9299,-2.9205,-2.9192,-2.8938,-2.835,-2.8297,-2.8297,-2.8297,-2.8297,-2.8297,-2.8297,-2.8297,-2.8297,-2.831,-2.8297,-2.831,-2.831,-2.8297,-2.8337,-2.8297,-2.8323,-2.831,-2.8337,-2.8537,-2.8684,-2.8711,-2.8858,-2.9072,-2.9072,-2.8871,-2.8751,-2.8938,-2.9045,-2.9125,-2.9125,-2.9192,-2.9192,-2.9245,-2.9232,-2.9192,-2.9192,-2.9192,-2.9192,-2.9245,-2.9192,-2.9179,-2.9138,-2.9125,-2.9098,-2.9045,-2.9045,-2.9045,-2.9018,-2.8898,-2.8764,-2.6573,-3.0358,-2.8088,-2.8469,-3.0541,-3.0541,-3.0541,-3.0461,-2.9472,-2.9045,-2.9072,-2.9566,-2.9793,-2.982,-3.0314,-3.0555,-3.0541,-3.0541,-3.0541,0.0,-3.0555,-3.0581,-3.0662,-3.0675,-3.0715,-3.0782,-3.0795,-3.0795,-3.0822,-3.1049,-3.1169,-3.1196,-3.1423,-3.1543,-3.1557,-3.1583,-3.1583,-3.1543,-3.1543,-3.1543,-3.1543,-3.1557,-3.157,-3.1597,-3.157,-3.1557,-3.161,-3.1557,-3.1543,-3.1543,-3.1303,-3.1169,-3.1156,-3.0929,-3.0755,-3.0675,-3.0675,-3.0635,-3.0555,-3.0555,-3.0327,-2.9847,-2.9793,-2.9539,-2.8978,-2.8911,-2.8911,-2.8911,-2.8885,-2.8911,-2.8911,-2.8898,-2.8871,-2.8898,-2.8898,-2.8911,-2.8885,-2.8885,-2.8871,-2.8871,-2.8911,-2.8885,-2.8871,-2.8938,-2.8978,-2.8991,-2.9072,-2.9152,-2.9325,-2.9165,-2.9005,-2.9058,-2.9259,-2.9392,-2.9432,-2.9633,-2.9713,-2.9793,-2.9753,-2.9726,-2.9713,-2.9713,-2.9713,-2.9766,-2.9726,-2.9659,-2.9472,-2.9419,-2.9339,-2.9165,-2.9112,-2.9098,-2.9112,-2.9219,-2.9259,-2.5285,-2.831,-2.7366,-2.831,-3.0795,-3.0795,-3.0795,-3.0742,-3.0221,-2.9993,-3.002,-3.0274,-3.0394,-3.0408,-3.0675,-3.0795,-3.0795,-3.0795,-3.0795,-3.0795,-3.0795,-3.0875,-3.1022,-3.1022,-3.1116,-3.1263,-3.1263,-3.1276,-3.1289,-3.141,-3.1463,-3.1476,-3.161,-3.1677,-3.1677,-3.1677,-3.1677,-3.1677,-3.1677,-3.1677,-3.1677,-3.1677,-3.1677,-3.1677,-3.1677,-3.1677,-3.1677,-3.1677,-3.1677,-3.1677,-3.1543,-3.1463,-3.1463,-3.1343,-3.1196,-3.1036,-3.1022,-3.0955,-3.0795,-3.0795,-3.0675,-3.0421,-3.0394,-3.0287,-3.002,-2.9406,-2.9045,-2.9045,-2.9045,-2.9045,-2.9045,-2.9045,-2.9045,-2.9045,-2.9045,-2.9045,-2.9045,-2.9045,-2.9045,-2.9045,-2.9045,-2.9045,-2.9045,-2.9179,-2.9285,-2.9285,-2.9392,-2.9566,-2.9713,-2.9753,-2.9686,-2.9566,-2.9633,-2.97,-2.9726,-2.9806,-2.99,-2.9913,-2.9913,-2.9913,-2.9913,-2.9913,-2.9927,-2.9913,-2.9913,-2.986,-2.9726,-2.9713,-2.9646,-2.9579,-2.9513,-2.9513,-2.9539,-2.9633,-2.9659,-2.5639,-2.792,-2.7357,-2.8694,-3.0982,-3.0996,-3.0982,-3.0996,-3.0996,-3.0996,-3.0982,-3.0929,-3.0889,-3.0902,-3.0955,-3.0996,-3.0982,-3.0996,-3.0996,-3.0996,-3.0996,-3.1102,-3.1303,-3.133,-3.145,-3.165,-3.1677,-3.1677,-3.1677,-3.1677,-3.1677,-3.1677,-3.1677,-3.1677,-3.1677,-3.1677,-3.1704,-3.1757,-3.177,-3.173,-3.1677,-3.1677,-3.1677,-3.1677,-3.1677,-3.1677,-3.1677,-3.1677,-3.1677,-3.1677,-3.1677,-3.1677,-3.1677,-3.1677,-3.157,-3.1356,-3.133,-3.1236,-3.1022,-3.0996,-3.0969,-3.0902,-3.0889,-3.0862,-3.0728,-2.9967,-2.9432,-2.9432,-2.9486,-2.9472,-2.9486,-2.9392,-2.9339,-2.9339,-2.9272,-2.9272,-2.9245,-2.9245,-2.9232,-2.9232,-2.9245,-2.9259,-2.9285,-2.9499,-2.9713,-2.9833,-2.998,-3.01,-3.014,-3.0327,-3.0341,-3.0207,-3.0114,-3.0127,-3.0114,-3.0127,-3.014,-3.0114,-3.014,-3.0167,-3.0154,-3.014,-3.0127,-3.0154,-3.014,-3.0154,-3.0127,-3.0127,-3.0127,-3.0114,-3.0114,-3.0114,-3.0114,-3.0127,-3.0047,-2.8857,-3.0622,-2.8654,-2.9251,-3.157,-3.157,-3.157,-3.157,-3.1583,-3.1583,-3.153,-3.1303,-3.1183,-3.1223,-3.145,-3.1557,-3.157,-3.1583,-3.157,-3.157,-3.1597,-3.1597,-3.161,-3.1623,-3.165,-3.1677,-3.1677,-3.1677,-3.1677,-3.1677,-3.1677,-3.1677,-3.1677,-3.169,-3.169,-3.169,-3.181,-3.2051,-3.2064,-3.1931,-3.169,-3.1677,-3.1677,-3.1677,-3.1677,-3.1677,-3.1704,-3.1677,-3.1677,-3.1677,-3.1677,-3.1677,-3.1677,-3.1677,-3.165,-3.1623,-3.1623,-3.161,-3.1583,-3.1583,-3.145,-3.1223,-3.1183,-3.1089,-3.0849,-3.0702,-3.0621,-3.0595,-3.0608,-3.0528,-3.0608,-3.0354,-3.0181,-3.014,-2.9967,-2.9833,-2.9833,-2.9833,-2.9833,-2.9833,-2.9833,-2.9847,-2.9873,-3.0074,-3.0341,-3.0501,-3.0555,-3.0608,-3.0621,-3.0688,-3.0755,-3.0702,-3.0702,-3.0688,-3.0662,-3.0702,-3.0635,-3.0662,-3.0688,-3.0648,-3.0608,-3.0635,-3.0702,-3.0541,-3.0635,-3.0621,-3.0648,-3.0702,-3.0662,-3.0581,-3.0608,-3.0675,-3.0702,-3.0662,-3.0488,-2.6999,-2.9326,-2.8176,-2.9326,-3.1474,-3.1677,-3.1677,-3.1677,-3.1677,-3.1677,-3.1664,-3.1543,-3.149,-3.1503,-3.161,-3.1677,-3.1677,-3.1677,-3.1677,-3.1677,-3.1677,-3.1677,-3.1677,-3.1677,-3.1677,-3.1677,-3.1677,-3.1677,-3.1704,-3.1837,-3.1931,-3.1944,-3.2104,-3.2185,-3.2185,-3.2185,-3.2251,-3.2358,-3.2358,-3.2305,-3.2198,-3.2185,-3.2185,-3.2185,-3.2185,-3.2185,-3.2185,-3.2185,-3.2104,-3.1944,-3.1917,-3.1851,-3.1677,-3.1677,-3.1677,-3.1677,-3.1677,-3.1677,-3.1677,-3.1677,-3.1623,-3.1503,-3.149,-3.1436,-3.133,-3.1316,-3.1303,-3.1276,-3.0996,-3.0795,-3.0795,-3.0688,-3.0621,-3.0608,-3.0501,-3.0421,-3.0434,-3.0421,-3.0434,-3.0434,-3.0434,-3.0421,-3.0448,-3.0541,-3.0662,-3.0768,-3.0795,-3.0822,-3.0808,-3.0942,-3.1049,-3.1076,-3.1183,-3.1129,-3.0902,-3.0795,-3.0795,-3.0795,-3.0795,-3.0795,-3.0822,-3.0795,-3.0782,-3.0808,-3.0835,-3.0835,-3.0755,-3.0795,-3.0795,-3.0822,-3.0795,-3.0795,-3.0795,-3.0795,-3.0648,-2.6023,-2.7588,-2.778,-2.8943,-3.0687,-3.1474,-3.1677,-3.1677,-3.1677,-3.1677,-3.1677,-3.1677,-3.1677,-3.1677,-3.1677,-3.1677,-3.1677,-3.1677,-3.1677,-3.1677,-3.1677,-3.1677,-3.1677,-3.1677,-3.1717,-3.1784,-3.1797,-3.1837,-3.1917,-3.2104,-3.2225,-3.2251,-3.2438,-3.2545,-3.2545,-3.2545,-3.2585,-3.2652,-3.2666,-3.2706,-3.2772,-3.2786,-3.2706,-3.2572,-3.2545,-3.2545,-3.2545,-3.2545,-3.2452,-3.2238,-3.2225,-3.2131,-3.1931,-3.1904,-3.1877,-3.1797,-3.1784,-3.1757,-3.1677,-3.1677,-3.1677,-3.1677,-3.1677,-3.1677,-3.1677,-3.1677,-3.1677,-3.1637,-3.1276,-3.1049,-3.1036,-3.0955,-3.0915,-3.0915,-3.0849,-3.0795,-3.0782,-3.0795,-3.0768,-3.0795,-3.0742,-3.0835,-3.0889,-3.0915,-3.0942,-3.1049,-3.1062,-3.1036,-3.1049,-3.1223,-3.1343,-3.1356,-3.153,-3.1476,-3.1116,-3.1076,-3.1036,-3.1036,-3.1076,-3.1089,-3.1036,-3.1036,-3.1036,-3.1196,-3.1076,-3.1049,-3.1142,-3.1089,-3.1022,-3.1022,-3.1022,-3.1036,-3.1116,-3.1049,-3.1049,-2.778,-2.7792,-2.778,-2.7803,-2.8176,-3.0522,-3.169,-3.173,-3.1704,-3.169,-3.1717,-3.1704,-3.169,-3.1704,-3.173,-3.1677,-3.1677,-3.169,-3.1704,-3.1704,-3.1704,-3.169,-3.1677,-3.1677,-3.1824,-3.2064,-3.2078,-3.2211,-3.2452,-3.2505,-3.2532,-3.2532,-3.2585,-3.2572,-3.2585,-3.2599,-3.2692,-3.2933,-3.2959,-3.308,-3.3307,-3.3347,-3.308,-3.2652,-3.2559,-3.2585,-3.2572,-3.2559,-3.2545,-3.2532,-3.2532,-3.2505,-3.2492,-3.2478,-3.2345,-3.2118,-3.2091,-3.1971,-3.1744,-3.1704,-3.169,-3.1677,-3.1677,-3.1677,-3.1677,-3.1677,-3.1677,-3.1677,-3.161,-3.157,-3.1543,-3.133,-3.1209,-3.1196,-3.0969,-3.0862,-3.0822,-3.0889,-3.0808,-3.0835,-3.0875,-3.0982,-3.1183,-3.1209,-3.1316,-3.149,-3.1597,-3.1583,-3.1543,-3.1597,-3.161,-3.161,-3.165,-3.165,-3.1623,-3.149,-3.153,-3.1517,-3.1436,-3.1557,-3.161,-3.1637,-3.1597,-3.1583,-3.1517,-3.1503,-3.1597,-3.1597,-3.1543,-3.1517,-3.149,-3.1503,-3.141,-3.157,-3.1543,-2.5334,-2.5463,-2.5473,-2.6538,-2.825,-2.9238,-3.0636,-3.2225,-3.2238,-3.2225,-3.2225,-3.2238,-3.2225,-3.2238,-3.2225,-3.2024,-3.1717,-3.1864,-3.1944,-3.1971,-3.2144,-3.2225,-3.2238,-3.2238,-3.2278,-3.2372,-3.2385,-3.2438,-3.2559,-3.2732,-3.2826,-3.2866,-3.3013,-3.3106,-3.3106,-3.3106,-3.316,-3.324,-3.3253,-3.3307,-3.34,-3.3414,-3.3293,-3.312,-3.3093,-3.3093,-3.3093,-3.3106,-3.3013,-3.2839,-3.2826,-3.2746,-3.2572,-3.2545,-3.2505,-3.2412,-3.2385,-3.2345,-3.2225,-3.2051,-3.1944,-3.1931,-3.177,-3.169,-3.1677,-3.1677,-3.1677,-3.1677,-3.1677,-3.1677,-3.1664,-3.157,-3.1517,-3.149,-3.1423,-3.133,-3.1356,-3.1356,-3.1356,-3.1356,-3.1356,-3.141,-3.145,-3.1503,-3.1543,-3.165,-3.1677,-3.1677,-3.1677,-3.1677,-3.1677,-3.1677,-3.1677,-3.1677,-3.1677,-3.1664,-3.1664,-3.1664,-3.165,-3.1637,-3.1664,-3.1664,-3.1623,-3.1623,-3.1664,-3.1677,-3.165,-3.165,-3.1677,-3.1677,-3.1677,-3.1677,-3.1664,-3.1677,-3.1677,-2.3197,-2.213,-2.4523,-2.6189,-2.7322,-2.9123,-3.0733,-3.2545,-3.2545,-3.2545,-3.2545,-3.2545,-3.2545,-3.2545,-3.2545,-3.2345,-3.1998,-3.2158,-3.2238,-3.2265,-3.2452,-3.2545,-3.2545,-3.2545,-3.2599,-3.2692,-3.2786,-3.2826,-3.2839,-3.3026,-3.312,-3.3133,-3.332,-3.3414,-3.3414,-3.3414,-3.3414,-3.3414,-3.3414,-3.3414,-3.3414,-3.3414,-3.3414,-3.3414,-3.3414,-3.3414,-3.3414,-3.3414,-3.3334,-3.3146,-3.312,-3.3026,-3.2853,-3.2826,-3.2786,-3.2706,-3.2692,-3.2639,-3.2545,-3.2358,-3.2251,-3.2238,-3.2078,-3.1931,-3.1824,-3.181,-3.177,-3.1704,-3.1677,-3.1677,-3.1677,-3.1664,-3.1677,-3.1677,-3.1677,-3.1677,-3.1677,-3.1664,-3.165,-3.1637,-3.1637,-3.165,-3.1677,-3.1664,-3.1664,-3.1677,-3.1677,-3.1677,-3.1677,-3.1677,-3.1677,-3.1677,-3.1677,-3.1677,-3.1677,-3.1677,-3.1677,-3.1677,-3.1677,-3.1677,-3.1677,-3.1677,-3.1677,-3.1677,-3.1677,-3.1677,-3.1677,-3.1677,-3.1677,-3.1677,-3.1677,-3.1677,-3.1677,-3.1677,-3.1677,-2.1326,-1.8534,-2.5146,-2.6959,-2.6008,-3.0021,-3.2377,-3.2612,-3.2599,-3.2639,-3.2666,-3.2599,-3.2652,-3.2599,-3.2652,-3.2572,-3.2559,-3.2585,-3.2572,-3.2559,-3.2599,-3.2612,-3.2625,-3.2639,-3.2759,-3.2986,-3.3253,-3.3374,-3.3334,-3.3347,-3.336,-3.3387,-3.3387,-3.3414,-3.3414,-3.344,-3.344,-3.3467,-3.348,-3.348,-3.3427,-3.348,-3.3507,-3.348,-3.348,-3.3494,-3.3467,-3.3427,-3.34,-3.3387,-3.3387,-3.34,-3.3347,-3.3334,-3.3267,-3.3026,-3.2973,-3.2853,-3.2639,-3.2572,-3.2545,-3.2532,-3.2519,-3.2345,-3.2144,-3.2104,-3.2011,-3.1824,-3.173,-3.1704,-3.1704,-3.1677,-3.1677,-3.1677,-3.1677,-3.1677,-3.1677,-3.1677,-3.1677,-3.1677,-3.1677,-3.1677,-3.1677,-3.1677,-3.1677,-3.1677,-3.1677,-3.1677,-3.1677,-3.1677,-3.1677,-3.1677,-3.1677,-3.1677,-3.1677,-3.1677,-3.1677,-3.1677,-3.1677,-3.1677,-3.1677,-3.1677,-3.1677,-3.1677,-3.1677,-3.1677,-3.1677,-3.1677,-3.1677,-3.1677,-3.1677,-3.1677,-3.1677,-3.1677,-3.1677,-2.0807,-2.0118,-2.4164,-2.689,-2.784,-2.9687,-3.1314,-3.3146,-3.3146,-3.3133,-3.3146,-3.3146,-3.3133,-3.3133,-3.3146,-3.3133,-3.3146,-3.3133,-3.304,-3.2906,-3.304,-3.312,-3.312,-3.3133,-3.3187,-3.328,-3.336,-3.3414,-3.3414,-3.3414,-3.3414,-3.3414,-3.3414,-3.3414,-3.3454,-3.3614,-3.3734,-3.3761,-3.3935,-3.4042,-3.4042,-3.4028,-3.4028,-3.4028,-3.4042,-3.4042,-3.4015,-3.3641,-3.3427,-3.3427,-3.3414,-3.3414,-3.3414,-3.3414,-3.3374,-3.3293,-3.328,-3.3253,-3.3133,-3.2946,-3.2839,-3.2812,-3.2679,-3.2519,-3.2425,-3.2412,-3.2358,-3.2238,-3.2104,-3.1971,-3.1944,-3.1784,-3.1704,-3.1677,-3.1677,-3.1677,-3.1677,-3.1677,-3.1677,-3.1677,-3.1677,-3.1677,-3.1677,-3.1677,-3.1677,-3.1677,-3.1677,-3.1677,-3.1677,-3.1677,-3.1677,-3.1677,-3.1677,-3.1677,-3.1677,-3.1677,-3.1677,-3.1677,-3.1677,-3.1677,-3.1677,-3.1677,-3.1677,-3.1677,-3.1677,-3.1677,-3.1677,-3.1677,-3.1677,-3.1677,-3.1677,-3.1677,-3.1677,-3.1677,-3.1677,-2.2442,-2.2961,-2.6627,-2.793,-2.8077,-2.8698,-2.9724,-3.0331,-3.0331,-3.0331,-3.0533,-3.1365,-3.1969,-3.2183,-3.2799,-3.3414,-3.3414,-3.3414,-3.332,-3.3173,-3.3307,-3.34,-3.3414,-3.3414,-3.3414,-3.3414,-3.3414,-3.3414,-3.3414,-3.3521,-3.3587,-3.3601,-3.3694,-3.3761,-3.3761,-3.3935,-3.4055,-3.4082,-3.4229,-3.4322,-3.4322,-3.4322,-3.4322,-3.4322,-3.4322,-3.4322,-3.4282,-3.3935,-3.3748,-3.3721,-3.3654,-3.3587,-3.3587,-3.348,-3.3414,-3.3414,-3.3414,-3.34,-3.3387,-3.3227,-3.3133,-3.3106,-3.2973,-3.2812,-3.2746,-3.2706,-3.2679,-3.2532,-3.2372,-3.2265,-3.2238,-3.2118,-3.1957,-3.1837,-3.173,-3.1677,-3.1677,-3.1677,-3.1677,-3.1677,-3.1677,-3.1677,-3.1677,-3.1677,-3.1677,-3.1677,-3.1677,-3.1677,-3.1677,-3.1677,-3.1677,-3.1677,-3.1677,-3.1677,-3.1677,-3.1677,-3.1677,-3.1677,-3.1677,-3.1677,-3.1677,-3.1677,-3.1677,-3.1677,-3.1677,-3.1677,-3.1677,-3.1677,-3.1677,-3.1677,-3.1677,-3.1677,-3.1677,-3.1677,-3.1677,-2.4794,-2.5625,-3.0533,-2.9498,-2.6035,-2.7884,-2.768,-2.583,-2.6035,-2.624,-2.6649,-2.9319,-3.0141,-3.0343,-3.2585,-3.3414,-3.3414,-3.348,-3.348,-3.3467,-3.3507,-3.3521,-3.3427,-3.3467,-3.3494,-3.348,-3.3507,-3.3521,-3.3574,-3.3788,-3.3908,-3.3935,-3.4122,-3.4295,-3.4242,-3.4309,-3.4336,-3.4349,-3.4389,-3.4429,-3.4429,-3.4416,-3.4416,-3.4429,-3.4429,-3.4442,-3.4442,-3.4389,-3.4336,-3.4282,-3.4015,-3.3908,-3.3855,-3.3627,-3.3521,-3.3494,-3.344,-3.344,-3.3427,-3.3374,-3.3374,-3.336,-3.3334,-3.3307,-3.3053,-3.3,-3.2919,-3.2719,-3.2612,-3.2572,-3.2559,-3.2492,-3.2372,-3.2144,-3.1851,-3.169,-3.1677,-3.1677,-3.1677,-3.1677,-3.1677,-3.1677,-3.1677,-3.1677,-3.1677,-3.1677,-3.1677,-3.1677,-3.1677,-3.1677,-3.1677,-3.1677,-3.1677,-3.1677,-3.1677,-3.1677,-3.1677,-3.1677,-3.1677,-3.1677,-3.1677,-3.1677,-3.1677,-3.1677,-3.1677,-3.1677,-3.1677,-3.1677,-3.1677,-3.1677,-3.1677,-3.1677,-3.1677,-3.1677,-3.1677,-2.2131,-2.2545,-2.582,-2.6444,-2.542,-2.6035,-2.583,-2.542,-2.7272,-2.7703,-2.871,-3.1151,-3.2008,-3.2384,-3.3013,-3.3414,-3.3494,-3.3668,-3.3761,-3.3801,-3.3988,-3.3788,-3.3547,-3.3654,-3.3761,-3.3788,-3.3935,-3.4082,-3.4095,-3.4148,-3.4202,-3.4202,-3.4309,-3.4349,-3.4336,-3.4549,-3.4643,-3.4683,-3.487,-3.495,-3.4937,-3.4937,-3.4963,-3.4963,-3.495,-3.495,-3.4963,-3.4963,-3.4736,-3.4349,-3.4255,-3.4202,-3.4202,-3.4095,-3.3948,-3.3788,-3.3748,-3.3641,-3.3467,-3.3427,-3.3414,-3.3414,-3.3414,-3.3374,-3.332,-3.3293,-3.3253,-3.3146,-3.3013,-3.2866,-3.2826,-3.2679,-3.2519,-3.2398,-3.2024,-3.1717,-3.169,-3.1677,-3.1677,-3.1677,-3.1677,-3.1677,-3.1677,-3.1677,-3.1677,-3.1677,-3.1677,-3.1677,-3.1677,-3.1677,-3.1677,-3.1677,-3.1677,-3.1677,-3.1677,-3.1677,-3.1677,-3.1677,-3.1677,-3.1677,-3.1677,-3.1677,-3.1677,-3.1677,-3.1677,-3.1677,-3.1677,-3.1677,-3.1677,-3.1677,-3.1677,-3.1677,-3.1677,-3.1677,-3.1677,-2.1725,-2.2949,-2.4598,-2.4598,-2.3568,-2.3568,-2.2752,-2.2356,-2.4697,-2.5975,-2.682,-3.0419,-3.2124,-3.2124,-3.3166,-3.3788,-3.3828,-3.3988,-3.4068,-3.4095,-3.4229,-3.4108,-3.3908,-3.4002,-3.4068,-3.4082,-3.4242,-3.4295,-3.4336,-3.4429,-3.4496,-3.4536,-3.4629,-3.4683,-3.4723,-3.4843,-3.495,-3.4977,-3.5124,-3.5204,-3.5204,-3.5204,-3.5191,-3.5191,-3.5204,-3.5204,-3.5191,-3.5191,-3.5017,-3.4736,-3.4589,-3.4509,-3.4496,-3.4376,-3.4242,-3.4082,-3.4068,-3.3935,-3.3681,-3.3614,-3.3547,-3.344,-3.3414,-3.3414,-3.34,-3.3414,-3.3414,-3.336,-3.324,-3.3173,-3.312,-3.2906,-3.2759,-3.2679,-3.2318,-3.1998,-3.1877,-3.1864,-3.1797,-3.1717,-3.1677,-3.1677,-3.1677,-3.1677,-3.1677,-3.1677,-3.1677,-3.1677,-3.1677,-3.1677,-3.1677,-3.1677,-3.1677,-3.1677,-3.1677,-3.1677,-3.1677,-3.1677,-3.1677,-3.1677,-3.1677,-3.1677,-3.1677,-3.1677,-3.1677,-3.1677,-3.1677,-3.1677,-3.1677,-3.1677,-3.1677,-3.1677,-3.1677,-3.1677,-3.1677,-2.214,-2.4422,-2.4422,-2.2995,-2.097,-2.0954,-2.0369,-1.8723,-2.1969,-2.3281,-2.4565,-2.851,-3.1267,-3.073,-3.3355,-3.4282,-3.4295,-3.4322,-3.4402,-3.4429,-3.4482,-3.4429,-3.4429,-3.4362,-3.4376,-3.4389,-3.4389,-3.4456,-3.4549,-3.4723,-3.4803,-3.4843,-3.5044,-3.5151,-3.5097,-3.5151,-3.5191,-3.5164,-3.5177,-3.5204,-3.5204,-3.5204,-3.5204,-3.5204,-3.5204,-3.5204,-3.5204,-3.5204,-3.5164,-3.5191,-3.495,-3.483,-3.4776,-3.4549,-3.4416,-3.4376,-3.4349,-3.4242,-3.3988,-3.3921,-3.3801,-3.3574,-3.3494,-3.3427,-3.3427,-3.3414,-3.3414,-3.3414,-3.3414,-3.3374,-3.3347,-3.3146,-3.304,-3.2986,-3.2772,-3.2519,-3.2265,-3.2171,-3.2051,-3.181,-3.1784,-3.1757,-3.1717,-3.1717,-3.1717,-3.1677,-3.1677,-3.1677,-3.1677,-3.1677,-3.1677,-3.1677,-3.1677,-3.1677,-3.1677,-3.1677,-3.1677,-3.1677,-3.1677,-3.1677,-3.1677,-3.1677,-3.1677,-3.1677,-3.1677,-3.1677,-3.1677,-3.1677,-3.1677,-3.1677,-3.1677,-3.1677,-3.1677,-3.1677,-3.1677,-1.8288,-1.8813,-1.8813,-1.8682,-1.8579,-2.0694,-2.1314,-2.1102,-2.598,-2.7478,-2.8972,-3.1768,-3.3072,-3.3072,-3.3524,-3.4322,-3.4196,-3.4369,-3.4776,-3.5004,-3.5017,-3.5004,-3.4937,-3.4776,-3.467,-3.471,-3.491,-3.499,-3.5017,-3.5004,-3.5097,-3.511,-3.5137,-3.5204,-3.5204,-3.5217,-3.5204,-3.5204,-3.5217,-3.5244,-3.5257,-3.5257,-3.5257,-3.5244,-3.5244,-3.5217,-3.5204,-3.5204,-3.5204,-3.5177,-3.5137,-3.5097,-3.5057,-3.5004,-3.487,-3.471,-3.4656,-3.4536,-3.4295,-3.4215,-3.4095,-3.3828,-3.3748,-3.3681,-3.3427,-3.3414,-3.3414,-3.3414,-3.3414,-3.3414,-3.34,-3.336,-3.3293,-3.3253,-3.3213,-3.3066,-3.2826,-3.2585,-3.2412,-3.2345,-3.2305,-3.2265,-3.2051,-3.2011,-3.1931,-3.1744,-3.1704,-3.169,-3.1717,-3.1757,-3.1797,-3.1864,-3.177,-3.1784,-3.1757,-3.173,-3.1677,-3.1677,-3.1677,-3.1677,-3.1677,-3.1677,-3.1677,-3.1677,-3.1677,-3.1677,-3.1677,-3.1677,-3.1677,-3.1677,-3.1677,-3.1677,-3.1677,-3.1677,-3.1677,-1.7229,-1.7297,-1.7297,-1.7344,-1.7621,-1.9118,-2.0594,-2.2087,-2.4924,-2.7081,-2.8379,-3.0166,-3.0657,-3.0879,-3.1942,-3.2583,-3.304,-3.4452,-3.5044,-3.5164,-3.5191,-3.5191,-3.5177,-3.5057,-3.4963,-3.5004,-3.511,-3.5191,-3.5204,-3.5204,-3.5177,-3.5204,-3.5217,-3.5204,-3.5244,-3.5324,-3.5404,-3.5458,-3.5551,-3.5605,-3.5605,-3.5605,-3.5605,-3.5605,-3.5605,-3.5605,-3.5618,-3.5618,-3.5538,-3.5444,-3.5391,-3.5324,-3.5217,-3.5204,-3.511,-3.5004,-3.4963,-3.4817,-3.4603,-3.4509,-3.4402,-3.4108,-3.3975,-3.3814,-3.3627,-3.3521,-3.3414,-3.3414,-3.3414,-3.3414,-3.3414,-3.34,-3.3414,-3.3414,-3.3414,-3.3334,-3.3173,-3.2933,-3.2679,-3.2599,-3.2505,-3.2452,-3.2358,-3.2318,-3.2278,-3.2144,-3.2144,-3.2131,-3.2171,-3.2198,-3.2171,-3.2144,-3.1984,-3.1904,-3.1864,-3.1797,-3.1677,-3.1677,-3.1677,-3.1677,-3.1677,-3.1677,-3.1677,-3.1677,-3.1677,-3.1677,-3.1677,-3.1677,-3.1677,-3.1677,-3.1677,-3.1677,-3.1677,-3.1677,-3.1677,-1.7433,-1.7453,-1.7453,-1.7467,-1.7487,-1.8136,-1.9846,-2.1556,-2.2544,-2.4961,-2.6052,-2.6448,-2.7319,-2.7371,-2.9945,-3.1047,-3.2348,-3.3858,-3.5191,-3.5297,-3.5311,-3.5364,-3.5378,-3.5391,-3.5364,-3.5324,-3.5311,-3.5297,-3.5297,-3.5311,-3.5444,-3.5364,-3.5351,-3.5431,-3.5431,-3.5551,-3.5698,-3.5725,-3.5872,-3.5979,-3.5992,-3.6006,-3.5992,-3.5992,-3.5992,-3.5979,-3.5979,-3.5979,-3.5925,-3.5725,-3.5698,-3.5538,-3.5338,-3.5204,-3.5204,-3.5191,-3.5164,-3.5044,-3.4883,-3.4817,-3.4696,-3.4402,-3.4189,-3.4015,-3.3921,-3.3708,-3.3561,-3.3494,-3.348,-3.3414,-3.3414,-3.3414,-3.3414,-3.3414,-3.3414,-3.3414,-3.3374,-3.3187,-3.2959,-3.2799,-3.2812,-3.2786,-3.2692,-3.2612,-3.2585,-3.2559,-3.2559,-3.2559,-3.2572,-3.2545,-3.2465,-3.2412,-3.2251,-3.2185,-3.2144,-3.2104,-3.1971,-3.1904,-3.1851,-3.1851,-3.1864,-3.1944,-3.1971,-3.1717,-3.1677,-3.169,-3.169,-3.1677,-3.1677,-3.1677,-3.1677,-3.1677,-3.1677,-3.1677,-3.169,-1.7494,-1.7609,-1.7609,-1.7677,-1.8211,-2.0388,-2.1448,-2.2552,-2.4279,-2.5821,-2.6253,-2.6293,-2.6097,-2.7187,-2.9551,-3.1935,-3.3736,-3.5086,-3.5378,-3.5525,-3.5565,-3.5645,-3.5805,-3.5805,-3.5859,-3.5859,-3.5725,-3.5605,-3.5631,-3.5778,-3.5819,-3.5885,-3.5872,-3.5872,-3.5872,-3.5979,-3.5992,-3.6019,-3.6112,-3.6166,-3.6166,-3.6166,-3.6166,-3.6166,-3.6179,-3.6153,-3.6126,-3.6099,-3.6046,-3.6006,-3.5992,-3.5832,-3.5591,-3.5364,-3.5257,-3.5204,-3.5204,-3.5151,-3.5084,-3.5097,-3.4963,-3.4763,-3.4589,-3.4456,-3.4255,-3.3988,-3.3814,-3.3708,-3.3547,-3.3414,-3.3414,-3.3414,-3.3414,-3.3414,-3.3414,-3.3414,-3.34,-3.3347,-3.328,-3.316,-3.316,-3.3146,-3.3013,-3.2893,-3.2853,-3.2812,-3.2772,-3.2746,-3.2732,-3.2692,-3.2625,-3.2559,-3.2505,-3.2478,-3.2465,-3.2438,-3.2358,-3.2318,-3.2278,-3.2278,-3.2305,-3.2385,-3.2318,-3.2024,-3.1837,-3.181,-3.1784,-3.177,-3.1784,-3.1877,-3.1797,-3.1704,-3.181,-3.1904,-3.1824,-1.769,-1.7758,-1.7758,-1.7799,-1.8074,-1.939,-2.0905,-2.2,-2.221,-2.2848,-2.3502,-2.2857,-2.3137,-2.4939,-2.7569,-3.1331,-3.4724,-3.5645,-3.5738,-3.5845,-3.5872,-3.5912,-3.6086,-3.6086,-3.6072,-3.6072,-3.6059,-3.5979,-3.5885,-3.5979,-3.6099,-3.6059,-3.6072,-3.6072,-3.6112,-3.6219,-3.6273,-3.6313,-3.642,-3.65,-3.65,-3.6513,-3.6513,-3.6513,-3.65,-3.6527,-3.6527,-3.6527,-3.6446,-3.634,-3.6299,-3.6126,-3.5912,-3.5725,-3.5511,-3.5284,-3.5217,-3.5204,-3.5204,-3.5191,-3.511,-3.5004,-3.487,-3.4723,-3.4523,-3.4295,-3.4055,-3.3855,-3.3614,-3.3414,-3.3414,-3.3414,-3.3414,-3.3414,-3.3414,-3.3414,-3.3414,-3.3414,-3.3414,-3.3414,-3.3347,-3.328,-3.3267,-3.3173,-3.312,-3.3066,-3.2986,-3.2959,-3.2933,-3.2906,-3.2866,-3.2866,-3.2826,-3.2719,-3.2706,-3.2679,-3.2692,-3.2666,-3.2652,-3.2652,-3.2625,-3.2639,-3.2519,-3.2291,-3.2144,-3.2131,-3.2131,-3.2211,-3.2144,-3.2091,-3.2118,-3.2131,-3.2131,-3.2131,-3.2051,-1.786,-1.786,-1.786,-1.786,-1.786,-1.786,-1.9192,-2.0521,-1.9007,-1.9471,-2.0796,-1.95,-2.0011,-2.2949,-2.6724,-3.0986,-3.5843,-3.6046,-3.6072,-3.6153,-3.6166,-3.6179,-3.6246,-3.6246,-3.6299,-3.638,-3.646,-3.6433,-3.6233,-3.6273,-3.6273,-3.6313,-3.6273,-3.6246,-3.634,-3.6513,-3.658,-3.6674,-3.6794,-3.6927,-3.6941,-3.6941,-3.6941,-3.6941,-3.6941,-3.6914,-3.6874,-3.6861,-3.6767,-3.6647,-3.6567,-3.646,-3.6219,-3.6153,-3.5912,-3.5471,-3.5324,-3.5257,-3.5204,-3.5204,-3.5191,-3.5137,-3.4977,-3.4883,-3.4776,-3.4576,-3.4269,-3.3935,-3.3694,-3.348,-3.344,-3.3414,-3.3414,-3.3414,-3.3414,-3.3414,-3.3414,-3.3414,-3.3414,-3.3414,-3.3414,-3.3387,-3.3347,-3.3334,-3.3267,-3.3267,-3.3187,-3.3213,-3.32,-3.324,-3.3227,-3.324,-3.3173,-3.3,-3.2933,-3.2893,-3.2919,-3.2946,-3.2933,-3.2933,-3.2866,-3.2826,-3.2706,-3.2679,-3.2719,-3.2719,-3.2692,-3.2545,-3.2412,-3.2372,-3.2492,-3.2492,-3.2385,-3.2372,-3.2345,-1.786,-1.786,-1.7867,-1.786,-1.7867,-1.788,-1.817,-1.8496,-1.8287,-1.8369,-1.9113,-1.8698,-2.0027,-2.3834,-2.8722,-3.2725,-3.5206,-3.6166,-3.6273,-3.6433,-3.646,-3.6567,-3.6767,-3.6834,-3.674,-3.6714,-3.6807,-3.6714,-3.6553,-3.6674,-3.678,-3.6767,-3.674,-3.6807,-3.6727,-3.678,-3.6887,-3.6887,-3.6914,-3.6941,-3.6941,-3.6941,-3.6941,-3.6941,-3.6941,-3.6941,-3.6941,-3.6941,-3.6887,-3.6874,-3.6874,-3.674,-3.6513,-3.646,-3.6286,-3.5992,-3.5725,-3.5471,-3.5284,-3.5204,-3.5204,-3.5204,-3.5137,-3.5137,-3.503,-3.4817,-3.4456,-3.3935,-3.3828,-3.3694,-3.3507,-3.3427,-3.3414,-3.3414,-3.3414,-3.3414,-3.3414,-3.3414,-3.3414,-3.3414,-3.3414,-3.3414,-3.3387,-3.34,-3.34,-3.34,-3.3414,-3.3414,-3.3414,-3.3414,-3.3414,-3.3374,-3.336,-3.32,-3.3133,-3.3106,-3.3106,-3.316,-3.3173,-3.3173,-3.312,-3.3093,-3.32,-3.3187,-3.3213,-3.308,-3.2879,-3.2719,-3.2599,-3.2639,-3.2759,-3.2679,-3.2532,-3.2559,-3.2666,-1.7941,-1.7874,-1.7955,-1.7989,-1.8002,-1.8084,-1.8158,-1.8206,-1.8219,-1.8253,-1.8308,-1.8321,-2.0809,-2.5591,-3.041,-3.3641,-3.6102,-3.654,-3.662,-3.6714,-3.674,-3.6821,-3.6901,-3.6941,-3.6941,-3.6941,-3.6927,-3.6887,-3.6821,-3.6847,-3.6941,-3.6941,-3.6941,-3.6914,-3.6941,-3.6941,-3.6927,-3.6927,-3.6941,-3.6941,-3.6941,-3.6941,-3.6941,-3.6941,-3.6941,-3.6941,-3.6941,-3.6941,-3.6941,-3.6941,-3.6941,-3.6887,-3.678,-3.6727,-3.662,-3.634,-3.6206,-3.5925,-3.5511,-3.5311,-3.5231,-3.5204,-3.5204,-3.5191,-3.5137,-3.4937,-3.471,-3.4429,-3.4068,-3.3828,-3.3668,-3.3507,-3.344,-3.3414,-3.3414,-3.3414,-3.3414,-3.3414,-3.3414,-3.3414,-3.3414,-3.3414,-3.3414,-3.3414,-3.3414,-3.3414,-3.3414,-3.3414,-3.3414,-3.3414,-3.3414,-3.34,-3.34,-3.336,-3.3334,-3.3307,-3.328,-3.3307,-3.3307,-3.332,-3.3347,-3.3387,-3.3414,-3.3414,-3.3334,-3.3187,-3.3013,-3.3,-3.3,-3.3013,-3.304,-3.2959,-3.2906,-3.3,-3.308,-1.8084,-1.7989,-1.8097,-1.8152,-1.8158,-1.8274,-1.8335,-1.8375,-1.8375,-1.8396,-1.8872,-2.0244,-2.3675,-2.7825,-3.1597,-3.5049,-3.6693,-3.6941,-3.6941,-3.6941,-3.6941,-3.6927,-3.6941,-3.6941,-3.6941,-3.6941,-3.6941,-3.6914,-3.6927,-3.6941,-3.6941,-3.6941,-3.6941,-3.6941,-3.6941,-3.6941,-3.6941,-3.6941,-3.6941,-3.6941,-3.6941,-3.6941,-3.6941,-3.6941,-3.6941,-3.6941,-3.6941,-3.6941,-3.6941,-3.6941,-3.6941,-3.6914,-3.6901,-3.6887,-3.6821,-3.6607,-3.65,-3.6286,-3.5885,-3.5591,-3.5324,-3.5217,-3.5204,-3.5204,-3.5177,-3.4977,-3.4803,-3.471,-3.4429,-3.4122,-3.3881,-3.3654,-3.3534,-3.3467,-3.3414,-3.3414,-3.3414,-3.3414,-3.3414,-3.3414,-3.3414,-3.3414,-3.3414,-3.3414,-3.3414,-3.3414,-3.3414,-3.3414,-3.3414,-3.3414,-3.3414,-3.3414,-3.3414,-3.3414,-3.3414,-3.3414,-3.3414,-3.3414,-3.3414,-3.3414,-3.3414,-3.3414,-3.3414,-3.3414,-3.3414,-3.3347,-3.32,-3.3307,-3.34,-3.3293,-3.324,-3.332,-3.3347,-3.3414,-3.3387,-1.8301,-1.8294,-1.8301,-1.8308,-1.8308,-1.8314,-1.8403,-1.8518,-1.8518,-1.8593,-1.9367,-2.3954,-2.6423,-2.8965,-3.2809,-3.6028,-3.6941,-3.6941,-3.6941,-3.6941,-3.6941,-3.6941,-3.6941,-3.6941,-3.6941,-3.6941,-3.6941,-3.6941,-3.6941,-3.6941,-3.6941,-3.6941,-3.6941,-3.6941,-3.6941,-3.6941,-3.6941,-3.6941,-3.6941,-3.6941,-3.6941,-3.6941,-3.6941,-3.6941,-3.6941,-3.6941,-3.6941,-3.6941,-3.6941,-3.6941,-3.6941,-3.6941,-3.6941,-3.6941,-3.6874,-3.6821,-3.6674,-3.6487,-3.6246,-3.5819,-3.5471,-3.5297,-3.5204,-3.5204,-3.5191,-3.5191,-3.5044,-3.483,-3.4629,-3.4402,-3.4108,-3.3841,-3.3748,-3.3587,-3.3521,-3.3467,-3.3454,-3.3414,-3.3414,-3.3414,-3.3414,-3.3414,-3.3414,-3.3414,-3.3414,-3.3414,-3.3414,-3.3414,-3.3414,-3.3414,-3.3414,-3.3414,-3.3414,-3.3414,-3.3414,-3.3414,-3.3414,-3.3414,-3.3414,-3.3414,-3.3414,-3.3414,-3.3414,-3.3414,-3.3414,-3.3414,-3.3414,-3.3414,-3.3414,-3.3414,-3.3414,-3.3414,-3.3414,-3.3414,-3.3414,-1.8504,-1.8586,-1.8593,-1.8538,-1.8457,-1.8552,-1.8626,-1.8667,-1.8674,-1.8701,-1.8987,-2.3097,-2.6054,-2.8543,-3.1936,-3.5335,-3.6706,-3.6941,-3.6719,-3.6941,-3.6941,-3.6941,-3.6941,-3.6941,-3.6941,-3.6941,-3.6941,-3.6941,-3.6941,-3.6941,-3.6941,-3.6941,-3.6941,-3.6941,-3.6941,-3.6941,-3.6941,-3.6941,-3.6941,-3.6941,-3.6941,-3.6941,-3.6941,-3.6941,-3.6941,-3.6941,-3.6941,-3.6941,-3.6941,-3.6941,-3.6941,-3.6941,-3.6941,-3.6941,-3.6941,-3.6941,-3.6794,-3.6687,-3.6433,-3.5992,-3.5511,-3.5271,-3.5204,-3.5204,-3.5204,-3.5204,-3.5164,-3.5017,-3.487,-3.4616,-3.4509,-3.4255,-3.4055,-3.3814,-3.3654,-3.3574,-3.3507,-3.3467,-3.3414,-3.3414,-3.3414,-3.3414,-3.3414,-3.3414,-3.3414,-3.3414,-3.3414,-3.3414,-3.3414,-3.3414,-3.3414,-3.3414,-3.3414,-3.3414,-3.3414,-3.3414,-3.3414,-3.3414,-3.3414,-3.3414,-3.3414,-3.3414,-3.3414,-3.3414,-3.3414,-3.3414,-3.3414,-3.3414,-3.3414,-3.3414,-3.3414,-3.3414,-3.3414,-3.3414,-3.3414,-1.8667,-1.8755,-1.8762,-1.8701,-1.862,-1.8715,-1.8762,-1.8762,-1.8755,-1.8762,-1.8994,-2.1955,-2.4455,-2.6955,-2.9674,-3.1936,-3.3304,-3.3763,-3.4668,-3.5113,-3.5335,-3.6028,-3.6706,-3.6941,-3.6941,-3.6941,-3.6941,-3.6941,-3.6941,-3.6941,-3.6941,-3.6941,-3.6941,-3.6941,-3.6941,-3.6941,-3.6941,-3.6941,-3.6941,-3.6941,-3.6941,-3.6941,-3.6941,-3.6941,-3.6941,-3.6941,-3.6941,-3.6941,-3.6941,-3.6941,-3.6941,-3.6941,-3.6941,-3.6941,-3.6941,-3.6941,-3.6914,-3.6821,-3.654,-3.6019,-3.5565,-3.5391,-3.5231,-3.5217,-3.5204,-3.5204,-3.5177,-3.5164,-3.5004,-3.4857,-3.4803,-3.4549,-3.4322,-3.4082,-3.3855,-3.3748,-3.3614,-3.3534,-3.3467,-3.3414,-3.3414,-3.3414,-3.3414,-3.3414,-3.3414,-3.3414,-3.3414,-3.3414,-3.3414,-3.3414,-3.3414,-3.3414,-3.3414,-3.3414,-3.3414,-3.3414,-3.3414,-3.3414,-3.3414,-3.3414,-3.3414,-3.3414,-3.3414,-3.3414,-3.3414,-3.3414,-3.3414,-3.3414,-3.3414,-3.3414,-3.3414,-3.3414,-3.3414,-3.3414,-3.3414,-1.8755,-1.8762,-1.8762,-1.8755,-1.8742,-1.8755,-1.8762,-1.8762,-1.8762,-1.8762,-1.9219,-2.1955,-2.3318,-2.4455,-2.7409,-2.8996,-2.9222,-2.9222,-3.0125,-3.216,-3.2609,-3.4197,-3.557,-3.6263,-3.6249,-3.6719,-3.6941,-3.6941,-3.6941,-3.6941,-3.6941,-3.6941,-3.6941,-3.6941,-3.6941,-3.6941,-3.6941,-3.6941,-3.6941,-3.6941,-3.6941,-3.6941,-3.6941,-3.6941,-3.6941,-3.6941,-3.6941,-3.6941,-3.6941,-3.6941,-3.6941,-3.6941,-3.6941,-3.6941,-3.6941,-3.6941,-3.6941,-3.6927,-3.6861,-3.6086,-3.5738,-3.5565,-3.5378,-3.5271,-3.5217,-3.5204,-3.5204,-3.5191,-3.5137,-3.5017,-3.4897,-3.475,-3.4576,-3.4376,-3.4148,-3.3921,-3.3801,-3.3654,-3.3587,-3.344,-3.3414,-3.3414,-3.3414,-3.3414,-3.3414,-3.3414,-3.3414,-3.3414,-3.3414,-3.3414,-3.3414,-3.3414,-3.3414,-3.3414,-3.3414,-3.3414,-3.3414,-3.3414,-3.3414,-3.3414,-3.3414,-3.3414,-3.3414,-3.3414,-3.3414,-3.3414,-3.3414,-3.3414,-3.3414,-3.3414,-3.3414,-3.3414,-3.3414,-3.3414,-3.3414,-1.8762,-1.8762,-1.8762,-1.8762,-1.8762,-1.8762,-1.8762,-1.8762,-1.8762,-1.8762,-1.9451,-2.1955,-2.3318,-2.4235,-2.6054,-2.7419,-2.7647,-2.7874,-2.8996,-2.9222,-2.9448,-3.1262,-3.308,-3.4209,-3.4878,-3.6484,-3.6941,-3.6706,-3.6941,-3.6941,-3.6941,-3.6941,-3.6941,-3.6941,-3.6941,-3.6941,-3.6941,-3.6941,-3.6941,-3.6941,-3.6941,-3.6941,-3.6941,-3.6941,-3.6941,-3.6941,-3.6941,-3.6941,-3.6941,-3.6941,-3.6941,-3.6941,-3.6941,-3.6941,-3.6941,-3.6941,-3.6941,-3.6941,-3.6861,-3.6433,-3.6032,-3.5765,-3.5538,-3.5378,-3.5244,-3.5204,-3.5204,-3.5204,-3.5204,-3.511,-3.507,-3.5057,-3.491,-3.4696,-3.4469,-3.4202,-3.4028,-3.3868,-3.3734,-3.3507,-3.3414,-3.3414,-3.3414,-3.3414,-3.3414,-3.3414,-3.3414,-3.3414,-3.3414,-3.3414,-3.3414,-3.3414,-3.3414,-3.3414,-3.3414,-3.3414,-3.3414,-3.3414,-3.3414,-3.3414,-3.3414,-3.3414,-3.3414,-3.3414,-3.3414,-3.3414,-3.3414,-3.3414,-3.3414,-3.3414,-3.3414,-3.3414,-3.3414,-3.3414,-3.3414,-1.8762,-1.8762,-1.8762,-1.8762,-1.8762,-1.8762,-1.8762,-1.8762,-1.8762,-1.8762,-1.9219,-2.1048,-2.1725,-2.2177,-2.3547,-2.4693,-2.4684,-2.4693,-2.5826,-2.6054,-2.6272,-2.8317,-2.99,-3.1037,-3.1712,-3.3751,-3.489,-3.5335,-3.5113,-3.6484,-3.6941,-3.6941,-3.6941,-3.6941,-3.6941,-3.6941,-3.6941,-3.6941,-3.6941,-3.6941,-3.6941,-3.6941,-3.6941,-3.6941,-3.6941,-3.6941,-3.6941,-3.6941,-3.6941,-3.6941,-3.6941,-3.6941,-3.6941,-3.6941,-3.6941,-3.6941,-3.6941,-3.6941,-3.6861,-3.6794,-3.6393,-3.6046,-3.5792,-3.5498,-3.5271,-3.5204,-3.5204,-3.5204,-3.5204,-3.5191,-3.5191,-3.5204,-3.511,-3.4883,-3.4723,-3.4469,-3.4309,-3.4148,-3.3868,-3.3654,-3.3454,-3.344,-3.3414,-3.3414,-3.3414,-3.3414,-3.3414,-3.3414,-3.3414,-3.3414,-3.3414,-3.3414,-3.3414,-3.3414,-3.3414,-3.3414,-3.3414,-3.3414,-3.3414,-3.3414,-3.3414,-3.3414,-3.3414,-3.3414,-3.3414,-3.3414,-3.3414,-3.3414,-3.3414,-3.3414,-3.3414,-3.3414,-3.3414,-3.3414,-3.3414,-1.8762,-1.8762,-1.8762,-1.8762,-1.8762,-1.8762,-1.8762,-1.8762,-1.8762,-1.8762,-1.8994,-1.8994,-1.9451,-1.8987,-1.9219,-1.9683,-1.9907,-1.9676,-2.1279,-2.2645,-2.3097,-2.5369,-2.6955,-2.7863,-2.8543,-2.9448,-3.0801,-3.262,-3.2832,-3.557,-3.6941,-3.6484,-3.6706,-3.6719,-3.6941,-3.6941,-3.6941,-3.6941,-3.6941,-3.6941,-3.6941,-3.6941,-3.6941,-3.6941,-3.6941,-3.6941,-3.6941,-3.6941,-3.6941,-3.6941,-3.6941,-3.6941,-3.6941,-3.6941,-3.6941,-3.6941,-3.6941,-3.6941,-3.6927,-3.6887,-3.6727,-3.634,-3.5992,-3.5591,-3.5324,-3.5244,-3.5204,-3.5204,-3.5204,-3.5204,-3.5204,-3.5204,-3.5191,-3.5044,-3.4923,-3.4763,-3.4629,-3.4402,-3.4095,-3.3841,-3.3614,-3.3521,-3.3427,-3.3414,-3.3414,-3.3414,-3.3414,-3.3414,-3.3414,-3.3414,-3.3414,-3.3414,-3.3414,-3.3414,-3.3414,-3.3414,-3.3414,-3.3414,-3.3414,-3.3414,-3.3414,-3.3414,-3.3414,-3.3414,-3.3414,-3.3414,-3.3414,-3.3414,-3.3414,-3.3414,-3.3414,-3.3414,-3.3414,-3.3414,-3.3414,-1.8762,-1.8762,-1.8762,-1.8762,-1.8762,-1.8762,-1.8762,-1.8762,-1.8762,-1.8762,-1.8762,-1.8762,-1.8762,-1.8762,-1.8762,-1.8762,-1.8762,-1.8994,-1.9219,-1.9907,-2.0586,-2.2415,-2.3547,-2.4684,-2.5826,-2.7409,-2.877,-3.0114,-3.2385,-3.5113,-3.5335,-3.4197,-3.6028,-3.6706,-3.6941,-3.6941,-3.6941,-3.6941,-3.6941,-3.6941,-3.6941,-3.6941,-3.6941,-3.6941,-3.6941,-3.6941,-3.6941,-3.6941,-3.6941,-3.6941,-3.6941,-3.6941,-3.6941,-3.6941,-3.6941,-3.6941,-3.6941,-3.6941,-3.6941,-3.6941,-3.6821,-3.6607,-3.6313,-3.5992,-3.5645,-3.5364,-3.5257,-3.5204,-3.5204,-3.5204,-3.5204,-3.5204,-3.5204,-3.5137,-3.503,-3.495,-3.4817,-3.4629,-3.4322,-3.4068,-3.3841,-3.3627,-3.3534,-3.3414,-3.3414,-3.3414,-3.3414,-3.3414,-3.3414,-3.3414,-3.3414,-3.3414,-3.3414,-3.3414,-3.3414,-3.3414,-3.3414,-3.3414,-3.3414,-3.3414,-3.3414,-3.3414,-3.3414,-3.3414,-3.3414,-3.3414,-3.3414,-3.3414,-3.3414,-3.3414,-3.3414,-3.3414,-3.3414,-3.3414,-3.3414,-1.8762,-1.8762,-1.8762,-1.8762,-1.8762,-1.8762,-1.8762,-1.8762,-1.8762,-1.8762,-1.8762,-1.8762,-1.8762,-1.8762,-1.8762,-1.8762,-1.8762,-1.8762,-1.8987,-1.8987,-1.8776,-1.99,-2.1048,-2.174,-2.2415,-2.4235,-2.5598,-2.6718,-2.9663,-3.2844,-3.3751,-3.3068,-3.5335,-3.6484,-3.6941,-3.6941,-3.6941,-3.6941,-3.6941,-3.6941,-3.6941,-3.6941,-3.6941,-3.6941,-3.6941,-3.6941,-3.6941,-3.6941,-3.6941,-3.6941,-3.6941,-3.6941,-3.6941,-3.6941,-3.6941,-3.6941,-3.6941,-3.6941,-3.6941,-3.6941,-3.6834,-3.67,-3.6567,-3.6326,-3.5992,-3.5685,-3.5431,-3.5231,-3.5217,-3.5204,-3.5204,-3.5204,-3.5204,-3.5191,-3.5151,-3.511,-3.4977,-3.4843,-3.4589,-3.4322,-3.4082,-3.3828,-3.3654,-3.3521,-3.3414,-3.3414,-3.3414,-3.3414,-3.3414,-3.3414,-3.3414,-3.3414,-3.3414,-3.3414,-3.3414,-3.3414,-3.3414,-3.3414,-3.3414,-3.3414,-3.3414,-3.3414,-3.3414,-3.3414,-3.3414,-3.3414,-3.3414,-3.3414,-3.3414,-3.3414,-3.3414,-3.3414,-3.3414,-3.3414,-3.3414,-1.8762,-1.8762,-1.8762,-1.8776,-1.8782,-1.8789,-1.8796,-1.8796,-1.8823,-1.8796,-1.8796,-1.8782,-1.881,-1.8857,-1.8864,-1.8857,-1.8871,-1.8871,-1.8877,-1.8803,-1.8857,-1.9324,-1.9317,-1.9042,-2.0233,-2.0414,-2.1302,-2.3377,-2.4693,-2.8307,-3.1712,-3.1924,-3.3986,-3.5126,-3.557,-3.5793,-3.6028,-3.6941,-3.6941,-3.6941,-3.6941,-3.6941,-3.6941,-3.6941,-3.6941,-3.6941,-3.6941,-3.6941,-3.6941,-3.6941,-3.6941,-3.6941,-3.6941,-3.6941,-3.6941,-3.6941,-3.6941,-3.6941,-3.6941,-3.6941,-3.6941,-3.6834,-3.67,-3.654,-3.6246,-3.5819,-3.5498,-3.5324,-3.5297,-3.5217,-3.5204,-3.5204,-3.5204,-3.5204,-3.5177,-3.5164,-3.5097,-3.4963,-3.4776,-3.4536,-3.4349,-3.4108,-3.3908,-3.3774,-3.3601,-3.3507,-3.3414,-3.3414,-3.3414,-3.3414,-3.3414,-3.3414,-3.3414,-3.3414,-3.3414,-3.3414,-3.3414,-3.3414,-3.3414,-3.3414,-3.3414,-3.3414,-3.3414,-3.3414,-3.3414,-3.3414,-3.3414,-3.3414,-3.3414,-3.3414,-3.3414,-3.3414,-3.3414,-3.3414,-3.3414,-1.8762,-1.8762,-1.8762,-1.883,-1.8932,-1.8932,-1.9,-1.9094,-1.9094,-1.9027,-1.8952,-1.8945,-1.8993,-1.9054,-1.9054,-1.9061,-1.9067,-1.9033,-1.9088,-1.9067,-1.9061,-1.9027,-1.9074,-1.904,-1.902,-1.9193,-1.9847,-2.0473,-2.1772,-2.5388,-2.7863,-2.6272,-2.8996,-3.1712,-3.3515,-3.3527,-3.4655,-3.6028,-3.6941,-3.6941,-3.6941,-3.6941,-3.6941,-3.6941,-3.6941,-3.6941,-3.6941,-3.6941,-3.6941,-3.6941,-3.6941,-3.6941,-3.6941,-3.6941,-3.6941,-3.6941,-3.6941,-3.6941,-3.6941,-3.6941,-3.6941,-3.6941,-3.6834,-3.67,-3.6406,-3.5912,-3.5605,-3.5485,-3.5378,-3.5284,-3.5204,-3.5204,-3.5204,-3.5204,-3.5204,-3.5204,-3.5204,-3.507,-3.4937,-3.4776,-3.4603,-3.4402,-3.4202,-3.4015,-3.3841,-3.3668,-3.3494,-3.3427,-3.344,-3.344,-3.3414,-3.3414,-3.3414,-3.3414,-3.3414,-3.3414,-3.3414,-3.3414,-3.3414,-3.3414,-3.3414,-3.3414,-3.3414,-3.3414,-3.3414,-3.3414,-3.3414,-3.3414,-3.3414,-3.3414,-3.3414,-3.3414,-3.3414,-3.3414,-3.3414,-1.8864,-1.8871,-1.8932,-1.9006,-1.9074,-1.9081,-1.9135,-1.9189,-1.9203,-1.9196,-1.9176,-1.9128,-1.9135,-1.9203,-1.9203,-1.9217,-1.9217,-1.9196,-1.9169,-1.9189,-1.9223,-1.9183,-1.9203,-1.9223,-1.9156,-1.9088,-1.9006,-1.9393,-1.9782,-2.2662,-2.4912,-2.3785,-2.6282,-2.8543,-3.0576,-3.1476,-3.2832,-3.489,-3.6028,-3.6706,-3.6719,-3.6941,-3.6941,-3.6941,-3.6941,-3.6941,-3.6941,-3.6941,-3.6941,-3.6941,-3.6941,-3.6941,-3.6941,-3.6941,-3.6941,-3.6941,-3.6941,-3.6941,-3.6941,-3.6941,-3.6941,-3.6941,-3.6941,-3.678,-3.6727,-3.6273,-3.5872,-3.5738,-3.5551,-3.5444,-3.5257,-3.5204,-3.5204,-3.5204,-3.5204,-3.5204,-3.5204,-3.5151,-3.507,-3.5017,-3.483,-3.4643,-3.4442,-3.4269,-3.4108,-3.4015,-3.3801,-3.3641,-3.3614,-3.3507,-3.3467,-3.3427,-3.3427,-3.3414,-3.3414,-3.3414,-3.3414,-3.3414,-3.3414,-3.3414,-3.3414,-3.3414,-3.3414,-3.3414,-3.3414,-3.3414,-3.3414,-3.3414,-3.3414,-3.3414,-3.3414,-3.3414,-3.3414,-3.3414,-3.3414,-1.902,-1.904,-1.9149,-1.9217,-1.923,-1.923,-1.925,-1.9271,-1.9264,-1.9339,-1.9427,-1.9318,-1.9271,-1.9257,-1.9257,-1.9257,-1.9284,-1.9339,-1.9305,-1.9298,-1.9298,-1.9339,-1.9332,-1.9291,-1.9278,-1.9203,-1.9108,-1.9061,-1.9248,-2.1666,-2.2933,-2.336,-2.4921,-2.6955,-2.809,-2.9437,-3.1251,-3.3068,-3.4655,-3.6249,-3.6706,-3.6941,-3.6941,-3.6941,-3.6941,-3.6941,-3.6941,-3.6941,-3.6941,-3.6941,-3.6941,-3.6941,-3.6941,-3.6941,-3.6941,-3.6941,-3.6941,-3.6941,-3.6941,-3.6941,-3.6941,-3.6941,-3.6941,-3.6914,-3.6847,-3.6633,-3.6233,-3.5979,-3.5805,-3.5565,-3.5364,-3.5217,-3.5217,-3.5204,-3.5204,-3.5204,-3.5204,-3.5204,-3.5191,-3.5177,-3.503,-3.483,-3.471,-3.4523,-3.4402,-3.4322,-3.4189,-3.4055,-3.3895,-3.3734,-3.3614,-3.3534,-3.348,-3.3454,-3.3414,-3.3414,-3.3414,-3.3414,-3.3414,-3.3414,-3.3414,-3.3414,-3.3414,-3.3414,-3.3414,-3.3414,-3.3414,-3.3414,-3.3414,-3.3414,-3.3414,-3.3414,-3.3414,-3.3414,-3.3414,-1.9162,-1.9162,-1.9196,-1.9271,-1.9373,-1.9386,-1.9461,-1.9563,-1.9569,-1.9596,-1.959,-1.9596,-1.9576,-1.9569,-1.9576,-1.9549,-1.9501,-1.9522,-1.9556,-1.9576,-1.9515,-1.9542,-1.9542,-1.9481,-1.9474,-1.9373,-1.925,-1.9176,-1.9142,-1.9718,-1.9861,-2.0314,-2.0175,-2.1971,-2.4235,-2.5816,-2.7626,-3.0125,-3.2385,-3.3974,-3.6028,-3.6484,-3.6941,-3.6941,-3.6941,-3.6941,-3.6941,-3.6941,-3.6941,-3.6941,-3.6941,-3.6941,-3.6941,-3.6941,-3.6941,-3.6941,-3.6941,-3.6941,-3.6941,-3.6941,-3.6941,-3.6941,-3.6941,-3.6927,-3.6901,-3.6887,-3.6553,-3.6326,-3.6086,-3.5738,-3.5511,-3.5311,-3.5257,-3.5217,-3.5204,-3.5204,-3.5204,-3.5204,-3.5191,-3.5191,-3.5151,-3.5057,-3.503,-3.4857,-3.4696,-3.4589,-3.4416,-3.4282,-3.4215,-3.4015,-3.3788,-3.3694,-3.3601,-3.3467,-3.3414,-3.3414,-3.3414,-3.3414,-3.3414,-3.3414,-3.3414,-3.3414,-3.3414,-3.3414,-3.3414,-3.3414,-3.3414,-3.3414,-3.3414,-3.3414,-3.3414,-3.3414,-3.3414,-3.3414,-3.3414]}]]